GFSSW_sfc_30mbdewp_000.txt.gz
Dewpoint
51 51 51 51 51 51 51 51 52 54 56 58 60 60 60 60 59 56 51 49 53 56 55 48 45 44 46 43 47 48 42 39 38 36 35 35 34 33 33 33 35 35 33 35 40
52 51 51 51 51 51 51 51 53 53 55 56 58 59 59 59 57 54 55 56 55 56 51 47 45 48 45 46 44 47 44 41 41 39 36 37 35 33 33 35 35 36 37 38 48
53 52 51 51 51 51 52 52 52 53 55 57 57 58 59 59 51 50 55 56 56 56 54 53 51 48 44 45 47 47 44 43 41 40 39 37 37 35 33 33 35 34 36 37 46
54 52 52 51 51 51 51 51 52 53 54 55 56 57 58 56 40 49 53 54 56 57 54 52 50 45 43 43 44 43 45 45 45 44 43 41 38 37 35 34 36 36 38 39 38
55 53 52 51 52 51 51 51 52 53 53 54 56 56 52 49 47 49 50 51 51 52 53 52 48 46 42 42 44 44 43 45 46 45 44 43 41 39 37 37 38 38 38 38 38
56 54 53 51 52 52 52 52 52 52 53 54 55 55 48 39 46 44 48 46 48 49 49 51 49 47 45 42 41 42 43 44 44 43 43 42 41 39 38 38 38 38 38 38 38
56 55 54 52 52 52 52 53 53 53 52 53 54 52 48 41 44 44 43 44 43 45 47 50 50 48 46 43 43 42 40 41 41 43 42 41 40 40 38 37 37 38 38 38 38
56 56 55 54 53 53 52 54 53 54 53 53 53 51 41 45 46 44 44 42 40 41 41 40 41 47 44 44 42 40 40 38 40 41 44 42 38 40 39 37 37 37 37 38 37
56 56 56 54 54 53 54 54 53 52 52 53 49 46 38 45 43 43 44 41 39 39 39 39 39 39 39 41 38 39 35 35 37 41 42 41 38 39 38 37 36 37 37 37 37
55 56 56 54 54 54 54 53 53 52 51 51 49 43 43 39 41 43 43 42 38 38 36 38 38 36 38 37 30 31 33 33 33 40 41 40 40 40 38 37 37 37 36 35 37
54 55 56 54 53 53 52 48 42 42 46 39 39 39 35 41 42 41 42 40 40 38 34 35 36 32 33 36 36 36 35 32 35 36 37 38 39 40 41 38 37 36 35 33 38
53 55 55 55 53 54 49 44 41 41 38 42 42 41 40 41 38 40 41 38 38 35 36 34 31 33 35 35 35 35 33 33 34 35 35 38 39 41 39 39 37 36 34 35 39
52 54 55 54 53 52 48 46 46 45 38 39 42 41 40 40 38 39 39 38 36 33 32 31 30 31 33 34 33 33 31 31 32 34 33 32 32 37 40 38 38 37 34 37 39
52 54 55 54 49 49 47 48 47 46 32 31 37 41 42 40 39 40 39 37 36 33 33 32 33 32 31 31 32 30 33 33 32 33 30 37 31 34 36 37 37 36 34 38 39
52 54 54 50 45 45 45 49 48 45 11 31 36 40 42 39 39 39 40 37 35 34 34 30 32 32 29 30 31 30 31 30 31 31 31 31 31 34 35 34 36 35 34 38 39
54 54 53 48 47 47 50 49 45 30 14 33 37 37 38 38 38 38 39 40 39 35 35 31 34 33 31 30 29 33 31 30 30 30 26 28 31 30 33 33 34 34 34 38 39
52 55 51 48 45 50 48 43 30 22 31 32 33 36 35 35 36 36 36 36 32 29 28 33 33 34 36 32 32 30 28 25 23 23 21 27 30 28 33 34 33 32 34 38 39
51 54 50 47 51 49 44 36 23 24 30 35 34 35 32 32 35 34 35 32 36 34 30 26 24 33 34 31 29 30 28 23 17 20 18 28 26 31 35 33 34 35 34 38 39
50 52 48 49 50 46 38 27 23 27 33 33 33 31 32 34 33 34 34 32 30 35 28 26 26 34 34 33 30 29 27 28 26 26 25 30 35 37 37 35 30 33 36 37 40
47 47 46 50 48 43 35 27 30 35 37 36 31 33 29 30 31 31 31 31 32 35 35 28 24 31 32 35 33 29 30 25 26 20 19 26 30 28 34 29 32 34 36 37 40
47 40 47 49 46 39 31 29 33 39 38 36 35 33 32 28 31 29 29 30 33 31 34 32 30 30 32 31 30 31 29 27 24 26 26 25 28 32 30 29 33 34 36 38 40
44 35 48 49 38 37 34 34 34 37 39 38 38 37 34 30 30 29 28 26 32 32 32 33 32 27 27 31 35 31 29 28 22 19 27 30 25 29 33 30 33 35 36 38 40
42 42 48 46 33 33 36 34 34 37 38 37 37 37 36 31 28 28 27 27 30 31 31 35 32 25 27 31 35 34 29 30 28 29 30 27 25 30 27 30 33 34 36 37 39
42 37 42 43 41 35 33 34 34 38 36 38 39 39 37 34 30 28 29 28 29 31 34 36 34 30 25 30 33 32 34 33 34 28 26 28 31 32 28 27 32 34 36 37 38
44 38 40 34 37 37 36 36 34 35 39 40 37 38 37 33 31 31 30 26 32 37 38 36 30 32 32 33 33 35 34 34 34 32 28 26 29 30 30 26 30 34 36 37 38
41 40 40 37 38 39 37 37 35 37 39 38 37 37 36 35 29 26 27 30 30 37 37 37 30 31 30 36 35 36 37 37 37 35 35 35 34 30 29 29 31 34 36 37 38
47 46 40 38 37 37 37 36 36 37 39 39 39 38 36 37 37 38 38 35 34 36 35 34 32 31 31 38 36 34 35 37 35 35 34 33 34 27 28 29 32 36 36 37 38

GFSSW_sfc_30mbdewp_003.txt.gz
Dewpoint
53 51 51 51 51 52 52 51 52 54 56 58 61 60 60 60 59 56 52 51 52 54 55 48 46 49 47 45 48 46 42 38 37 36 34 35 34 34 33 30 35 34 34 35 38
54 52 51 51 51 52 52 52 52 54 56 57 59 60 60 60 57 54 55 56 56 57 52 48 45 48 45 46 45 46 43 40 41 38 36 36 36 35 32 33 34 35 36 41 49
55 53 52 51 51 52 52 52 53 54 55 57 57 59 59 59 52 51 55 57 57 56 53 52 51 47 44 45 46 46 43 43 42 41 40 38 36 36 36 34 33 34 35 40 49
57 55 53 52 51 51 52 52 53 54 55 56 56 57 59 56 41 48 54 54 56 56 54 52 49 44 43 43 45 43 45 45 44 44 44 42 40 38 35 33 34 35 36 37 44
56 56 54 53 51 51 51 52 52 53 53 55 57 57 54 49 47 49 51 53 54 55 53 51 49 45 41 42 43 43 44 44 45 46 45 45 43 42 40 39 38 36 37 37 38
56 56 55 53 52 52 52 52 52 52 54 54 56 55 48 37 45 45 44 47 48 50 52 52 49 48 45 43 41 42 42 42 44 43 43 43 43 42 39 38 38 37 37 37 37
55 56 56 55 53 53 53 53 53 53 53 54 55 52 47 41 44 44 43 44 45 49 46 50 50 48 47 43 44 42 40 40 40 41 42 42 41 40 41 40 37 37 37 37 37
55 56 56 56 54 53 53 53 54 54 54 53 54 51 41 45 46 44 44 41 42 43 41 40 45 46 44 43 41 40 39 36 37 39 41 41 36 40 41 40 39 37 36 37 37
55 54 55 56 55 54 54 54 53 53 53 54 48 45 38 44 45 44 44 40 39 39 40 40 39 37 39 38 37 38 31 34 36 39 41 41 37 39 40 39 38 37 36 36 37
55 54 54 56 55 54 54 53 53 52 52 50 48 42 42 39 42 42 44 42 38 39 38 37 39 37 37 36 28 31 34 33 33 37 40 37 36 39 41 39 38 37 37 37 36
54 54 54 55 55 54 52 47 43 41 46 40 40 39 36 41 42 42 42 41 40 38 34 36 35 34 34 35 36 36 34 33 34 36 35 34 34 35 39 40 40 39 38 37 35
53 55 53 55 55 54 49 42 41 41 37 42 42 42 41 41 38 40 41 38 38 35 36 34 32 34 34 33 33 34 33 32 33 34 33 33 34 36 36 36 40 40 39 37 35
52 55 53 54 54 52 47 45 46 44 35 37 42 41 41 40 38 38 40 39 37 35 35 31 30 33 32 32 33 33 32 30 30 32 32 31 28 29 31 35 39 40 39 38 36
52 52 52 55 50 49 46 48 46 45 28 29 38 40 41 40 37 40 40 38 36 34 34 32 32 31 31 30 32 29 33 32 31 29 25 33 22 29 33 33 35 37 38 36 36
50 52 53 53 48 46 44 47 47 40 14 31 36 40 42 37 38 39 40 37 34 34 32 30 31 31 29 30 31 29 31 30 32 31 31 29 27 27 30 29 33 37 37 36 37
49 51 54 49 48 46 49 48 45 28 14 32 37 37 39 38 37 39 38 38 39 34 34 31 34 33 32 31 30 32 31 30 30 29 24 24 26 21 25 33 33 34 36 35 37
48 50 51 48 43 49 48 43 28 21 31 32 32 35 33 35 35 36 37 36 33 28 28 34 32 34 35 30 31 29 27 23 22 22 19 24 23 23 28 32 33 32 33 35 38
48 50 51 49 50 48 45 35 20 22 29 34 33 35 31 33 34 35 35 32 36 33 29 26 23 33 34 31 28 29 26 21 15 18 16 19 18 23 31 29 29 33 34 36 38
47 48 46 50 49 46 38 25 21 23 32 32 33 30 31 32 32 34 34 29 31 34 27 26 25 33 33 31 30 31 28 28 20 22 24 24 29 35 33 34 34 34 34 36 38
45 42 46 50 48 44 33 24 25 33 35 33 28 30 27 30 31 31 28 31 31 32 33 30 24 30 32 33 31 28 29 26 26 17 17 19 25 25 30 28 29 33 34 35 38
43 37 47 49 46 39 30 24 30 37 37 34 32 31 29 30 31 27 26 30 33 32 34 34 29 29 32 31 28 29 28 27 24 22 17 16 16 32 31 31 32 31 34 37 39
39 33 48 48 36 37 32 30 32 37 39 37 35 34 32 31 30 28 28 29 33 34 32 34 31 25 25 31 31 30 27 27 24 19 19 24 23 32 34 29 31 33 37 39 41
38 41 47 43 31 32 34 32 35 38 38 38 36 36 34 32 28 30 28 29 34 33 32 33 30 23 27 31 34 32 30 27 26 26 19 15 12 32 32 32 34 36 37 40 41
40 34 40 42 40 32 31 33 32 36 35 37 37 37 36 34 32 29 29 30 32 33 35 36 33 29 22 28 32 29 32 29 26 23 24 25 25 28 30 32 32 35 37 39 41
40 37 37 33 36 34 34 34 32 34 37 37 38 37 36 32 32 30 31 30 32 35 37 37 29 32 32 32 33 32 31 30 27 25 22 23 28 29 30 31 31 34 37 38 40
40 39 38 35 38 34 34 33 35 34 37 37 37 36 38 35 32 25 30 29 29 37 36 38 30 31 29 33 32 30 33 35 29 30 28 32 30 33 33 33 31 34 36 37 39
42 46 39 36 37 34 34 34 36 36 39 38 38 37 37 37 37 35 37 38 35 37 36 33 31 30 27 35 33 27 31 34 32 33 33 32 33 34 34 30 31 34 36 36 38

GFSSW_sfc_30mbdewp_006.txt.gz
Dewpoint
56 55 53 52 51 51 52 52 52 53 54 57 59 60 60 60 59 56 52 52 53 54 55 49 47 48 47 46 48 45 42 38 37 36 35 35 34 34 33 31 34 34 34 37 38
57 56 54 52 51 51 51 52 52 52 54 56 58 60 59 59 57 54 54 56 57 56 53 48 45 47 44 46 44 47 43 40 41 39 36 37 37 36 34 34 35 35 36 41 48
56 57 55 53 52 49 51 52 52 53 55 56 57 59 59 59 52 51 55 57 57 57 53 52 50 46 43 46 45 45 41 43 43 42 41 40 38 38 36 36 36 34 35 38 48
55 56 56 54 53 50 51 52 53 53 54 55 56 57 58 56 41 48 53 55 57 58 53 52 48 43 42 41 45 43 45 45 44 44 44 43 42 40 37 37 35 36 36 37 42
56 55 57 55 53 50 51 52 52 53 53 55 56 56 55 50 48 50 52 51 55 56 52 49 48 44 39 42 42 43 44 44 44 44 45 45 44 45 44 43 42 41 38 36 37
55 55 56 56 54 53 52 52 52 52 54 54 55 54 48 41 44 44 44 46 52 55 53 52 49 48 44 43 41 42 42 42 42 43 44 43 43 43 42 42 40 39 38 38 37
56 55 56 56 55 53 53 52 52 52 53 53 54 51 47 41 44 45 43 43 45 48 50 52 51 47 47 43 44 42 39 40 40 41 41 42 40 40 42 42 41 40 39 38 38
53 55 54 55 55 54 53 53 53 54 54 53 54 50 41 45 47 45 43 40 42 46 42 48 49 46 45 44 40 39 38 35 37 38 40 41 35 36 38 38 40 41 40 39 38
50 53 55 54 55 55 54 53 53 52 53 53 47 44 38 44 44 44 43 39 40 40 41 40 39 38 40 38 35 36 31 33 33 37 38 39 34 39 39 38 38 39 38 38 38
47 49 53 55 54 55 54 53 53 52 51 48 46 42 41 38 42 43 44 41 38 39 38 38 38 37 36 34 24 29 32 33 32 35 36 37 38 39 38 39 39 40 39 38 38
46 49 51 54 54 55 52 49 44 43 46 40 40 38 38 41 42 42 43 40 39 37 35 36 35 32 33 34 33 35 33 33 34 35 35 34 33 34 35 36 38 38 40 40 40
45 47 51 51 55 54 49 42 41 39 37 43 43 42 42 41 38 40 42 38 37 34 35 34 31 33 34 35 35 35 33 32 33 33 33 32 30 31 32 35 38 39 39 40 40
44 46 49 51 55 52 46 43 45 43 35 35 41 41 40 40 37 38 40 39 37 35 34 31 30 33 33 33 32 32 31 30 29 30 29 28 24 25 26 29 31 34 35 38 40
44 45 47 51 52 49 45 46 46 39 25 26 37 39 41 40 36 40 40 38 36 34 34 34 34 32 32 31 32 29 32 32 31 29 24 27 17 22 23 27 28 30 32 39 39
43 44 47 50 49 46 46 46 45 33 14 30 37 41 41 35 37 39 40 37 34 33 33 29 31 31 30 30 31 28 31 31 31 30 30 28 25 23 24 24 28 34 36 37 39
44 45 47 47 50 48 48 47 42 22 14 31 37 38 38 36 38 39 38 38 37 34 34 30 34 32 31 31 31 32 30 30 30 28 22 24 25 19 19 20 24 27 32 35 38
45 46 48 46 46 49 48 41 26 19 30 31 32 36 35 34 35 36 35 35 32 29 28 34 33 34 34 30 31 30 30 22 22 21 18 22 23 20 23 25 27 30 31 32 36
46 47 48 46 50 49 45 30 20 22 26 33 31 33 31 33 32 35 35 33 35 34 30 26 23 33 34 31 28 29 27 21 13 18 18 21 18 22 27 27 25 25 33 35 35
48 46 46 45 50 47 36 24 22 23 32 32 31 29 30 32 32 33 34 31 31 36 28 26 25 32 33 32 31 31 27 27 22 20 21 21 23 27 29 26 24 27 29 31 35
45 43 43 46 50 44 31 26 23 31 34 33 28 30 28 30 30 32 30 30 32 34 33 30 25 29 32 33 32 32 32 26 26 16 14 16 18 19 21 29 31 30 27 34 36
42 38 44 46 48 39 30 27 27 37 35 32 30 30 28 28 30 30 25 27 32 31 34 32 30 27 33 30 27 30 28 30 26 25 14 12 12 21 22 32 31 32 31 34 36
39 33 48 48 35 36 30 27 31 38 39 37 34 32 30 30 31 28 26 28 32 33 31 33 31 25 25 30 31 28 27 27 22 18 21 18 15 28 35 34 32 34 34 36 38
36 40 48 44 31 32 32 31 35 38 38 36 35 34 35 32 28 30 29 30 33 34 32 33 30 24 25 29 33 31 29 27 26 26 20 16 13 17 24 29 33 34 38 41 42
37 34 40 41 39 32 31 30 30 37 37 38 36 36 35 34 32 29 30 30 33 34 35 34 32 28 21 26 31 29 30 30 27 24 21 21 19 20 27 30 33 36 40 42 41
40 35 36 31 35 32 32 31 31 32 37 38 37 36 36 33 33 32 31 31 33 34 36 36 28 31 31 30 32 32 31 31 29 27 22 20 20 25 28 32 34 35 39 41 41
39 36 37 35 35 32 31 34 32 33 36 35 34 36 37 35 33 28 32 32 32 34 35 37 29 32 29 33 32 30 32 33 33 29 27 25 23 28 34 33 34 33 38 40 41
39 42 37 36 35 31 31 33 32 35 35 37 38 38 37 37 39 38 37 36 36 36 35 33 31 29 26 33 33 26 31 31 31 33 28 26 27 28 33 35 32 33 37 39 40

GFSSW_sfc_30mbdewp_009.txt.gz
Dewpoint
57 57 57 55 53 51 51 50 51 52 53 54 56 59 60 60 59 56 51 51 53 55 55 49 47 47 47 46 48 46 42 38 36 35 34 36 35 36 35 32 34 35 34 37 45
56 56 56 56 54 52 51 50 51 52 53 54 56 58 59 59 56 54 54 56 57 56 52 48 45 46 43 45 45 46 43 40 41 38 36 37 37 37 37 36 36 36 37 38 48
55 55 56 57 55 53 51 51 52 53 54 55 56 57 59 59 53 51 56 58 58 58 53 51 49 45 42 46 44 45 40 42 42 41 41 41 41 40 37 37 37 37 36 37 43
56 55 56 56 56 54 51 49 52 53 54 55 55 56 58 56 41 49 55 55 58 57 53 51 47 41 41 40 45 42 44 45 43 44 44 43 44 43 40 40 40 36 39 38 39
52 56 55 56 56 54 51 50 52 52 53 53 55 56 55 50 49 50 50 50 56 56 52 50 46 42 38 41 42 43 43 44 44 44 44 45 44 44 45 44 43 45 44 42 40
49 53 55 55 55 55 52 52 52 52 53 54 55 53 48 43 44 44 44 47 55 55 53 50 48 47 43 42 41 41 42 42 42 42 43 42 42 43 41 44 45 43 42 40 39
46 51 53 55 55 55 53 53 52 52 53 53 54 50 46 42 45 44 44 43 46 52 51 52 50 47 46 43 44 42 39 39 39 40 40 42 41 41 42 43 41 42 42 42 41
44 47 52 52 55 55 54 53 52 53 53 52 54 48 41 45 47 45 43 40 42 47 48 52 51 48 46 44 40 39 38 34 36 39 40 39 31 37 39 40 41 41 41 41 41
43 44 49 52 53 55 55 54 53 53 53 53 46 42 37 44 45 45 42 39 41 41 41 42 41 38 42 38 34 36 29 33 34 37 37 39 36 37 39 40 39 39 40 40 40
41 43 47 49 52 55 56 53 53 51 49 47 47 41 42 38 42 43 44 40 39 39 39 38 38 36 36 34 23 27 32 32 31 34 36 35 35 37 39 39 38 38 39 40 40
42 44 46 47 52 54 55 50 45 43 45 39 39 39 39 42 43 42 43 39 39 38 36 37 35 31 33 34 33 34 33 32 34 34 33 32 32 32 34 35 34 35 36 37 39
42 45 45 46 49 53 52 45 41 39 37 43 43 42 42 41 38 41 42 37 37 34 35 34 31 33 34 34 34 34 32 31 31 33 32 31 29 30 31 31 32 33 35 37 40
43 45 44 45 47 51 48 44 43 40 30 34 41 41 40 41 37 39 40 39 36 34 34 31 31 33 33 33 32 30 30 29 28 30 31 28 23 20 19 21 28 31 32 34 34
43 42 43 45 45 48 46 46 44 35 20 25 35 39 41 39 36 40 41 38 36 33 33 32 33 33 32 32 32 28 31 32 31 29 24 27 18 18 21 22 23 26 28 31 34
42 42 44 45 45 47 47 46 41 32 9 30 37 41 41 36 35 38 41 37 34 33 33 29 32 32 32 30 32 29 30 29 31 30 29 26 24 22 24 23 23 25 28 31 33
40 44 45 44 46 47 50 47 35 19 11 31 37 38 36 36 38 39 39 38 37 33 34 31 33 31 30 31 32 32 31 30 30 30 22 22 24 19 19 20 21 24 26 31 35
44 44 43 45 40 47 50 42 26 16 28 31 32 37 34 33 35 36 35 35 32 29 27 30 32 33 33 29 31 31 30 22 21 21 18 21 24 20 21 22 23 22 26 30 33
44 46 45 46 47 48 45 34 22 21 26 32 30 35 32 32 33 35 33 32 34 33 29 25 20 31 34 31 27 29 28 22 15 15 16 23 21 22 25 25 25 26 26 26 32
47 46 46 48 47 45 39 27 21 23 32 30 31 30 30 31 31 31 33 32 33 34 28 25 24 31 33 33 30 31 27 28 25 25 21 21 21 23 24 24 30 32 32 32 30
44 43 43 48 48 43 33 28 24 33 33 32 28 29 27 29 31 31 31 31 32 34 34 30 25 28 32 33 32 32 33 25 26 17 15 16 18 18 18 20 31 32 33 34 33
40 37 43 48 46 38 30 27 30 35 34 31 30 29 29 29 30 31 27 27 33 33 35 33 30 26 32 30 27 30 28 29 29 26 18 13 11 18 17 27 31 32 33 36 37
38 33 45 47 34 32 31 27 35 35 38 36 33 31 29 30 30 28 27 26 32 33 33 32 31 25 25 29 31 29 27 27 23 20 23 19 17 19 25 35 31 32 35 38 40
36 39 46 42 30 31 33 33 37 37 37 35 34 34 33 30 28 29 29 30 33 32 31 33 30 23 23 29 30 30 30 29 28 26 22 18 16 18 19 29 33 34 35 40 41
37 33 39 40 39 33 30 31 32 38 38 37 36 35 34 32 31 29 30 31 32 33 35 34 31 25 20 23 31 28 30 31 30 24 21 21 21 21 21 26 31 31 37 40 41
40 34 35 31 34 32 31 31 32 32 36 37 36 35 33 33 33 32 32 31 33 34 35 34 28 31 31 30 31 31 31 31 29 27 23 20 21 22 22 25 32 34 35 38 41
35 37 37 35 35 32 33 30 30 34 36 35 33 35 36 35 32 30 31 31 31 33 35 37 30 32 29 32 32 29 31 32 31 30 27 25 25 26 26 28 34 37 37 38 41
39 41 40 35 33 30 30 32 32 34 35 37 36 35 37 36 37 37 38 37 36 34 34 34 31 29 26 30 31 28 31 32 32 33 31 27 28 30 30 36 38 37 36 37 42

GFSSW_sfc_30mbdewp_012.txt.gz
Dewpoint
56 56 56 57 56 54 52 51 49 51 52 53 54 57 60 60 59 58 51 50 51 55 55 49 46 45 45 43 46 47 34 28 29 30 28 34 32 34 34 32 34 34 34 37 44
54 56 56 56 56 55 53 52 50 51 53 53 55 57 59 59 54 52 52 55 56 56 51 46 43 43 40 41 42 40 34 29 31 33 32 33 34 34 35 33 34 35 37 38 44
51 53 56 56 56 56 54 52 51 52 53 54 55 56 58 58 52 51 55 57 58 57 51 48 45 42 39 42 41 40 35 33 39 39 38 36 37 38 35 33 34 35 36 38 40
46 50 53 55 55 56 54 52 50 52 53 54 55 56 57 56 42 50 56 56 58 57 52 49 45 40 38 38 40 37 38 38 38 41 43 41 41 40 37 34 35 38 38 41 42
44 46 50 54 54 55 56 52 50 52 53 53 54 55 54 49 48 49 50 51 56 56 52 49 44 41 38 38 40 40 37 40 40 43 42 41 39 40 38 39 41 42 43 43 43
41 45 47 52 53 56 55 53 52 52 52 54 55 52 46 44 44 45 45 51 54 55 51 50 47 45 40 39 38 38 40 40 40 39 39 39 37 37 38 39 38 39 40 41 41
39 43 44 47 51 53 55 53 53 52 53 54 54 50 46 39 43 43 43 44 50 54 52 51 49 44 43 40 43 40 38 36 35 35 36 39 36 35 36 36 35 36 36 37 38
35 43 42 44 50 53 55 55 53 52 53 53 53 47 40 45 47 45 43 43 46 48 51 52 51 45 41 42 38 36 36 31 33 37 35 35 28 30 38 37 37 36 35 34 36
39 39 42 43 47 51 54 56 53 53 53 53 46 41 38 44 43 43 42 42 44 42 48 49 43 38 40 33 31 32 25 30 30 34 35 35 31 34 35 38 36 35 36 37 37
39 40 42 44 46 50 51 57 53 52 51 48 46 41 42 39 42 43 42 41 41 41 40 40 39 35 34 33 24 25 29 28 27 30 34 32 31 33 35 34 34 34 36 37 38
40 41 43 46 45 48 50 53 46 44 45 38 39 37 39 42 43 42 40 39 39 40 37 38 36 32 31 32 30 31 29 28 30 33 32 30 29 29 31 31 31 32 33 33 35
42 42 44 43 45 46 48 45 41 41 38 42 41 41 42 41 38 41 41 36 35 32 35 35 33 32 32 32 32 31 29 28 28 29 30 28 27 28 28 27 28 29 29 31 32
42 42 43 43 43 44 44 46 46 42 33 40 41 39 39 40 37 39 39 37 35 34 34 31 31 33 33 32 31 30 29 28 27 28 29 28 25 20 20 21 22 24 25 25 26
41 42 42 42 41 42 43 49 47 42 33 31 38 39 39 39 36 40 39 37 36 32 33 32 32 32 31 30 30 27 28 28 28 27 23 25 18 18 19 20 21 22 24 26 27
41 43 42 43 42 39 46 49 45 41 21 31 36 41 40 33 35 39 40 37 33 33 32 29 32 32 31 30 31 28 30 28 28 27 26 24 26 18 21 20 21 22 22 23 25
40 43 44 43 42 41 49 48 42 27 20 31 37 38 37 35 36 39 38 37 35 33 33 30 33 31 29 31 31 31 29 29 27 26 23 21 20 18 16 17 19 21 22 22 26
44 45 45 44 38 47 49 41 27 25 28 30 32 35 32 31 35 35 35 35 31 28 29 29 30 31 31 29 31 30 28 20 19 21 16 14 16 18 18 20 20 19 20 24 26
45 46 46 44 44 46 44 33 25 24 26 31 33 31 29 31 34 33 33 32 33 31 28 26 23 30 32 29 26 28 26 19 11 7 11 15 17 14 17 21 22 23 26 31 33
47 44 43 43 45 44 36 28 28 24 30 29 33 29 31 29 30 32 31 29 30 32 27 27 24 30 32 31 30 28 27 27 23 21 21 17 18 19 19 22 21 23 31 32 33
43 41 42 47 45 41 32 31 26 32 31 30 27 27 25 29 28 28 29 30 30 32 30 28 25 27 29 33 32 30 29 25 27 16 12 11 15 14 12 16 20 28 29 29 31
41 37 45 46 41 35 30 30 34 33 32 30 29 28 27 28 28 28 28 29 31 33 32 30 26 26 31 30 25 29 29 30 27 24 16 14 10 12 14 17 15 26 28 29 34
39 31 45 45 32 34 32 30 35 34 38 34 31 29 28 29 29 28 28 27 30 34 32 31 29 25 25 26 28 25 25 26 24 21 26 22 18 17 17 22 32 28 26 33 38
35 37 45 44 30 32 34 34 37 36 36 34 33 32 30 30 28 28 29 30 32 32 30 32 30 24 24 28 29 28 26 26 30 29 24 21 15 17 17 21 24 28 28 30 37
36 32 37 39 38 33 31 32 34 38 37 36 35 34 31 29 30 29 30 31 31 31 33 32 29 26 20 22 27 29 30 31 31 25 22 23 22 21 20 20 20 21 23 29 34
40 35 37 32 34 31 31 33 33 33 37 37 34 32 31 30 30 30 31 31 32 33 33 32 29 30 29 29 30 31 30 32 29 28 24 22 21 21 22 23 23 26 30 36 36
36 36 37 36 34 30 33 31 31 35 34 34 33 33 34 31 32 30 32 32 31 33 32 35 29 32 29 31 31 31 33 33 32 32 29 27 26 28 29 32 33 35 38 37 38
40 41 40 37 34 30 31 31 31 34 36 37 35 35 35 35 36 37 36 36 35 33 32 34 32 30 25 29 30 29 33 34 34 35 31 28 29 30 34 36 37 39 38 38 37

GFSSW_sfc_30mbdewp_015.txt.gz
Dewpoint
50 52 55 56 56 57 56 54 52 50 50 53 53 54 56 59 59 56 49 50 50 56 56 48 45 43 43 41 40 43 36 29 28 24 24 26 27 31 30 28 29 30 31 38 44
45 49 51 54 55 56 56 54 53 51 51 53 54 55 57 58 51 48 50 53 54 54 50 45 41 41 39 38 40 39 32 28 26 26 26 28 31 30 32 30 27 32 33 37 42
41 44 48 51 54 55 56 55 54 52 52 53 54 55 57 57 50 47 52 55 56 56 51 45 42 39 35 37 38 37 33 29 29 35 36 33 31 32 32 32 30 29 32 35 38
39 41 44 47 50 53 55 56 54 52 53 53 54 55 56 56 43 51 56 56 58 56 49 46 42 39 36 35 36 34 33 33 33 35 38 36 34 32 33 33 32 32 34 37 38
39 38 41 45 47 51 53 56 55 51 53 53 53 55 54 51 49 50 51 53 56 55 49 45 42 39 37 36 36 36 35 31 34 37 37 38 37 36 36 38 36 36 37 39 39
39 38 39 44 44 48 52 55 56 52 53 53 53 55 48 44 48 47 46 49 50 53 51 48 44 42 40 37 37 36 36 36 37 37 37 37 35 34 34 35 36 36 37 38 39
39 39 38 41 42 45 49 53 55 53 52 54 53 50 44 42 42 44 46 47 51 52 50 50 48 45 44 40 40 39 37 36 35 35 35 36 34 34 35 34 33 33 34 34 35
39 39 40 40 43 44 48 51 53 54 53 54 53 46 40 44 44 41 43 48 50 51 52 51 49 45 40 41 38 35 34 31 31 33 32 33 28 28 32 33 34 33 32 32 32
38 40 41 40 42 44 47 50 51 56 53 53 47 43 37 45 42 42 41 44 46 47 49 50 49 42 39 35 30 31 27 28 29 31 32 33 31 30 34 32 32 33 33 34 34
41 41 42 43 44 46 47 48 50 54 51 49 45 41 40 38 42 42 41 43 42 42 43 41 38 35 35 31 25 25 28 27 25 26 31 30 29 29 30 31 33 33 32 33 33
41 41 43 42 44 45 47 45 48 46 49 41 40 36 39 41 42 41 40 42 41 39 35 37 35 32 31 31 30 29 27 25 25 27 29 27 27 26 26 27 28 29 30 31 31
42 43 43 43 43 44 44 39 42 45 40 42 38 39 40 40 39 39 39 38 38 37 36 36 33 33 32 31 30 29 27 26 26 26 27 26 25 26 25 25 25 26 27 28 28
41 41 43 43 43 42 40 39 45 47 39 40 38 38 40 40 36 39 38 35 36 35 33 33 31 32 32 31 30 28 28 27 26 26 27 26 24 22 22 24 23 24 25 26 26
39 40 44 43 40 40 39 44 47 48 33 36 38 38 40 39 36 39 38 36 35 32 32 33 31 30 29 30 29 27 27 26 26 26 23 25 18 16 14 15 19 21 22 22 22
38 41 43 43 42 38 41 50 49 43 23 34 36 39 38 33 36 38 38 37 32 31 32 30 30 30 29 28 29 27 29 28 27 26 24 21 22 18 13 11 13 16 21 23 24
39 44 44 43 40 40 42 49 44 30 23 32 36 36 34 32 35 37 37 37 34 30 31 28 31 30 29 30 30 30 28 27 26 26 22 20 18 16 12 8 12 13 18 21 22
41 46 45 46 38 40 47 43 29 26 30 31 30 35 32 30 33 34 34 33 30 28 28 29 28 30 29 29 30 29 27 21 22 22 17 13 13 15 13 14 14 16 18 19 21
45 46 45 44 41 45 42 33 24 27 27 30 33 32 29 29 30 31 31 30 30 28 27 26 26 29 31 29 26 27 26 19 11 7 10 14 11 12 16 14 17 17 19 21 24
46 43 43 42 43 42 37 23 30 26 29 31 31 29 30 30 31 30 29 29 29 30 28 27 26 29 30 30 28 27 26 27 23 20 18 15 14 15 15 15 16 18 19 19 26
44 40 39 44 44 40 33 31 31 30 30 29 26 28 26 27 30 28 28 29 28 29 29 28 26 26 28 31 30 28 28 25 26 17 11 10 10 11 12 13 14 16 18 20 28
42 36 43 44 43 37 29 32 32 32 32 30 27 26 26 26 27 27 27 29 29 30 30 28 26 27 30 28 24 28 27 30 25 25 19 16 13 14 14 16 18 16 18 26 27
38 32 44 42 34 34 33 35 33 33 37 32 29 27 26 26 26 26 26 26 29 31 29 29 28 25 25 25 26 25 26 25 25 20 25 23 21 20 18 18 19 20 27 24 24
37 36 44 44 31 30 35 36 33 35 35 33 30 29 29 27 26 27 27 29 29 31 29 30 29 24 27 27 26 25 25 25 28 30 26 23 20 16 17 18 17 20 22 24 25
38 32 37 38 39 32 35 32 33 38 35 34 32 30 29 28 29 27 29 31 30 30 33 31 28 27 20 21 26 30 30 29 31 27 24 23 23 23 23 23 27 24 23 22 24
40 35 36 33 32 35 35 33 33 31 35 33 31 29 27 26 27 28 29 31 32 32 31 30 30 28 28 28 29 30 29 30 31 31 28 26 25 24 26 27 32 31 29 27 30
36 36 37 34 31 29 31 30 31 33 32 31 30 31 31 28 29 28 30 30 29 32 31 33 30 32 28 30 30 30 30 33 35 34 33 33 31 34 31 34 33 35 36 38 37
42 41 40 34 31 28 29 30 31 33 36 35 34 33 32 33 35 35 35 33 33 32 32 33 32 30 25 27 28 29 35 36 36 36 35 31 34 33 33 36 37 37 38 39 39

GFSSW_sfc_30mbdewp_018.txt.gz
Dewpoint
44 44 47 50 53 55 56 57 56 54 52 50 53 53 54 57 59 58 53 50 53 55 56 53 47 44 42 41 40 40 38 33 32 28 28 26 25 29 30 29 28 30 30 41 51
42 42 43 46 49 52 54 56 57 55 53 51 53 54 55 58 54 51 53 50 52 56 49 47 43 42 41 40 39 39 39 37 34 30 28 32 27 29 29 29 29 29 32 40 43
41 41 41 42 45 50 52 54 56 56 54 52 53 54 55 57 51 44 48 52 54 54 51 47 42 39 39 38 38 38 36 33 31 28 32 36 35 32 30 31 32 28 31 36 38
41 41 40 40 43 45 49 53 55 56 55 53 53 54 55 54 41 52 54 55 55 55 52 46 42 39 37 34 35 35 35 35 34 33 35 36 37 34 33 31 33 34 34 35 38
42 41 40 41 40 43 46 49 53 56 56 53 53 54 53 50 49 53 55 56 56 56 51 45 41 39 37 35 33 33 34 33 33 33 34 37 37 37 37 37 36 36 36 36 38
43 42 41 41 40 41 43 47 51 55 56 53 53 54 49 44 49 47 47 49 52 54 52 47 41 41 40 35 35 35 36 36 36 34 36 35 35 36 35 35 36 37 37 37 38
43 42 40 40 42 41 42 45 50 54 56 53 54 51 44 43 44 48 47 46 49 52 50 50 48 44 43 40 40 38 37 37 36 36 35 36 34 35 36 36 34 33 34 36 36
42 43 42 41 41 41 43 45 49 50 55 54 53 48 40 43 43 41 44 46 48 51 52 52 49 46 43 41 38 37 37 34 31 34 34 34 30 31 33 35 34 34 33 33 34
43 42 42 41 42 43 44 46 48 49 54 54 49 46 38 45 43 43 40 44 48 48 53 52 49 44 40 36 33 33 29 30 30 33 32 31 30 32 33 32 32 34 33 33 32
42 42 42 42 43 43 45 46 46 47 55 53 46 42 40 39 40 41 40 43 46 47 47 47 43 37 37 34 28 28 29 28 27 29 31 30 31 31 31 30 31 33 34 34 33
42 42 43 43 43 44 44 43 44 45 48 42 40 37 36 41 42 40 40 42 41 45 38 40 36 34 34 34 33 30 29 28 27 27 26 25 26 27 28 27 27 29 30 31 32
42 42 42 43 43 43 44 39 39 43 40 46 40 39 40 41 39 39 40 40 39 37 36 36 34 34 33 31 30 30 29 28 27 27 26 26 26 27 27 27 27 26 26 27 29
41 41 39 44 44 43 40 40 45 45 40 41 40 39 39 39 38 38 39 38 37 35 36 32 31 33 33 32 30 30 29 28 26 27 27 26 24 24 24 26 26 27 26 26 26
40 39 42 43 41 41 37 45 47 45 33 36 39 38 40 39 36 39 38 36 37 35 36 34 32 29 30 31 30 28 28 27 26 26 23 26 21 21 19 17 22 22 24 24 24
39 39 42 44 41 37 40 47 46 40 22 37 38 40 39 36 37 38 39 36 33 33 33 32 31 31 29 28 29 27 30 28 27 26 25 24 23 21 18 16 13 15 20 22 24
42 43 44 46 44 40 41 45 40 27 22 33 37 36 36 34 36 37 37 37 34 30 32 31 31 30 30 30 30 30 28 28 27 26 21 22 20 10 15 16 14 14 16 18 20
44 46 45 45 40 42 44 41 27 23 33 30 33 34 32 31 34 35 35 35 31 28 28 29 29 30 30 28 30 29 26 23 23 22 14 18 17 14 15 16 16 16 16 18 18
45 46 44 44 43 44 42 32 21 31 29 30 33 32 28 30 33 34 33 31 32 29 28 26 26 29 30 29 28 28 27 22 16 17 18 19 16 16 16 16 16 17 17 18 20
47 43 42 44 45 42 37 21 27 32 30 31 32 29 28 29 31 31 32 30 29 29 28 27 26 29 30 30 29 28 26 27 24 21 19 17 15 16 17 16 17 16 16 18 20
44 41 41 44 44 41 35 28 31 31 31 29 26 27 26 27 28 29 27 29 27 29 30 28 26 27 29 30 29 28 28 25 25 17 15 14 14 14 16 15 16 19 17 19 21
41 36 42 45 43 37 30 31 36 32 31 30 27 26 25 27 28 27 26 28 29 28 29 27 27 27 29 28 27 28 27 27 26 26 21 17 15 18 19 20 19 20 21 26 29
39 32 42 44 33 34 33 34 36 34 36 30 28 26 26 26 26 25 26 27 29 30 28 28 27 26 27 28 29 28 27 26 23 20 23 22 21 23 23 21 22 19 19 21 27
37 37 42 44 31 32 36 37 33 36 35 32 29 28 27 26 26 27 27 28 29 30 29 29 28 24 27 27 26 25 26 26 27 27 25 22 20 20 24 24 24 25 30 31 25
38 32 37 41 39 33 35 33 36 38 34 32 30 29 27 26 28 27 29 30 29 31 32 30 28 26 23 26 28 29 29 28 27 27 25 25 25 26 27 27 31 33 32 31 33
41 35 35 33 32 34 36 36 32 29 34 33 30 29 27 26 27 27 29 31 30 33 31 30 29 29 29 28 28 28 29 29 31 32 28 28 29 31 33 36 36 36 36 35 37
37 37 38 33 32 34 33 33 32 32 33 30 29 28 29 27 31 27 29 29 30 31 30 32 30 32 28 30 30 29 29 30 32 35 35 35 34 37 37 36 35 35 36 37 38
41 42 39 31 30 29 27 30 32 34 35 34 32 32 31 35 36 35 35 33 33 32 31 34 33 29 25 28 29 28 31 35 36 35 36 32 36 38 35 35 36 38 38 38 39

GFSSW_sfc_30mbdewp_021.txt.gz
Dewpoint
42 43 43 43 44 49 52 54 55 57 56 54 52 52 53 54 57 57 52 53 53 56 55 54 49 47 45 42 42 41 37 35 35 34 32 31 31 29 30 29 29 30 33 50 55
42 42 42 42 42 43 48 52 54 55 57 55 52 53 54 56 55 53 55 55 55 52 54 48 47 45 42 41 41 38 37 37 37 35 32 32 35 35 29 29 29 29 42 48 52
43 42 42 42 42 41 42 48 52 54 56 55 53 54 55 56 51 49 54 55 56 55 52 48 47 43 41 41 39 38 37 38 39 35 34 36 35 37 34 29 30 29 32 42 47
44 44 42 44 40 41 40 41 48 51 55 56 53 54 55 54 40 53 56 55 53 55 52 50 47 42 39 38 38 36 37 37 36 36 35 34 38 37 37 34 37 35 35 35 37
45 43 43 43 41 42 40 41 42 49 53 56 54 54 53 49 47 54 56 53 55 54 51 50 46 41 37 36 35 34 35 36 36 35 35 35 35 36 37 37 38 38 38 37 36
42 42 42 43 43 41 42 39 41 47 52 56 55 54 50 43 49 51 53 56 55 54 53 51 45 42 39 38 35 35 35 36 37 37 37 35 35 35 36 36 36 35 35 36 37
43 43 43 43 43 41 41 42 42 46 50 55 55 51 46 44 47 47 47 50 52 53 50 52 49 45 43 39 40 39 36 37 37 38 37 36 35 35 36 37 37 37 35 34 35
43 43 43 42 42 41 43 43 44 46 50 53 54 50 43 45 44 46 46 46 48 51 52 52 49 46 43 41 38 36 37 34 35 35 37 36 31 34 36 36 36 36 36 35 35
42 42 43 43 43 43 43 44 44 46 49 51 51 48 39 45 42 41 41 45 48 53 53 53 51 44 41 37 35 35 31 32 33 33 34 35 32 33 34 33 32 34 35 35 35
42 43 43 43 43 44 44 44 44 45 48 53 50 43 43 41 43 42 40 41 48 50 50 49 47 41 39 35 29 29 30 29 28 30 31 31 32 32 33 31 30 31 33 34 34
42 43 42 42 43 43 44 43 38 42 47 43 41 40 39 41 42 42 41 44 46 46 42 46 38 36 37 35 33 33 30 29 30 29 27 26 27 27 27 28 28 28 29 30 31
42 42 41 40 44 44 44 39 40 40 33 45 42 41 41 41 39 41 40 41 41 40 38 37 35 37 36 35 34 32 30 29 29 28 27 27 26 27 28 28 28 28 28 28 30
39 40 41 43 42 43 40 40 46 41 33 42 45 41 40 41 39 39 40 40 38 38 36 34 32 34 34 32 31 30 29 29 28 28 27 25 22 23 25 26 27 27 27 28 27
38 40 40 42 38 40 38 46 46 41 28 36 40 40 40 40 38 40 40 38 37 36 37 35 32 31 33 32 31 28 29 28 27 26 23 26 19 23 20 20 21 26 27 27 27
43 44 44 45 40 38 41 46 45 39 21 36 39 41 40 38 38 38 39 36 35 36 37 35 33 31 28 30 30 28 29 28 27 26 25 24 21 21 22 19 18 18 23 25 27
44 45 47 46 44 41 40 45 41 26 21 33 38 37 37 37 37 38 38 38 35 34 35 31 31 31 31 30 30 29 28 27 27 25 19 21 19 14 15 16 16 15 15 18 21
45 47 45 45 40 44 45 41 24 20 34 31 34 35 35 35 35 36 35 33 31 29 32 33 30 30 30 29 30 28 25 20 19 20 14 21 21 17 16 16 16 16 16 16 20
48 46 44 45 44 44 42 30 20 31 30 35 34 33 32 32 34 34 34 31 33 30 28 26 22 29 30 29 28 29 25 19 13 18 19 21 18 18 19 19 18 17 17 17 17
47 43 43 45 45 43 37 24 24 32 32 33 31 27 30 31 33 32 31 28 30 31 26 26 25 30 30 30 30 28 26 27 24 22 19 18 17 17 17 17 17 18 19 21 19
41 39 41 44 44 41 34 28 30 34 34 30 28 29 27 29 30 30 31 30 28 29 30 29 24 29 30 30 30 27 28 23 24 14 14 17 16 14 15 17 21 20 20 27 27
39 36 40 46 44 37 29 30 35 32 36 31 27 28 26 28 29 28 28 28 29 30 30 28 26 27 30 28 26 28 27 27 25 25 19 18 17 18 19 21 21 21 22 24 27
38 30 41 45 32 35 31 32 39 36 37 32 28 27 26 29 28 26 26 27 30 30 28 28 27 26 26 29 30 29 27 26 21 18 23 22 20 22 22 23 24 26 27 28 29
35 36 42 41 30 32 36 35 36 37 35 32 30 28 28 27 25 26 27 28 30 29 28 29 26 22 25 28 28 27 28 27 27 26 23 21 19 21 23 25 28 32 37 38 33
37 29 34 40 39 36 35 35 34 37 34 33 30 27 27 26 28 27 29 29 31 32 32 29 29 24 22 25 28 26 28 28 27 26 24 24 24 25 27 30 35 37 38 39 39
40 34 36 31 34 34 37 36 31 32 33 33 30 28 28 27 27 28 30 29 30 33 31 30 27 29 28 29 30 28 28 28 28 29 27 26 28 30 34 37 38 37 36 37 39
36 35 37 36 34 35 34 33 33 33 34 31 29 30 32 31 31 28 30 30 29 32 30 31 27 31 27 28 29 29 29 29 29 29 31 32 32 36 38 40 37 37 36 37 37
40 41 40 36 31 30 30 33 33 35 35 36 32 32 35 36 37 36 35 34 32 31 30 32 30 29 23 28 29 27 29 29 34 36 36 33 35 38 38 39 38 38 39 40 39

GFSSW_sfc_30mbdewp_024.txt.gz
Dewpoint
45 43 43 42 43 43 42 44 50 53 55 57 55 53 52 54 54 55 49 51 53 56 55 54 50 48 46 42 42 41 37 35 32 31 30 32 33 34 30 29 29 30 42 51 55
44 44 43 43 45 41 43 40 46 50 52 55 57 54 53 54 53 50 53 54 55 53 56 52 49 46 43 41 41 39 37 37 37 36 34 33 34 35 32 29 28 32 46 54 55
46 46 45 45 44 44 43 40 41 43 48 52 57 54 54 55 50 48 53 56 57 55 52 53 48 44 42 41 40 39 37 38 39 39 36 35 34 38 34 30 30 31 49 51 52
47 47 45 43 44 44 42 42 42 42 44 50 54 55 55 53 38 51 54 56 56 55 52 50 48 44 40 39 40 37 38 37 37 37 36 34 36 36 37 34 36 38 36 38 46
46 44 43 44 44 44 44 42 41 39 42 48 52 56 53 47 47 50 56 57 55 54 52 49 46 43 39 39 39 36 36 37 37 37 36 35 35 34 37 38 38 38 38 37 37
45 44 44 44 43 44 43 41 41 42 41 46 51 56 49 41 47 51 55 55 54 53 51 50 47 44 40 38 36 36 35 35 37 37 38 36 36 35 35 37 36 36 35 36 36
44 44 43 43 43 42 42 42 42 42 43 47 50 54 46 41 47 51 55 54 55 54 51 52 51 44 41 40 40 39 36 37 36 37 36 37 34 35 36 36 36 36 36 37 36
43 42 43 44 43 43 44 43 43 43 44 47 51 52 41 45 44 47 47 49 53 54 52 52 51 45 43 41 38 37 36 33 35 35 35 36 30 33 36 37 36 36 36 37 36
42 42 43 43 43 43 44 44 44 45 45 46 50 48 36 46 44 43 45 46 48 53 53 52 49 44 41 37 34 34 31 32 33 35 34 35 33 34 35 35 33 34 34 34 35
42 42 43 43 43 43 43 44 44 44 45 47 51 43 41 41 43 42 43 44 48 51 50 49 47 42 39 35 29 29 32 31 29 29 31 29 33 34 34 33 33 32 31 32 33
40 41 43 43 42 44 44 42 35 39 43 40 43 40 38 42 44 42 41 46 49 46 43 45 39 37 38 37 33 32 31 30 30 31 28 27 26 27 28 28 27 28 28 29 30
38 39 39 41 43 42 43 38 39 38 34 39 43 43 41 42 41 42 41 44 44 40 40 39 37 39 40 39 36 34 32 30 30 30 28 27 26 27 27 28 28 28 28 28 28
40 42 42 42 43 42 39 38 44 42 33 39 45 41 40 41 39 41 40 40 42 38 37 36 35 38 37 34 31 30 29 29 29 29 27 25 20 20 23 25 26 27 28 28 28
43 44 45 45 42 41 38 46 44 40 29 35 40 42 40 41 38 40 42 39 38 37 35 34 32 34 35 33 32 29 29 28 28 26 23 26 18 22 21 20 21 22 26 27 28
45 45 45 46 41 38 42 45 43 38 19 35 40 43 41 38 38 39 39 38 36 37 36 34 33 30 32 32 32 29 29 27 27 25 24 24 23 19 22 17 17 18 19 24 27
48 48 46 43 44 43 45 44 41 27 19 33 38 37 37 37 37 39 38 37 38 37 35 31 32 32 31 30 30 30 28 27 27 24 17 19 20 15 13 16 16 15 15 18 20
46 45 45 44 40 44 44 38 24 20 33 32 35 36 35 35 36 37 35 33 33 32 32 33 30 30 30 29 30 27 24 16 16 19 10 21 21 19 19 18 18 18 17 18 17
45 45 46 45 44 44 42 31 20 30 31 36 35 33 33 34 35 35 33 31 33 30 29 27 26 29 30 29 28 27 25 14 8 14 18 22 18 15 20 21 18 19 19 21 23
43 42 43 45 44 44 37 23 24 29 36 35 31 29 30 32 35 32 31 31 31 31 26 25 25 31 30 30 28 28 26 26 23 22 19 19 18 16 18 18 22 21 21 25 26
39 39 41 46 45 41 32 28 30 35 34 31 29 29 28 30 30 30 29 29 28 30 31 28 24 30 30 30 30 27 28 23 22 9 11 16 17 14 16 17 21 22 22 24 27
38 34 38 45 44 37 29 30 36 34 35 30 28 26 26 28 29 28 28 28 29 28 30 28 26 28 30 28 27 28 27 27 24 22 16 16 16 19 19 21 22 24 25 29 33
37 30 39 44 33 35 31 33 38 37 37 33 29 27 25 30 28 27 27 27 30 30 28 29 27 25 27 29 29 29 27 26 20 17 23 22 20 23 22 23 25 26 29 34 36
34 36 42 40 30 33 36 36 37 35 34 32 29 27 28 29 25 26 27 28 30 30 28 28 25 21 24 27 29 28 28 27 26 26 23 20 19 22 23 25 27 33 38 39 39
35 28 33 38 38 35 34 34 32 35 33 31 28 28 28 26 27 28 28 29 31 31 31 29 28 22 19 23 27 26 27 28 27 25 23 23 22 24 26 28 33 38 40 38 37
37 35 37 31 32 33 37 35 32 31 33 31 27 27 28 27 28 29 29 29 31 33 33 29 26 28 28 28 29 28 28 28 27 26 25 24 26 28 30 32 36 39 39 38 38
35 34 36 35 34 34 33 32 33 34 34 31 30 31 29 30 30 29 29 29 28 31 30 31 26 30 27 28 29 28 28 28 28 28 28 28 28 30 34 37 39 38 39 38 39
39 40 39 34 32 30 29 32 33 35 34 36 33 35 34 36 37 34 32 31 31 30 30 30 28 27 23 27 28 27 29 29 30 31 30 31 33 36 37 36 38 38 34 32 36

GFSSW_sfc_30mbdewp_027.txt.gz
Dewpoint
49 48 47 46 45 45 44 43 41 44 48 50 53 58 54 53 54 53 49 50 52 55 56 54 53 50 46 44 42 41 37 34 29 29 28 33 32 34 33 30 29 30 44 48 55
47 48 48 47 46 47 45 41 44 41 44 45 50 54 54 54 52 47 49 52 54 53 56 51 49 47 45 42 41 39 36 36 37 35 33 34 35 36 34 32 29 32 46 55 56
46 46 47 46 46 46 45 45 41 41 42 45 48 52 57 54 48 44 50 52 54 55 55 54 48 45 42 41 40 39 37 38 39 39 38 36 36 37 35 32 31 31 42 50 55
44 45 45 44 44 46 45 45 43 40 40 41 46 50 55 52 35 48 53 54 55 55 53 51 48 43 41 39 40 37 39 38 38 38 36 35 35 35 36 35 36 38 38 38 46
44 44 45 45 44 44 44 44 44 42 41 42 43 48 53 46 44 48 54 56 55 56 53 50 46 43 39 40 39 37 37 37 38 37 37 36 35 35 36 37 39 38 38 37 37
43 43 44 44 43 43 43 43 42 42 43 42 44 49 50 40 45 48 50 56 55 54 51 49 46 44 40 38 39 37 37 36 36 36 37 36 36 36 35 37 37 37 36 36 36
43 43 43 43 44 44 43 43 43 42 43 43 44 49 48 42 45 47 54 54 55 53 51 50 48 43 42 39 39 38 35 37 37 37 36 37 34 35 36 36 36 36 36 36 36
42 41 42 43 43 43 44 44 43 44 43 43 45 50 43 47 45 43 53 54 56 54 52 52 51 46 41 41 39 37 36 33 35 36 36 36 30 33 36 36 35 36 36 37 37
42 42 43 43 43 43 43 43 43 44 44 44 46 48 40 46 43 42 46 49 52 54 52 52 49 45 40 37 34 35 32 33 33 35 34 35 32 34 35 34 34 34 34 34 34
43 41 41 42 43 43 44 44 44 44 44 44 46 42 44 41 42 43 43 49 50 51 49 47 46 41 38 36 29 31 31 31 30 30 32 30 30 32 35 35 34 34 34 34 33
43 39 39 40 41 43 43 41 33 35 41 38 41 41 42 44 44 43 42 47 50 47 42 45 41 37 37 37 33 31 31 30 30 31 30 28 28 28 28 28 28 29 30 30 30
41 41 43 42 43 43 43 37 38 38 31 38 41 44 42 43 40 42 46 44 45 41 42 41 37 41 40 40 38 35 33 31 31 30 29 28 27 27 27 27 28 28 28 28 29
42 44 45 45 45 42 39 37 43 42 34 32 42 43 41 42 40 41 42 43 43 39 38 37 37 43 41 39 37 33 31 29 29 29 27 25 23 23 23 24 25 27 28 29 28
48 48 46 46 43 41 38 44 44 41 27 34 39 42 40 40 38 41 42 40 40 38 36 35 35 40 39 35 31 29 29 29 27 26 24 26 20 23 21 22 23 22 22 25 27
46 47 48 46 41 38 40 45 43 38 18 35 40 46 41 37 38 39 41 39 37 38 35 35 32 35 35 33 32 30 29 27 27 25 23 23 21 18 19 14 16 17 17 19 22
46 46 46 44 42 43 45 44 40 27 20 32 39 39 36 37 38 40 38 38 40 37 33 31 32 32 31 30 31 30 27 26 27 24 16 19 21 11 12 15 16 19 19 19 20
46 45 44 44 39 45 44 38 25 20 32 31 34 35 34 35 37 37 34 34 34 32 31 32 30 30 31 29 29 27 24 15 10 14 9 22 21 15 18 20 21 19 18 25 26
45 44 45 43 44 44 40 29 21 29 32 37 35 34 33 34 35 35 33 31 32 32 33 29 27 29 30 29 28 27 25 14 1 9 16 22 18 14 21 21 21 21 23 25 27
43 42 43 44 44 43 36 25 25 29 36 35 32 31 32 34 36 35 32 31 31 30 26 26 25 31 30 31 29 28 25 25 21 21 19 18 18 17 18 21 21 22 24 25 27
38 39 39 45 45 40 29 30 33 35 34 30 28 30 28 32 31 32 29 31 29 31 31 27 24 30 30 30 30 27 28 22 22 10 7 14 17 12 16 17 21 22 25 26 27
37 33 38 44 44 34 29 32 35 34 35 28 29 27 28 28 30 28 29 28 29 29 30 28 26 28 29 28 27 28 26 25 23 20 14 13 12 20 18 21 23 25 27 29 35
35 27 38 41 33 35 33 35 37 37 37 34 28 27 28 29 28 27 26 28 30 30 27 29 27 26 27 29 29 29 27 26 18 17 23 21 18 24 23 23 25 26 29 36 41
33 34 39 39 31 32 35 36 37 35 34 31 28 27 30 27 25 27 27 29 30 29 27 29 24 21 24 27 29 27 28 26 24 23 21 18 18 23 23 25 27 30 34 40 40
34 28 33 37 37 34 34 34 32 35 33 30 28 28 28 27 27 27 27 30 31 30 31 29 26 22 17 22 27 26 27 28 26 24 22 22 21 23 24 26 29 32 39 39 40
35 34 36 31 32 33 35 34 32 32 34 30 27 27 27 27 28 29 29 30 32 35 33 28 25 28 28 28 28 27 27 27 26 26 24 22 23 25 27 28 30 37 39 38 35
35 34 36 34 35 32 32 33 32 33 33 29 27 28 29 28 28 29 29 29 29 31 31 30 27 29 26 27 28 27 27 28 28 28 27 27 27 28 29 34 38 39 38 34 33
38 39 38 34 32 30 29 32 33 35 34 35 33 34 34 35 36 31 30 30 29 30 30 29 28 27 22 26 28 25 28 28 29 29 28 26 28 32 36 37 37 38 33 32 32

GFSSW_sfc_30mbdewp_030.txt.gz
Dewpoint
46 46 47 47 49 49 47 48 41 42 44 44 47 49 55 57 53 52 49 51 52 54 57 53 55 53 46 43 42 41 35 31 29 30 29 32 31 35 34 32 30 30 36 47 59
45 44 45 46 46 47 47 47 46 42 41 42 45 48 51 56 52 50 50 51 53 52 54 52 51 49 46 42 41 39 35 35 33 31 30 34 35 35 35 34 32 29 50 55 63
44 45 45 46 46 46 47 47 46 45 42 41 42 45 48 54 48 44 49 49 52 54 56 52 50 47 44 42 40 40 36 37 37 37 38 37 37 36 35 32 32 32 37 48 58
44 44 45 44 45 45 45 45 45 45 43 42 43 44 47 52 37 46 49 51 52 54 54 52 47 45 42 39 40 38 39 38 38 39 38 36 35 35 36 34 35 37 38 38 47
41 44 44 44 44 44 44 44 44 44 43 42 43 44 49 47 43 48 53 55 52 54 52 51 46 42 40 40 39 38 37 39 39 38 37 37 35 34 35 36 38 38 38 37 37
40 43 42 43 43 43 44 43 43 42 42 40 43 44 47 40 46 47 48 55 52 54 53 50 47 43 40 39 37 38 37 37 37 36 36 35 35 36 36 37 36 37 36 36 37
43 43 43 43 44 44 43 43 43 42 42 43 44 44 45 43 45 45 51 54 54 55 52 50 47 43 40 37 40 38 35 36 36 36 35 37 34 35 37 36 36 36 36 36 36
43 43 43 43 43 43 44 44 43 43 42 42 43 45 42 48 52 48 47 53 56 54 51 50 50 45 41 40 39 36 36 33 35 37 36 35 27 32 35 36 35 35 36 36 36
44 44 44 42 42 44 44 44 43 44 44 43 42 44 39 51 47 46 44 51 53 53 52 51 49 44 41 37 35 35 32 33 33 35 35 35 33 34 35 35 35 35 34 35 35
43 44 42 40 40 41 44 42 44 44 44 43 41 40 44 43 47 45 49 51 49 49 47 46 44 41 39 35 28 30 31 32 31 30 33 33 32 31 30 30 33 33 34 34 34
42 42 42 43 42 42 43 38 32 34 40 36 39 39 42 44 46 45 47 51 51 48 40 43 40 35 36 37 33 32 32 30 31 31 30 30 29 29 30 29 29 29 29 29 30
46 46 45 45 45 44 41 36 37 38 30 34 41 43 45 46 41 44 47 46 45 39 42 40 36 38 38 36 35 34 33 32 32 30 29 28 27 28 28 28 28 28 29 29 29
46 46 43 45 46 42 39 37 42 41 32 35 40 43 44 44 41 42 45 45 42 40 39 37 37 43 38 37 36 34 33 31 30 29 27 26 24 23 23 24 24 24 26 27 28
46 46 47 45 42 41 36 44 44 40 26 30 37 43 44 41 39 43 46 44 42 39 38 37 41 39 39 38 36 32 29 29 27 26 25 26 20 22 22 19 19 18 18 19 20
45 46 46 46 41 37 39 45 42 37 18 34 39 45 40 36 39 40 45 41 39 38 39 34 39 39 37 37 35 31 29 27 26 25 23 22 20 15 18 14 16 18 20 24 25
46 46 44 41 42 43 45 43 38 24 19 32 39 37 36 38 39 40 40 42 42 37 35 32 34 35 36 35 33 29 27 26 25 23 16 19 20 7 11 16 17 20 22 26 27
44 45 43 43 37 45 43 37 22 21 33 31 35 35 35 36 36 36 36 35 36 31 31 32 30 30 31 29 29 27 27 22 11 14 11 22 20 13 19 21 21 20 23 25 27
45 44 44 44 44 44 40 29 21 30 32 37 34 34 34 35 36 35 33 32 31 34 31 28 28 29 30 29 28 27 25 17 6 5 14 22 16 14 21 21 21 22 24 27 28
42 41 42 44 44 44 36 26 25 30 36 34 31 31 32 34 36 35 33 31 31 30 26 25 25 30 30 31 29 27 25 25 20 20 17 15 17 14 20 21 22 23 25 27 28
38 38 38 43 46 40 31 31 33 35 31 30 28 30 28 32 31 33 30 31 30 30 30 27 25 30 30 30 29 27 27 22 20 7 5 11 14 11 15 18 22 24 26 29 29
36 32 37 43 42 35 29 33 34 36 35 28 29 27 29 30 30 30 29 28 29 30 30 27 26 28 29 28 27 27 26 24 22 19 10 9 7 19 18 20 23 24 27 28 31
34 28 37 40 33 36 34 36 37 36 37 31 28 28 28 29 28 27 28 27 30 30 28 28 27 26 27 29 30 28 26 24 16 16 21 20 13 23 23 23 24 26 28 34 40
33 32 38 38 31 32 33 35 36 35 34 29 27 27 30 27 26 27 27 29 30 28 27 29 24 21 24 26 29 28 28 26 22 22 20 15 13 23 24 24 26 27 31 39 40
34 27 33 36 36 34 33 33 31 35 32 30 28 29 28 26 27 26 27 31 31 30 31 29 25 21 16 20 27 26 27 26 25 23 21 20 19 21 23 25 27 30 35 39 38
35 33 36 31 32 33 33 34 32 32 34 29 27 28 27 27 28 28 29 30 32 34 32 29 25 27 27 26 28 27 26 27 26 25 22 22 23 24 26 27 28 31 39 37 34
34 34 35 34 34 31 31 32 32 33 34 29 27 28 29 27 27 28 29 29 29 31 30 29 27 29 25 27 28 27 28 28 27 27 26 26 26 28 28 30 36 38 38 34 32
38 39 37 33 32 30 30 31 32 35 34 35 30 32 33 35 36 32 31 30 30 30 30 28 28 25 21 26 27 25 27 28 27 28 27 25 26 27 30 35 37 38 35 32 32

GFSSW_sfc_30mbdewp_033.txt.gz
Dewpoint
46 46 47 45 46 47 47 48 49 48 43 43 43 46 48 52 55 54 49 50 52 55 57 51 55 56 46 43 42 40 35 33 33 30 29 31 29 34 34 32 32 30 37 49 59
44 45 46 45 46 46 47 48 48 48 46 43 43 43 45 50 51 51 50 51 52 53 52 49 53 51 45 43 42 38 34 33 33 32 29 33 34 34 34 34 32 32 39 58 62
43 43 44 45 46 45 46 46 46 47 46 45 44 43 45 49 48 48 52 51 51 54 52 52 52 48 44 42 41 40 32 35 36 33 36 35 37 36 34 31 33 33 38 51 60
45 42 44 44 45 45 45 45 44 44 45 44 44 43 44 48 38 48 52 53 51 52 53 51 49 46 44 40 41 38 39 37 37 39 39 37 36 35 36 34 35 38 38 38 55
45 44 44 43 44 44 44 44 43 42 44 43 41 45 44 42 44 49 51 51 52 52 52 49 47 45 41 40 39 38 38 39 39 38 38 37 36 35 35 36 37 38 38 38 38
45 45 44 44 43 44 44 43 43 43 44 42 43 45 42 37 49 52 48 50 50 53 52 49 46 44 42 40 38 39 38 37 37 37 36 36 36 36 35 37 36 37 37 37 37
45 44 45 44 44 43 44 43 43 43 44 44 44 42 39 38 48 52 47 51 50 53 50 51 45 42 40 39 39 37 36 36 36 36 35 36 32 35 36 36 35 35 36 36 37
44 44 44 45 44 43 44 44 44 43 44 42 43 42 35 43 50 50 46 52 52 54 52 51 47 43 40 39 39 36 35 33 35 36 35 33 25 32 36 36 36 36 36 36 37
46 45 44 44 43 42 42 44 44 43 43 44 41 40 37 50 46 47 44 50 53 53 52 51 47 44 40 37 36 35 30 31 32 37 35 34 32 34 36 34 34 34 35 35 35
45 46 46 44 42 41 42 43 43 45 44 43 42 38 41 42 46 45 49 51 50 51 46 45 44 41 39 35 27 32 30 33 29 31 34 34 34 34 32 31 31 31 31 32 33
45 46 46 44 45 45 42 37 31 33 39 32 35 38 43 46 48 46 51 51 48 45 41 43 38 35 36 35 32 32 31 31 32 32 30 30 30 30 30 30 30 30 30 30 30
44 46 46 44 46 45 40 35 36 38 28 33 37 39 46 46 41 47 51 45 44 39 41 39 34 36 37 35 33 32 31 30 32 30 29 28 28 29 29 29 29 29 29 29 29
46 47 47 43 45 43 39 37 42 41 32 34 37 41 43 45 42 44 48 45 39 38 36 33 37 38 37 36 35 34 31 31 30 29 27 26 24 23 24 24 22 20 20 22 23
45 46 45 44 42 41 35 44 42 39 28 32 36 42 43 43 41 45 48 46 43 34 38 38 41 39 37 36 34 33 32 30 27 27 25 26 21 21 22 17 18 23 26 26 27
44 45 45 44 39 38 40 44 42 38 19 33 37 47 42 37 41 41 47 41 38 39 39 35 39 39 37 37 36 32 29 27 26 25 23 23 20 16 17 15 18 22 25 27 28
44 44 42 42 42 44 44 42 38 21 20 32 39 38 37 38 40 43 43 44 43 37 35 35 41 39 39 39 37 29 26 25 24 23 21 18 19 10 12 16 19 21 23 27 28
45 44 42 43 37 44 42 37 23 21 33 32 34 35 35 35 37 38 38 37 36 31 31 34 30 31 38 34 31 28 28 23 14 17 17 22 20 15 18 20 21 21 23 27 28
47 44 43 42 44 44 42 29 22 32 33 36 34 34 34 35 35 35 33 31 32 33 31 29 27 30 30 30 31 27 27 21 13 4 11 22 16 15 21 22 21 22 24 28 30
44 39 40 43 44 44 35 27 27 31 35 32 30 29 31 34 35 34 32 31 30 31 27 26 27 30 30 30 29 27 26 22 20 19 16 14 16 15 20 21 22 23 26 28 30
37 36 36 43 45 40 32 31 33 35 31 30 27 30 28 32 32 32 30 31 30 30 30 27 26 30 29 30 29 27 27 23 20 9 4 8 12 9 16 17 22 24 26 28 31
35 30 36 43 42 36 30 32 35 37 35 28 28 28 30 31 31 31 29 29 30 30 29 27 27 29 29 28 27 26 25 23 21 18 9 6 5 17 18 20 22 24 26 28 35
34 29 38 40 32 36 33 35 37 36 36 29 28 28 29 29 28 28 27 27 30 30 27 28 27 26 27 29 29 28 26 22 16 16 20 19 10 22 22 23 23 25 27 32 40
34 31 37 38 29 31 34 33 36 34 34 29 26 27 30 27 26 26 27 29 30 28 28 28 24 22 24 26 29 28 27 24 21 22 19 14 10 23 24 23 25 27 30 37 39
33 26 32 35 35 33 32 32 31 35 33 30 28 29 27 26 28 27 27 31 30 29 32 28 24 20 15 19 26 26 27 25 23 21 20 19 17 19 21 24 27 29 32 39 35
34 32 35 30 31 32 33 33 32 32 35 30 27 27 26 26 28 27 29 31 31 34 31 28 24 26 26 25 27 27 26 27 25 24 22 20 21 22 24 27 28 30 39 36 33
33 32 33 33 33 31 30 32 32 33 34 29 26 28 29 27 26 26 29 29 29 32 30 29 27 28 25 27 28 27 28 27 27 26 25 25 25 27 28 29 34 37 37 34 32
36 38 36 32 31 30 30 31 32 34 34 36 30 31 32 34 36 34 31 30 30 30 29 28 27 24 21 25 26 24 27 27 28 28 27 25 26 28 27 30 34 37 35 32 32

GFSSW_sfc_30mbdewp_036.txt.gz
Dewpoint
45 44 45 45 46 47 47 47 49 49 48 45 44 44 45 46 50 52 52 49 49 52 55 49 54 54 46 44 42 41 36 33 34 33 31 31 29 31 32 27 30 31 35 50 55
46 45 45 45 45 46 46 47 48 48 48 48 45 44 44 46 44 45 53 52 51 52 54 45 51 51 43 41 41 36 35 31 33 34 32 30 28 30 31 31 31 32 39 58 61
46 46 46 45 45 45 45 46 46 47 47 47 47 44 44 46 37 40 52 53 53 51 52 48 51 48 43 42 39 35 30 32 34 34 31 31 31 34 30 30 29 30 37 52 60
46 46 46 46 44 44 46 45 45 44 44 45 45 44 42 43 27 49 53 54 53 51 50 50 50 47 42 38 38 34 32 32 34 37 36 32 32 32 32 27 34 37 38 39 56
45 46 46 46 44 44 45 44 44 43 43 44 44 45 40 37 34 50 55 50 54 50 48 47 45 46 41 40 39 35 37 35 35 39 38 37 35 32 34 35 37 37 38 37 38
43 45 45 45 45 44 44 45 43 43 43 44 43 45 38 34 35 52 52 48 52 48 48 48 42 45 41 41 38 37 37 35 36 36 37 37 36 36 34 35 35 35 34 34 36
46 46 46 45 45 45 44 44 44 44 44 44 43 40 37 33 46 51 52 49 52 47 47 49 44 42 41 40 40 39 35 37 36 35 35 36 33 34 34 32 32 30 30 33 35
45 45 46 46 45 45 45 44 45 44 44 44 43 41 33 35 36 46 50 48 50 48 48 50 47 43 40 39 39 36 34 33 32 35 35 34 24 30 33 32 31 30 31 32 34
45 46 46 47 43 42 42 42 44 44 44 43 40 38 31 43 42 47 50 47 48 50 50 50 44 39 39 34 33 33 24 26 29 35 31 32 24 27 30 33 31 31 31 32 34
45 45 46 47 44 43 42 43 43 45 43 42 40 35 35 37 45 49 50 49 47 50 46 45 43 38 34 30 20 25 23 27 24 31 35 33 27 32 34 33 31 30 30 29 31
45 47 47 44 45 45 42 38 34 34 37 27 28 36 39 43 47 48 48 51 48 44 39 42 37 35 33 30 27 28 26 25 28 31 30 29 29 30 31 31 30 29 28 28 30
47 47 46 46 46 44 41 35 36 38 28 32 35 38 40 44 40 46 49 46 42 38 39 39 35 33 35 34 31 29 26 26 31 31 30 28 28 29 29 30 30 30 29 29 29
45 45 44 45 45 41 38 39 41 41 32 35 40 40 44 42 39 44 45 44 40 39 39 36 35 35 35 34 31 31 28 30 28 30 28 27 24 26 25 24 21 23 22 23 25
45 45 45 45 40 39 38 44 43 41 30 32 37 42 43 42 41 46 49 42 40 38 37 38 40 33 33 32 30 30 34 32 29 28 22 26 14 23 22 19 25 26 27 28 30
45 44 43 42 40 38 43 44 43 39 20 34 37 45 42 40 42 43 49 46 37 37 38 36 39 35 32 33 33 28 31 29 28 27 26 24 22 18 17 18 23 25 28 30 31
47 44 43 42 41 42 44 42 39 29 22 34 40 37 37 41 41 44 43 44 42 37 38 38 41 40 39 37 35 29 28 27 27 26 26 23 21 13 14 16 21 24 26 31 32
47 45 42 42 36 43 44 39 30 24 34 32 35 37 37 37 38 38 38 37 35 31 31 33 34 39 39 35 32 30 30 27 25 26 22 21 19 15 17 19 20 22 25 31 33
47 45 43 41 43 44 42 33 24 30 31 36 34 33 34 36 36 37 36 34 34 34 33 30 27 35 37 35 33 32 31 25 18 13 13 21 15 14 21 21 21 22 25 29 32
44 41 42 43 44 44 37 28 29 32 32 31 30 28 30 33 33 33 32 31 33 33 29 28 29 31 32 33 35 32 30 23 21 19 18 13 16 17 20 20 21 23 27 30 33
41 38 38 44 45 42 37 31 33 36 34 30 26 29 26 31 30 30 30 31 30 30 30 28 28 30 29 30 29 29 27 25 25 17 14 9 9 9 18 21 23 25 28 31 34
38 35 39 43 44 39 31 33 35 37 35 28 28 28 30 29 31 29 28 30 30 29 29 28 28 29 30 29 27 26 26 24 23 20 12 4 5 15 18 20 23 25 29 31 37
37 34 40 41 37 37 33 35 37 36 36 29 29 29 29 30 30 29 25 29 31 29 27 28 29 27 28 29 29 28 26 22 19 20 21 19 10 20 21 22 24 27 30 34 39
37 35 40 41 31 32 34 34 36 33 33 30 27 28 29 28 27 27 29 30 31 29 28 28 26 24 26 28 29 28 27 25 22 23 22 14 11 23 23 23 26 29 32 38 38
36 31 36 38 36 33 32 32 32 36 33 30 28 30 27 26 28 27 27 32 31 30 32 28 25 23 16 23 28 28 28 26 24 22 20 17 17 20 22 24 30 32 36 38 37
36 33 34 33 33 33 34 34 32 31 35 30 28 27 25 25 26 26 29 30 31 34 31 29 26 27 26 26 28 28 27 27 26 24 21 19 19 19 22 27 28 33 37 37 35
35 33 33 33 34 32 31 32 33 34 34 29 27 28 29 27 24 26 28 29 28 32 29 30 28 29 26 27 28 27 27 27 27 26 25 24 23 25 26 28 29 34 37 36 34
36 37 35 31 32 31 30 32 33 34 34 36 28 31 31 31 34 32 30 30 30 29 29 29 29 26 23 26 26 24 27 27 27 28 26 24 25 26 27 28 31 36 37 34 33

GFSSW_sfc_30mbdewp_039.txt.gz
Dewpoint
49 47 47 47 47 45 46 46 47 47 48 48 49 45 45 46 47 49 46 51 49 50 54 43 51 54 49 45 42 42 39 38 35 31 30 32 32 31 30 26 26 26 32 48 56
47 48 47 47 47 46 45 45 46 47 47 47 49 45 45 45 40 39 46 55 51 50 51 40 49 51 45 42 41 39 38 36 34 33 33 33 32 29 30 26 24 28 38 52 57
46 46 46 47 46 46 45 45 45 47 47 48 48 47 44 43 37 31 41 53 54 52 53 41 47 49 42 39 39 35 33 35 33 34 35 33 30 28 30 25 26 26 31 48 55
44 44 46 46 46 45 45 46 46 46 44 46 45 46 43 39 23 37 48 54 55 51 50 46 42 46 40 37 37 33 32 30 31 34 34 32 31 29 30 26 28 31 37 38 51
47 47 47 46 45 45 45 45 44 44 43 44 45 45 40 35 31 51 53 55 55 50 45 45 39 42 39 36 34 35 31 31 32 36 35 32 29 28 28 31 35 36 37 36 37
47 46 46 47 45 46 45 45 44 43 43 44 43 44 36 31 32 46 52 49 54 50 45 42 38 42 39 37 34 36 34 33 32 36 36 33 30 31 31 31 33 33 33 33 34
43 45 46 46 46 46 45 45 44 44 44 44 43 38 35 31 35 50 51 47 49 52 41 41 39 41 40 40 37 36 32 34 32 34 33 36 31 32 33 32 32 30 31 31 30
45 45 45 46 47 45 44 45 44 45 44 44 44 38 32 33 34 40 51 48 48 51 41 42 42 38 38 39 38 35 34 30 32 34 33 34 26 29 33 32 31 29 28 27 28
46 46 46 46 44 42 43 42 43 44 44 44 39 37 28 36 33 35 48 47 49 50 42 47 48 38 38 35 34 32 26 28 27 32 33 33 27 28 29 29 29 28 27 27 28
47 47 47 45 45 44 43 43 44 45 43 41 37 33 30 32 37 45 49 49 50 45 46 47 45 37 35 30 24 24 25 22 23 31 31 31 29 27 29 28 28 27 26 26 26
46 46 45 44 44 44 42 38 36 34 34 28 30 29 36 37 45 46 47 49 45 45 40 45 38 34 31 27 22 19 23 19 21 29 30 28 26 26 27 29 28 27 26 26 25
45 44 45 45 44 43 39 33 37 39 28 30 34 35 38 40 40 43 49 45 40 38 34 40 35 32 30 26 24 25 21 21 25 28 29 22 25 26 27 27 26 26 26 27 27
45 46 45 45 44 38 38 39 41 40 35 35 38 39 40 44 41 44 44 43 37 37 35 34 36 34 32 29 28 24 23 22 24 30 29 27 23 25 25 27 27 24 24 23 24
48 44 44 45 41 38 38 42 43 42 30 31 37 40 42 44 40 47 47 43 39 34 35 37 37 33 33 31 26 22 27 28 30 27 16 26 6 22 24 21 23 24 26 27 30
47 46 44 42 38 37 40 43 42 40 22 36 39 44 42 39 41 42 48 43 38 39 39 36 38 33 30 29 28 28 32 30 30 28 27 25 21 19 21 20 23 25 28 30 32
46 47 44 42 40 39 43 42 40 29 22 34 38 38 37 39 40 42 43 43 42 38 37 38 41 38 33 34 30 31 30 29 29 28 25 24 19 15 16 18 22 25 28 30 31
46 48 45 41 38 42 43 39 31 25 35 33 35 38 37 37 39 40 38 36 33 31 31 35 34 39 39 33 32 30 28 26 25 26 21 21 21 17 16 17 21 23 26 30 33
47 47 44 40 42 43 41 37 25 30 30 35 33 35 35 37 37 37 37 35 38 36 33 30 26 34 37 35 32 30 28 27 18 19 20 20 16 15 17 20 21 22 26 30 32
46 41 41 42 44 43 39 30 30 33 32 29 29 30 31 32 36 35 32 34 36 35 33 31 29 36 37 37 35 34 31 25 21 16 16 15 15 19 20 20 20 22 27 31 33
42 38 39 43 45 43 36 31 34 34 32 29 25 28 26 28 29 30 29 31 31 30 30 29 28 32 34 37 36 36 31 28 27 20 12 13 9 8 17 18 21 25 28 32 34
40 36 42 42 45 40 33 34 33 35 33 28 26 26 26 27 28 27 27 30 30 28 28 29 28 30 30 31 30 31 32 28 25 22 18 7 7 15 18 22 24 25 30 32 36
41 39 43 43 38 35 32 34 36 33 34 28 28 28 26 27 27 26 25 28 30 29 26 29 29 27 29 29 29 28 26 26 22 23 20 20 14 17 21 23 23 28 31 33 39
37 35 42 43 33 32 32 32 34 32 31 29 26 28 29 27 26 28 27 30 31 29 27 27 29 25 26 28 29 28 28 26 23 24 25 18 14 19 22 23 26 30 34 37 38
36 35 36 37 36 32 29 29 30 36 32 30 28 28 27 26 26 27 28 31 30 30 31 27 26 26 20 26 27 27 27 27 25 25 21 17 17 20 22 23 30 32 36 37 37
35 33 34 35 32 33 34 33 30 30 34 31 29 27 24 24 24 24 27 29 30 33 30 29 29 27 25 25 29 29 26 27 27 26 22 19 15 20 21 24 29 31 35 37 36
34 34 34 31 33 32 32 31 31 32 33 29 28 27 26 24 23 23 26 27 26 30 29 30 28 30 26 27 27 27 26 26 27 26 24 22 21 22 23 25 28 31 36 36 35
32 35 35 30 32 31 30 32 33 34 34 34 29 28 28 29 32 30 28 27 28 28 28 28 31 28 24 25 25 23 26 26 26 26 25 23 24 25 27 28 30 33 37 36 35

GFSSW_sfc_30mbdewp_042.txt.gz
Dewpoint
47 47 47 47 47 47 47 46 45 46 47 48 49 51 45 45 47 49 46 50 52 53 53 46 50 53 54 49 47 49 42 40 40 38 36 31 31 31 30 28 26 27 47 56 63
44 45 45 46 46 47 47 46 45 46 46 47 48 50 49 45 43 38 43 51 55 51 49 41 48 52 49 47 45 43 42 41 43 41 38 33 32 32 30 29 27 29 48 57 61
47 48 48 48 47 46 47 46 45 45 45 45 49 50 51 45 38 34 37 51 54 55 49 41 47 50 47 43 43 40 39 41 42 40 38 35 32 33 30 29 27 26 40 52 58
48 47 47 47 48 46 46 46 45 45 46 44 46 48 48 44 29 43 35 48 52 54 51 45 39 44 43 41 40 36 38 37 37 37 36 34 33 30 30 30 31 36 36 45 52
46 44 46 47 47 47 45 45 45 44 45 44 46 47 44 37 34 45 45 48 52 54 47 47 39 42 40 39 36 37 34 33 33 36 35 34 33 30 30 32 35 37 37 37 37
45 46 46 47 47 47 46 45 43 45 43 44 44 44 38 31 31 42 49 52 54 53 45 48 38 42 39 36 35 35 36 34 31 35 36 32 31 30 30 33 34 35 35 36 35
46 47 47 47 47 46 46 44 45 45 45 44 44 41 37 32 34 48 50 47 53 52 43 42 38 38 41 38 39 35 33 34 33 35 34 35 32 30 31 31 31 33 33 33 32
47 47 46 46 45 44 44 45 44 45 44 44 44 40 33 33 33 35 49 47 45 52 48 45 41 38 39 41 38 34 34 32 33 33 34 35 29 31 32 32 32 32 31 30 31
46 46 45 44 43 42 43 43 43 44 44 44 39 36 30 35 31 31 42 45 46 51 52 45 46 39 39 37 35 35 29 31 31 33 33 34 30 30 31 33 32 31 32 29 28
44 45 45 45 44 44 44 42 43 44 43 40 36 34 32 27 33 31 43 48 48 48 48 42 41 38 37 35 30 31 31 28 28 32 33 33 33 31 29 28 27 28 27 26 27
45 46 45 45 45 43 44 40 38 34 35 32 34 31 31 37 38 43 49 48 49 48 39 42 38 34 35 33 32 28 27 26 27 31 31 31 31 31 30 28 28 29 28 27 26
48 45 45 45 44 42 43 34 37 38 32 30 32 32 34 38 38 44 49 46 44 39 40 40 35 35 34 31 28 24 22 25 24 30 30 28 28 28 27 27 29 29 27 26 26
47 48 44 44 45 42 40 41 43 41 33 35 36 38 40 43 39 40 47 44 40 36 37 34 35 35 32 30 27 23 23 22 24 29 29 27 25 23 26 27 28 27 26 26 25
45 47 47 44 43 38 38 42 43 42 30 33 37 40 42 43 40 46 46 43 39 36 34 35 38 36 33 29 25 23 24 24 25 28 23 26 9 19 24 26 25 24 24 24 29
44 46 48 45 42 37 40 42 42 41 21 36 39 48 43 41 42 44 47 41 36 36 38 36 37 38 36 32 29 26 30 30 30 29 28 25 22 20 24 21 22 24 27 30 32
44 47 47 44 43 40 42 42 40 29 21 34 39 39 41 40 39 43 42 43 40 38 38 38 41 40 37 36 32 33 30 30 29 28 25 25 21 20 22 21 23 26 29 30 32
43 46 47 43 40 42 44 41 30 25 34 31 36 37 36 36 38 39 37 36 35 32 32 33 34 39 40 36 34 31 28 26 24 25 21 23 23 20 19 20 24 26 29 31 33
46 47 45 43 42 43 43 35 24 30 30 34 35 35 34 36 37 38 37 33 37 36 32 30 27 35 38 36 34 30 27 24 17 21 21 20 21 19 18 22 24 25 28 30 32
46 44 41 44 44 44 39 29 29 33 30 29 32 31 32 35 35 37 36 35 38 38 32 30 28 36 37 38 36 32 29 26 24 16 18 19 18 19 20 20 21 23 26 30 33
44 40 40 44 45 43 38 31 33 34 31 29 26 29 25 29 31 33 34 36 33 35 34 31 27 35 36 38 36 35 32 28 27 19 13 15 14 14 18 19 20 22 27 32 34
43 37 43 44 45 42 33 33 31 33 33 28 26 25 26 27 28 27 28 30 30 28 29 30 29 32 35 33 32 33 31 30 26 24 22 14 11 17 19 20 20 25 29 32 35
42 37 43 45 39 38 34 33 34 31 32 28 28 28 25 26 26 26 26 29 30 28 27 29 29 28 30 30 33 34 33 31 27 24 20 20 16 18 19 22 25 27 31 33 39
36 35 43 44 35 30 32 32 33 32 30 29 26 28 29 26 25 27 28 30 31 29 28 29 29 24 26 28 29 29 28 34 31 26 24 18 16 21 23 23 25 29 33 37 38
37 34 39 41 35 34 30 29 30 35 33 30 28 28 27 26 26 26 28 30 31 31 30 28 27 27 22 25 29 27 28 28 26 23 23 21 18 20 21 23 28 33 36 37 37
35 33 33 33 34 33 33 33 29 31 34 32 29 28 25 24 23 25 29 30 31 32 30 31 27 26 26 26 30 29 28 28 27 27 24 23 21 20 22 24 31 32 36 37 36
32 32 33 32 32 33 32 31 31 32 32 30 28 27 26 24 24 23 27 27 27 31 29 31 28 30 24 26 26 26 27 27 28 28 27 26 23 23 23 24 28 31 36 37 36
27 32 34 30 29 31 32 32 33 34 34 33 32 27 26 33 34 32 28 27 28 29 28 29 30 26 24 25 26 23 26 26 26 27 27 25 25 26 27 28 29 31 37 36 35

GFSSW_sfc_30mbdewp_045.txt.gz
Dewpoint
47 48 48 49 49 48 47 48 47 47 47 47 47 48 49 46 47 50 45 48 53 53 51 47 45 51 53 52 52 53 43 39 39 39 39 39 40 31 30 29 33 44 55 61 63
48 48 47 47 48 49 48 47 47 46 45 46 47 49 49 52 45 42 46 48 53 54 48 45 44 51 51 49 48 48 42 41 42 41 42 44 40 33 29 29 33 53 62 63 62
46 45 45 46 46 47 48 47 47 45 45 44 47 50 50 50 42 38 42 45 52 55 49 45 49 52 46 47 46 45 40 42 40 40 44 45 41 39 29 29 29 47 58 61 61
45 47 47 47 47 47 47 47 46 45 45 44 46 48 48 46 32 34 45 43 51 56 53 47 48 48 45 42 45 39 41 42 42 44 48 46 41 37 31 31 36 33 55 58 59
48 46 47 47 47 47 47 45 44 45 45 45 45 45 44 39 39 39 43 43 52 54 51 48 45 47 42 43 41 40 38 40 40 40 43 47 44 36 31 35 37 37 39 48 55
46 46 47 47 47 47 46 45 44 44 43 44 45 46 42 34 37 49 49 44 51 51 50 48 38 44 42 40 38 39 39 37 35 36 35 34 37 35 30 34 35 35 35 36 36
47 46 46 46 45 45 45 44 45 44 44 44 44 42 39 34 38 44 49 48 51 50 49 48 45 42 41 39 39 36 35 36 37 36 35 34 32 36 32 32 33 33 34 34 33
44 45 45 45 43 44 44 45 44 45 44 44 44 42 36 36 35 34 45 47 49 52 50 47 45 40 41 41 38 35 34 33 36 35 35 31 29 32 33 31 31 32 32 32 33
45 45 46 45 45 44 43 43 43 44 44 44 42 39 33 36 33 31 40 42 48 51 53 47 44 39 39 37 36 34 31 32 32 34 34 33 31 31 33 32 31 33 33 32 31
48 46 46 45 44 44 44 44 44 44 43 42 38 33 34 33 37 35 43 40 47 48 47 45 42 37 37 36 30 32 30 31 31 32 33 33 32 32 31 30 32 32 30 29 29
47 48 45 45 45 45 44 42 37 35 36 31 31 34 33 35 40 40 44 44 46 44 39 42 37 32 35 37 35 33 31 28 30 32 32 32 33 33 32 28 28 28 28 28 27
45 48 48 45 46 46 42 36 40 40 32 34 34 35 34 36 38 42 47 42 43 39 39 39 34 36 37 34 34 31 29 28 27 30 32 32 32 33 33 31 28 28 29 28 27
44 45 47 46 45 43 38 41 43 42 35 36 37 37 40 41 38 40 44 44 39 36 37 33 34 36 36 34 31 30 24 25 25 29 29 28 25 26 28 29 29 29 29 27 26
44 44 47 48 43 39 38 43 44 43 31 34 37 40 43 43 36 44 47 44 41 36 35 35 38 35 34 32 31 27 25 25 28 28 24 27 20 17 25 25 27 27 25 25 29
44 44 47 48 40 39 41 43 43 41 19 36 39 46 44 38 39 42 47 43 37 38 35 36 37 37 33 33 32 26 28 28 29 27 27 26 21 20 22 24 25 24 24 26 32
44 44 46 46 43 42 43 43 40 27 21 33 37 38 37 39 40 42 41 42 41 38 38 38 41 40 39 39 35 32 30 30 29 28 22 26 23 19 22 23 23 24 29 31 34
45 45 45 45 41 43 44 41 28 23 33 34 34 38 36 37 38 38 37 37 35 32 31 35 35 39 40 36 36 32 26 26 22 24 19 23 23 23 23 23 23 26 29 30 32
44 47 47 46 43 44 43 34 23 29 31 37 36 35 33 35 37 37 36 34 37 36 33 29 28 36 38 37 35 34 27 22 14 18 21 21 20 21 20 22 26 28 29 32 33
44 46 44 44 44 43 39 26 26 33 31 33 34 32 33 36 36 37 36 34 36 37 31 29 29 37 38 39 37 35 31 31 24 21 20 20 20 19 21 25 26 27 30 31 33
41 42 42 46 44 43 36 29 32 35 33 30 28 30 27 32 34 36 34 37 37 38 38 34 28 35 37 39 37 34 33 28 28 21 13 17 16 16 19 22 24 26 27 31 35
42 38 43 45 44 41 30 32 33 34 33 28 27 26 27 27 29 31 31 36 36 36 34 32 30 31 35 32 34 33 32 31 28 26 21 13 14 17 18 20 21 25 28 32 36
38 36 43 46 39 38 33 35 34 32 32 30 28 28 27 27 26 26 28 30 31 32 31 31 30 28 30 36 37 35 33 30 26 25 20 21 15 18 20 21 20 25 31 34 39
36 35 43 43 34 31 32 33 34 32 31 30 27 28 29 27 25 28 29 31 31 30 28 30 28 26 28 29 34 34 34 34 31 27 22 18 15 22 21 22 25 30 32 38 38
38 32 35 41 37 34 32 29 31 35 33 30 29 28 27 26 25 28 29 30 31 31 30 29 28 24 20 22 28 27 31 33 32 28 25 23 18 22 23 24 25 29 35 38 37
35 32 33 31 32 32 33 33 30 32 34 32 29 28 27 24 24 26 30 31 31 31 30 30 25 24 25 29 29 28 28 30 32 28 26 25 18 20 22 23 25 34 37 37 36
31 30 31 31 32 32 32 33 33 34 33 32 28 29 27 28 27 24 29 28 28 31 29 31 28 28 23 26 27 25 28 28 29 27 26 27 26 25 23 26 31 35 37 37 36
31 33 34 30 26 30 31 31 33 34 35 35 33 31 27 33 34 32 29 28 28 29 29 30 28 25 23 26 26 21 25 26 27 28 28 26 26 27 26 25 30 34 36 37 35

GFSSW_sfc_30mbdewp_048.txt.gz
Dewpoint
47 45 46 46 46 47 48 49 48 48 48 47 47 47 48 49 50 50 47 47 50 55 53 49 46 49 53 52 53 50 41 37 38 39 39 44 43 42 35 36 46 54 57 60 63
45 47 47 47 47 47 47 48 48 48 46 46 47 49 49 50 46 44 48 48 49 53 47 44 42 48 51 51 51 45 40 39 40 39 40 45 45 43 39 35 51 59 62 62 62
47 46 45 47 47 47 48 47 47 46 45 45 46 49 49 49 40 41 45 46 47 54 50 45 44 48 46 49 48 47 40 40 40 41 46 47 46 45 40 32 44 54 60 60 61
48 46 46 47 47 48 48 46 46 45 44 45 47 48 49 44 33 38 43 45 47 52 51 45 48 46 42 45 46 43 43 42 43 44 48 45 46 45 42 34 34 52 60 59 58
47 45 45 47 47 47 45 45 43 45 44 46 45 45 42 38 37 41 42 48 46 51 49 44 47 46 43 44 45 40 41 42 46 49 48 48 47 46 45 44 38 53 59 58 58
45 44 45 44 45 46 45 44 44 44 44 44 46 46 40 34 39 44 43 46 45 51 49 48 45 47 42 42 43 43 39 41 44 45 46 45 45 47 45 40 36 42 45 50 56
45 46 46 45 43 44 45 44 45 44 44 44 44 44 39 35 44 42 46 48 48 53 48 49 45 45 42 41 41 40 38 38 38 38 36 40 41 43 45 39 35 35 34 35 35
48 46 46 46 45 44 44 45 44 45 45 44 43 42 36 38 40 35 43 47 51 53 50 50 46 45 41 40 39 35 36 34 36 36 35 33 32 40 44 36 31 33 33 33 33
47 48 46 46 45 44 45 44 43 44 44 44 42 39 32 36 35 34 41 43 49 52 52 49 46 40 39 37 35 35 31 32 33 36 34 32 30 31 34 33 32 31 32 32 32
45 48 48 45 46 46 45 45 44 44 43 43 42 34 34 31 35 40 42 46 47 49 49 47 43 39 37 36 28 31 31 30 31 35 34 32 32 32 33 32 31 31 32 32 31
44 45 47 47 46 46 43 40 35 35 36 33 31 32 33 34 40 40 44 44 44 44 39 44 37 35 35 35 33 32 30 31 32 33 33 32 33 33 33 33 30 31 31 30 28
44 44 45 47 46 46 42 37 40 39 30 36 35 36 37 35 38 40 45 37 39 37 38 40 35 36 37 36 33 32 30 29 29 31 32 32 31 33 33 33 32 29 29 29 28
45 44 43 46 47 42 36 40 43 42 34 35 37 37 39 41 38 40 43 40 38 36 36 35 35 37 36 35 33 31 30 28 26 30 30 29 28 30 32 33 32 31 29 29 28
44 44 43 48 44 40 38 41 44 43 30 34 37 40 42 42 38 43 45 44 39 37 37 36 37 36 35 34 32 29 28 26 27 29 27 27 24 22 27 27 30 30 29 28 26
45 44 44 46 40 40 40 43 43 40 18 33 38 44 41 38 38 43 48 42 37 36 39 36 36 34 34 33 32 29 27 27 29 28 27 25 23 21 22 21 26 28 27 26 29
44 43 47 46 45 43 43 43 40 23 21 33 37 37 35 38 41 42 42 45 43 38 38 38 41 39 38 37 34 32 30 30 30 27 22 24 23 22 20 19 22 26 25 26 34
44 45 46 46 40 44 44 40 24 22 32 34 36 37 37 36 37 36 38 37 35 31 31 36 36 39 39 34 35 31 26 23 22 23 21 24 24 22 24 24 24 24 27 32 35
45 46 47 46 44 44 42 33 20 28 34 38 36 37 35 35 36 36 36 33 37 33 32 29 29 36 38 37 33 30 27 22 17 19 20 22 20 19 24 24 24 26 30 32 34
43 45 45 45 44 43 38 25 23 30 32 35 36 34 34 36 35 35 35 33 35 36 29 29 28 37 39 38 36 33 30 30 24 21 20 20 22 21 22 23 26 27 30 30 33
40 41 41 45 44 42 34 29 30 35 33 31 29 32 32 34 35 34 34 34 35 39 36 32 27 35 37 38 37 35 34 27 27 20 14 17 19 16 20 23 26 28 29 32 35
42 38 43 45 44 40 30 30 33 35 33 28 27 26 27 30 34 33 34 36 36 36 37 31 29 31 36 34 34 33 32 33 29 26 21 18 16 18 19 24 26 28 30 32 38
37 36 43 45 38 38 32 34 34 32 33 31 28 28 27 27 26 27 30 31 37 36 31 31 31 27 31 36 38 37 33 30 27 25 22 21 17 20 19 22 26 27 29 34 38
36 35 44 44 35 31 32 32 34 32 32 31 27 28 28 27 26 29 29 31 33 31 32 30 28 26 27 29 34 34 35 33 31 27 22 20 18 22 21 21 24 26 32 37 38
35 30 34 41 38 34 32 30 31 34 33 30 28 28 27 26 26 28 29 31 31 30 31 30 27 24 21 22 29 31 34 34 32 28 25 23 22 20 21 21 23 28 33 38 38
32 32 32 30 31 31 33 34 31 32 33 31 29 28 27 25 25 28 30 30 31 31 30 28 25 26 25 28 28 28 29 33 32 30 27 26 25 21 21 22 24 30 35 38 37
28 27 31 30 31 30 32 32 33 34 32 32 28 31 28 29 27 26 29 29 28 31 29 31 27 27 24 25 28 26 27 31 32 32 31 27 26 26 23 24 26 30 36 37 36
32 32 33 28 18 28 24 26 28 32 36 35 34 31 31 33 34 33 30 29 28 29 29 29 27 24 19 26 25 21 25 26 29 31 32 28 27 27 25 23 26 31 37 37 36

GFSSW_sfc_30mbdewp_051.txt.gz
Dewpoint
47 48 46 46 48 48 48 47 48 48 49 48 48 47 48 49 50 50 48 48 47 53 56 52 51 49 53 52 53 51 40 37 36 36 37 42 43 45 44 41 45 59 58 60 63
47 47 46 46 47 47 47 48 48 47 48 47 47 48 49 50 47 46 49 50 49 51 50 49 47 48 50 50 51 47 41 38 38 37 36 40 45 45 43 41 47 59 62 62 62
47 46 47 46 47 48 48 47 47 47 45 45 46 48 49 48 41 40 47 50 49 49 52 46 46 44 45 49 49 46 41 41 39 39 42 45 45 46 44 40 36 39 60 61 61
45 45 44 46 47 47 46 46 45 44 44 45 46 48 49 44 30 39 44 47 49 48 51 46 45 42 43 43 48 44 43 41 41 44 44 43 45 45 45 44 44 46 43 60 60
45 45 45 44 45 46 45 44 43 44 44 45 45 46 43 40 38 42 44 43 45 47 47 47 43 42 39 39 45 42 43 42 47 48 47 46 45 46 46 45 44 42 51 59 60
48 46 45 45 43 45 45 44 44 45 44 45 45 45 40 33 40 44 45 43 44 46 46 48 44 43 42 42 43 43 43 44 47 46 46 45 46 47 43 44 44 40 56 57 57
48 48 46 46 45 44 45 45 44 44 44 44 44 45 40 35 41 43 43 47 47 46 45 50 46 45 43 42 44 43 40 44 46 46 45 45 43 44 44 43 43 42 40 54 56
47 48 47 46 46 45 45 44 44 44 45 44 43 42 35 40 44 43 41 47 50 47 50 50 47 45 41 41 39 36 39 35 42 43 42 46 39 45 46 44 43 43 34 34 35
43 46 46 47 46 46 46 45 44 44 44 44 42 39 33 39 42 41 42 43 49 51 51 49 46 42 41 37 35 35 31 33 35 41 39 41 33 40 46 42 42 43 33 33 33
45 43 44 46 47 47 46 44 45 45 43 43 42 35 34 31 34 40 45 44 44 47 45 44 42 38 37 35 27 30 31 33 32 36 36 38 31 34 41 43 42 41 35 32 33
45 46 43 45 47 47 45 38 35 33 35 35 32 31 32 34 38 40 44 42 46 44 40 42 37 33 36 36 31 33 31 31 32 35 34 34 32 32 33 34 34 32 32 32 32
44 46 42 44 46 47 41 35 36 37 30 35 36 36 38 35 37 41 44 39 38 35 41 38 35 36 37 36 32 32 30 30 31 33 34 33 32 33 33 33 33 32 31 31 30
46 45 44 44 48 42 36 38 43 42 33 35 37 37 39 42 38 40 42 40 36 34 36 35 34 37 36 34 32 31 30 29 29 31 32 31 30 31 33 34 34 33 32 30 30
45 43 44 45 43 41 38 39 43 43 28 33 36 40 42 41 37 43 44 41 37 34 36 37 37 37 36 34 33 30 30 29 29 28 27 30 26 27 30 30 31 33 33 32 29
44 44 43 46 41 39 39 42 43 40 18 32 38 43 41 39 37 40 43 43 36 37 37 35 35 35 34 34 32 29 29 27 28 28 27 26 26 26 22 23 28 29 31 31 29
44 44 44 45 45 43 44 43 40 24 21 33 38 36 36 39 39 42 42 46 41 38 39 38 41 37 37 35 32 31 29 29 29 27 24 25 25 23 21 21 20 22 27 29 28
44 45 45 45 40 44 44 39 25 20 31 32 34 36 36 36 37 38 38 37 32 31 32 35 36 39 39 33 33 30 27 25 24 24 22 24 24 22 23 24 23 23 24 26 30
45 46 47 45 44 44 41 30 21 27 31 36 36 36 34 35 35 36 36 34 37 33 32 30 28 36 38 34 31 29 25 22 18 19 21 24 22 22 24 25 26 26 26 29 35
44 44 45 44 45 44 36 25 23 28 34 34 36 33 34 36 35 35 34 34 35 34 28 28 29 37 39 38 35 33 27 27 23 21 20 20 21 21 22 23 23 24 28 31 36
40 41 42 45 44 42 34 29 29 34 33 33 30 34 32 34 33 33 33 34 34 37 35 30 27 34 37 38 37 34 33 27 25 19 16 16 19 17 17 20 24 27 29 32 35
41 39 43 45 44 40 30 30 32 35 33 29 27 27 30 34 35 33 33 34 36 37 35 31 29 31 36 34 33 34 32 32 28 24 19 18 16 20 18 19 23 27 30 32 35
36 36 43 45 37 37 32 33 34 32 33 31 28 28 27 29 31 29 33 33 37 37 33 32 30 27 29 36 37 36 34 32 27 26 24 20 20 20 20 20 26 28 30 33 37
35 37 44 44 33 32 32 32 34 32 31 30 27 28 28 26 27 29 29 32 37 35 31 32 29 25 27 31 34 35 36 34 30 27 24 22 21 22 21 21 26 28 31 34 38
34 31 34 41 39 33 32 32 30 34 32 30 29 28 27 26 28 28 29 30 32 31 33 31 28 24 21 23 30 31 33 36 34 29 26 24 23 24 20 20 23 27 31 36 38
31 30 31 30 31 31 34 33 32 32 33 33 29 29 27 25 26 28 30 30 31 31 32 28 25 26 26 26 29 29 31 32 33 33 28 27 26 26 23 21 22 27 32 37 37
24 24 31 26 27 30 30 32 31 32 34 32 30 32 28 29 28 27 29 29 28 30 29 30 27 26 24 25 29 27 28 31 31 32 32 31 29 28 27 24 23 25 32 36 37
32 32 32 22 21 27 18 25 26 29 36 33 35 33 32 33 34 33 30 29 28 28 29 28 26 24 18 25 24 21 24 25 29 32 32 30 31 29 28 25 25 26 34 35 37

GFSSW_sfc_30mbdewp_054.txt.gz
Dewpoint
48 46 47 47 47 48 48 48 48 47 48 47 47 48 48 48 49 49 47 49 49 52 53 53 52 50 54 52 53 49 42 36 36 36 37 44 41 45 45 43 46 56 60 61 62
45 45 44 44 47 47 47 47 47 47 47 47 48 47 49 49 47 45 48 50 51 50 50 50 49 49 49 50 50 46 41 40 39 37 35 43 42 44 42 43 37 44 46 59 63
46 45 47 44 45 46 46 46 45 45 45 45 46 47 49 48 41 38 44 49 52 49 51 49 48 47 43 49 48 47 42 42 39 39 41 44 44 46 44 40 42 45 45 46 61
49 46 46 45 44 46 46 45 44 44 44 45 46 47 48 45 30 42 46 48 52 50 49 49 46 43 40 43 48 43 44 43 41 41 42 42 44 43 45 43 47 45 43 44 56
49 49 45 47 45 45 46 45 44 44 45 45 45 45 43 39 38 41 45 43 45 49 47 48 44 42 39 43 46 44 43 43 45 44 43 45 44 45 44 46 47 44 43 51 57
47 49 48 45 45 45 45 46 45 45 45 44 46 45 41 33 39 41 43 42 44 43 46 48 44 42 41 40 41 43 43 43 45 45 46 43 44 46 41 43 44 43 43 44 58
43 46 48 48 45 46 45 45 45 44 45 44 44 45 41 34 40 43 42 41 46 44 44 48 48 42 43 40 43 43 39 44 46 46 46 44 42 43 44 44 44 44 44 42 41
47 42 45 47 47 46 47 46 45 44 44 45 44 42 36 39 44 44 43 42 47 48 45 48 50 43 42 43 43 40 40 37 43 45 44 41 37 40 46 47 45 44 42 42 37
46 46 43 43 46 47 47 47 45 45 45 44 43 40 33 43 41 40 42 41 46 47 47 47 48 42 40 39 37 36 34 35 39 45 45 40 37 41 47 46 44 41 41 41 38
46 46 45 42 45 47 47 46 46 45 43 43 42 37 34 31 35 40 45 46 44 47 45 47 43 37 38 36 28 33 32 34 34 42 44 40 34 40 46 43 40 40 40 41 38
47 47 46 42 45 47 45 37 34 32 35 33 32 32 32 34 38 40 43 45 45 41 37 43 36 32 35 36 30 32 31 33 33 36 38 41 39 34 44 42 39 37 40 38 36
46 47 46 43 44 47 41 33 37 36 31 34 35 36 37 37 37 40 42 38 38 36 39 37 33 33 37 36 33 32 30 30 31 35 37 34 36 36 35 41 40 37 39 37 33
46 46 45 42 44 43 36 37 43 41 33 34 37 37 38 42 38 39 40 39 36 35 34 34 34 36 36 35 32 31 29 29 30 33 32 33 32 33 34 34 34 36 38 35 32
46 44 43 42 43 41 37 40 43 42 26 32 37 39 41 41 36 42 43 38 36 34 35 36 36 35 36 35 32 30 31 29 30 30 29 30 27 30 32 33 33 33 34 33 32
44 43 42 44 41 39 39 43 43 38 18 33 37 43 40 38 36 38 44 40 32 35 34 35 35 36 34 33 32 29 30 28 29 28 27 26 27 27 26 30 32 32 33 34 33
43 44 44 45 44 43 43 43 40 22 21 33 37 36 36 37 39 41 41 44 40 37 38 38 40 37 36 34 31 31 29 29 28 27 23 25 26 25 24 23 24 25 30 31 32
44 46 44 45 40 44 44 40 24 20 30 31 33 35 36 36 37 38 36 35 33 30 31 36 36 39 37 33 32 30 27 25 23 23 22 23 25 23 24 24 23 22 22 24 29
45 46 45 45 45 44 41 30 21 25 30 36 37 37 34 35 36 37 36 33 37 35 32 30 29 36 38 33 31 29 27 23 17 19 21 24 22 23 24 24 25 26 25 26 27
44 43 44 44 45 44 37 25 23 27 34 35 35 33 33 36 34 35 35 34 35 34 29 29 29 38 39 37 33 31 27 24 21 20 19 21 22 20 20 21 23 24 24 27 31
40 40 42 46 45 42 35 28 29 31 33 35 31 34 31 33 33 32 33 34 34 37 34 29 28 34 37 38 37 32 31 26 24 18 16 17 18 17 17 19 20 21 25 29 35
40 39 43 45 44 40 30 29 31 34 34 29 27 28 33 34 32 32 31 34 35 37 33 31 29 31 35 34 33 32 30 30 27 23 18 16 17 19 19 18 18 20 27 31 36
36 35 43 45 36 37 33 33 34 32 33 30 28 29 27 34 34 33 31 34 36 37 30 31 29 27 30 35 37 36 33 30 25 24 24 20 20 22 20 20 21 24 29 32 36
34 37 44 44 32 31 32 32 34 32 31 30 27 28 28 26 27 30 30 34 37 33 31 31 28 26 27 31 35 34 35 33 31 28 24 23 22 21 21 20 25 27 30 33 37
33 31 34 41 40 32 32 33 30 34 32 30 29 28 27 26 29 28 29 32 33 33 36 32 29 24 20 23 30 31 32 32 32 29 27 26 26 26 25 23 21 27 30 34 37
30 29 31 29 31 31 33 33 33 33 34 31 29 31 27 24 27 28 30 30 31 36 36 33 29 26 26 25 30 31 31 33 32 31 27 26 27 27 27 27 23 24 30 35 37
22 23 30 24 24 30 28 31 29 30 34 33 31 32 29 28 29 27 29 29 28 30 31 30 27 25 24 25 29 27 28 31 32 32 33 33 32 34 30 27 24 23 29 33 35
31 32 30 21 21 27 18 23 27 30 34 34 36 33 31 35 37 34 32 29 29 29 29 28 26 24 18 24 24 22 25 27 29 32 31 29 30 32 32 32 30 26 27 32 35

GFSSW_sfc_30mbdewp_057.txt.gz
Dewpoint
47 45 48 45 44 48 46 46 47 47 47 47 47 48 48 48 49 49 46 48 50 51 52 54 53 51 54 51 52 51 42 36 37 36 38 44 41 45 45 44 45 50 51 55 63
50 47 45 45 44 47 45 45 45 46 46 46 47 46 48 48 46 44 47 48 52 51 49 50 49 50 50 49 49 45 41 39 39 38 41 44 42 44 42 39 40 45 46 45 62
49 49 47 45 46 43 45 45 45 44 45 46 46 46 48 48 41 38 48 46 49 52 50 51 50 47 46 49 49 47 40 41 40 40 42 42 43 45 42 39 43 44 44 45 50
47 49 48 45 46 43 46 45 44 45 45 46 45 47 47 43 28 42 47 47 48 52 49 49 48 43 43 44 47 43 46 43 41 42 43 41 43 42 43 41 46 46 44 45 50
43 46 47 49 43 45 44 46 45 45 45 45 45 44 44 38 37 40 43 43 44 51 47 48 45 42 39 44 46 43 44 45 45 43 43 43 44 43 43 46 47 44 44 44 47
46 44 44 47 48 43 45 45 45 45 45 45 44 46 40 31 38 41 43 41 44 49 47 48 45 42 40 44 42 44 43 43 45 43 45 42 43 45 42 43 44 45 45 45 43
47 46 44 43 46 47 46 46 45 45 45 45 43 45 40 34 39 42 44 42 43 47 45 47 49 42 41 42 43 43 40 44 45 44 45 44 41 40 45 45 45 45 44 44 43
48 46 44 45 44 46 47 46 46 46 44 44 44 42 35 39 42 42 43 41 42 44 46 48 50 44 42 43 41 40 40 37 43 45 46 41 33 39 46 44 43 45 44 43 43
48 46 45 45 44 45 47 47 46 45 46 44 42 39 33 43 38 37 42 41 43 47 46 49 50 42 41 38 36 38 34 34 40 45 44 42 38 39 44 43 40 40 44 42 42
47 46 46 44 45 45 47 46 46 44 42 43 42 35 36 31 36 38 44 43 42 44 44 42 43 39 39 35 26 33 33 34 36 43 44 41 36 41 45 43 40 41 43 42 41
46 46 46 45 44 45 46 36 34 32 36 32 30 31 32 35 39 39 42 43 43 42 36 39 34 33 36 33 32 33 34 32 33 42 42 41 39 36 44 44 40 40 42 40 40
46 47 45 44 43 46 41 33 33 33 30 33 34 35 36 37 36 39 43 38 40 35 37 34 31 36 37 34 32 34 32 32 31 40 40 39 39 39 40 43 39 40 39 41 39
45 46 44 43 43 44 37 36 42 42 32 34 36 37 37 41 37 37 41 40 37 35 33 32 35 34 36 34 31 31 31 30 30 36 34 35 34 35 37 40 42 41 40 39 37
45 44 44 42 41 41 37 40 43 41 25 32 37 39 40 40 35 42 43 38 36 33 35 36 36 33 36 34 32 30 31 30 31 31 29 31 26 31 33 33 35 39 39 39 38
43 45 46 42 42 38 39 43 42 37 18 32 37 44 41 37 36 37 43 37 34 35 36 34 35 33 34 34 32 30 30 30 30 29 27 28 29 28 30 32 33 34 34 35 35
45 44 45 42 43 42 43 43 37 23 19 32 37 36 35 36 38 38 41 42 39 36 36 37 38 37 35 35 31 30 29 28 28 26 24 26 28 26 25 26 28 32 33 34 34
45 47 44 44 40 44 44 39 24 20 30 30 33 36 36 36 37 38 36 34 33 27 30 36 37 39 37 31 31 29 28 26 23 22 21 23 25 25 25 24 24 24 24 26 32
46 45 46 45 45 44 41 29 22 26 32 36 36 36 34 36 36 36 34 31 36 35 32 30 28 36 37 33 31 28 26 22 17 19 22 24 22 22 26 26 25 25 26 26 26
45 44 43 45 45 44 37 23 25 27 35 33 34 30 33 35 35 36 35 34 36 35 31 30 29 38 37 36 32 30 26 24 20 20 19 21 22 21 22 21 20 21 24 24 25
41 40 42 46 45 42 34 28 30 29 34 37 31 34 29 32 32 34 33 35 35 38 34 30 29 36 37 37 36 31 30 26 24 18 15 17 17 15 16 18 20 19 19 23 29
39 38 43 45 44 39 30 29 31 34 34 29 27 31 34 33 33 32 32 34 36 36 32 30 28 32 34 34 33 30 29 28 26 22 18 16 15 20 20 20 19 20 22 27 32
37 34 44 45 36 37 33 33 35 32 33 30 29 29 32 35 34 31 31 33 36 36 30 31 29 28 31 35 37 34 30 28 24 23 23 21 20 23 20 21 21 22 28 31 36
35 37 44 44 32 31 33 32 34 33 31 30 27 28 28 28 29 32 30 36 37 32 31 31 28 25 26 29 32 32 34 32 30 28 23 22 21 22 22 21 22 26 29 33 37
33 30 36 41 39 32 32 32 31 34 32 30 29 28 27 27 29 29 31 33 35 36 35 31 28 23 21 22 29 30 31 33 31 27 25 25 25 26 28 28 28 25 28 32 36
29 29 30 30 31 31 32 32 32 32 34 33 29 31 27 25 27 29 30 31 33 37 36 33 28 26 26 26 31 30 30 31 30 29 27 26 26 28 28 29 29 25 25 32 35
21 25 29 23 22 29 28 30 29 29 33 32 31 32 30 29 30 28 29 29 29 31 34 31 27 25 23 25 27 27 28 30 31 30 30 30 30 32 34 34 33 31 25 29 34
31 32 24 22 22 28 20 22 31 32 34 35 36 32 33 35 36 37 33 30 29 29 29 28 26 24 20 24 23 17 21 26 29 32 32 29 30 31 31 31 33 33 33 27 31

GFSSW_sfc_30mbdewp_060.txt.gz
Dewpoint
50 50 47 47 47 44 47 44 45 46 46 47 47 47 47 47 47 45 42 40 49 52 53 47 48 50 52 52 51 46 39 36 35 31 36 42 41 44 44 44 45 46 46 46 62
48 50 48 46 47 43 46 44 45 45 45 46 46 46 47 48 42 38 41 46 48 50 50 47 45 48 47 49 49 44 39 37 36 35 39 42 40 42 41 41 43 43 43 49 63
44 47 48 47 45 45 46 44 45 45 45 46 45 47 48 47 39 34 48 49 46 49 53 49 47 46 42 46 49 44 40 38 37 40 41 41 43 44 39 39 42 42 43 44 51
47 44 45 48 48 45 44 46 46 45 45 45 44 45 46 44 28 41 45 47 48 50 50 49 48 44 37 44 48 43 41 39 39 41 41 39 42 41 41 40 44 45 44 44 47
47 47 45 45 48 45 44 45 46 45 45 45 45 45 42 36 33 40 43 42 45 50 46 48 45 42 34 39 44 45 42 43 39 42 41 41 40 40 40 41 45 44 44 44 44
48 47 46 45 45 47 45 46 45 45 45 45 44 46 38 29 37 38 41 40 42 48 45 49 45 41 34 36 42 42 43 43 43 44 41 40 39 44 38 42 43 43 43 44 44
48 47 46 45 45 44 47 46 46 46 45 44 44 43 38 29 36 39 41 40 42 46 44 48 49 41 36 36 38 39 40 42 44 43 41 42 40 40 38 40 42 42 41 43 43
48 47 46 46 44 43 46 48 46 47 46 44 45 41 32 38 39 40 39 40 42 47 45 50 49 44 36 39 39 35 37 36 40 43 42 44 34 37 38 42 40 40 40 42 42
48 47 45 46 45 42 45 48 47 46 46 46 42 39 30 42 35 37 38 39 41 43 47 50 47 42 41 34 33 35 26 30 36 41 42 41 33 37 41 42 39 39 37 38 40
47 47 46 45 45 43 45 47 44 46 42 42 40 37 34 29 36 38 39 42 39 43 42 42 39 38 35 31 25 27 26 27 31 41 41 40 38 36 41 41 35 36 36 37 39
46 46 46 45 45 44 46 38 36 34 37 30 29 30 31 36 42 38 40 38 41 41 37 40 33 34 30 29 24 25 27 29 31 40 40 39 39 39 38 42 39 37 35 36 39
45 46 46 44 44 45 45 33 33 36 31 34 33 34 35 38 37 36 42 36 39 35 37 35 32 35 34 32 30 28 26 27 33 40 39 37 37 39 38 40 41 38 34 36 38
45 46 44 44 43 44 40 35 43 41 33 35 38 37 37 41 36 37 42 39 38 36 33 31 35 38 34 30 30 28 26 30 29 40 38 36 34 36 38 38 39 40 36 33 36
45 44 45 45 42 41 37 40 43 42 30 32 36 38 40 40 35 42 45 40 38 34 34 35 38 37 34 29 29 30 31 32 35 31 24 33 16 24 30 35 37 37 38 37 39
44 45 45 44 42 39 40 43 43 39 21 33 37 43 40 35 36 38 45 39 33 35 36 33 36 37 33 31 29 30 32 30 31 24 25 27 22 18 27 27 29 33 34 37 38
44 45 45 41 43 42 43 43 39 29 21 33 37 36 34 35 36 37 39 40 37 34 37 38 39 35 33 35 32 31 30 29 29 26 22 21 23 17 21 23 24 29 32 34 35
46 46 43 43 39 44 44 40 29 24 31 30 33 36 35 34 34 35 33 33 31 27 29 36 35 37 37 32 31 30 27 24 21 23 18 24 25 17 25 25 26 25 26 29 32
46 44 45 45 45 45 42 31 24 27 31 35 34 37 33 35 35 35 32 32 36 34 30 29 27 35 36 31 30 30 24 20 15 15 16 24 20 18 25 27 27 26 25 26 27
45 44 43 45 45 44 38 29 27 29 35 31 33 29 34 36 35 35 34 33 35 36 29 30 29 38 37 35 31 30 27 24 22 20 20 18 22 22 23 24 23 21 22 22 24
42 42 42 46 46 43 35 30 33 30 34 36 30 34 29 33 33 34 33 35 34 37 35 32 29 36 36 36 34 31 29 24 27 19 14 16 16 10 18 20 21 21 22 24 25
42 38 43 46 45 40 31 32 33 34 34 30 31 33 32 33 33 32 33 35 37 36 35 31 30 33 35 34 33 30 29 29 26 24 18 12 10 19 20 21 22 22 25 28 30
41 35 44 45 37 38 34 33 35 33 33 30 34 32 34 34 31 30 32 36 39 35 32 31 32 30 32 35 36 32 29 28 22 23 24 21 18 22 22 22 22 25 27 30 34
38 37 44 44 31 32 33 33 34 33 31 30 30 29 28 31 31 33 31 35 38 33 31 30 29 27 28 30 33 33 32 29 29 28 26 21 17 23 22 22 25 28 29 30 35
36 33 37 41 39 33 33 33 32 35 32 30 30 28 27 28 30 30 33 33 36 36 35 32 28 26 21 25 28 28 30 32 30 27 24 24 23 23 24 26 27 29 30 29 32
31 31 33 32 31 32 34 32 33 32 34 33 30 30 27 26 28 29 33 33 35 36 35 32 29 27 25 29 31 30 29 29 30 28 26 25 25 25 27 29 30 31 31 30 30
24 28 28 25 26 31 31 31 31 31 34 31 31 32 30 29 30 28 30 31 34 34 35 32 28 27 25 26 27 27 28 29 30 29 28 28 27 30 30 31 30 30 30 31 31
32 33 26 23 26 29 25 28 33 33 35 36 36 33 33 34 35 36 34 30 31 33 33 32 29 27 24 24 23 21 23 25 27 30 29 27 27 29 29 29 31 31 31 31 32

GFSSW_sfc_30mbdewp_063.txt.gz
Dewpoint
45 49 51 47 46 46 45 45 45 45 46 47 47 46 46 47 47 43 40 40 45 46 52 50 46 49 47 50 51 46 40 36 34 30 32 38 39 43 44 43 47 47 47 49 63
47 45 46 50 47 45 45 45 46 45 45 46 46 46 47 47 39 38 40 44 46 47 48 47 42 46 43 48 49 46 42 39 37 33 36 39 37 41 41 43 43 43 47 60 63
47 48 46 45 49 46 45 46 47 45 45 45 45 46 47 46 37 34 46 48 49 47 49 51 46 44 40 43 47 44 40 40 37 39 39 40 40 41 40 41 42 42 43 50 61
49 48 47 46 45 49 44 44 46 46 46 45 45 44 45 41 29 40 45 45 46 48 49 46 47 42 39 38 46 42 41 40 41 41 40 39 41 40 39 41 43 42 43 44 54
49 49 47 47 46 46 48 44 46 46 45 45 45 45 40 33 30 38 40 39 40 49 44 42 45 44 38 35 43 43 42 39 41 41 39 40 40 38 39 40 43 43 42 42 46
48 49 47 46 46 45 45 49 46 46 45 45 45 45 35 27 34 34 36 37 38 44 44 45 45 43 36 31 39 43 44 43 42 43 41 40 39 39 38 39 41 42 41 42 43
48 49 47 47 47 45 44 46 48 46 46 45 44 40 35 31 32 35 38 38 37 42 42 46 48 47 38 29 33 40 41 44 41 44 38 41 39 39 38 36 39 40 40 41 42
47 49 48 46 46 46 43 44 47 47 47 46 44 38 32 34 36 36 36 37 39 43 42 49 48 45 44 31 33 36 39 38 40 42 40 40 33 38 40 38 36 38 39 38 41
48 47 47 46 46 46 42 44 48 47 46 46 42 36 28 40 35 34 36 35 37 43 47 48 45 42 38 32 31 34 30 37 39 39 39 39 33 36 42 39 38 38 38 37 38
47 46 46 46 46 46 43 45 45 46 43 39 36 34 34 27 33 38 38 40 38 41 43 43 38 37 35 32 27 26 25 27 34 38 38 37 33 37 38 38 37 36 36 36 36
47 45 46 46 45 44 44 42 39 37 36 31 28 29 29 34 38 38 38 38 40 40 34 37 32 34 31 29 22 22 21 18 27 35 36 37 38 38 35 38 38 35 34 34 35
46 46 46 44 44 44 45 38 32 38 32 33 33 33 34 38 36 36 41 36 38 34 37 35 31 35 32 27 24 21 22 24 25 38 36 34 35 35 35 36 37 37 36 34 34
46 46 44 44 45 42 41 35 40 39 33 34 37 36 36 40 37 36 40 38 37 34 34 32 35 37 34 29 25 22 23 27 29 32 36 31 29 31 35 37 36 38 38 35 33
45 43 44 46 42 41 38 38 42 40 32 32 36 37 38 39 37 44 43 39 36 35 33 33 38 35 37 26 25 22 24 23 26 31 25 30 19 25 29 32 37 37 36 37 36
42 44 46 46 40 38 40 41 42 39 23 33 37 41 38 35 38 39 41 40 33 34 31 33 34 34 36 27 25 25 26 28 31 29 22 28 23 17 21 25 30 33 35 35 37
43 46 47 41 42 42 42 42 40 29 22 32 36 34 31 34 36 39 39 38 37 35 35 36 38 39 36 31 29 31 31 30 29 23 21 21 19 13 18 21 19 23 27 31 33
46 44 44 42 39 43 42 40 31 25 31 29 34 36 34 30 31 34 32 32 31 28 29 35 35 39 38 31 31 27 26 21 19 22 19 22 18 17 22 23 24 24 25 27 29
46 45 45 44 44 44 42 34 26 27 28 32 35 36 33 35 34 31 31 30 34 30 31 30 28 32 33 29 29 25 21 19 14 15 15 22 18 16 21 23 25 25 24 25 26
45 44 43 44 44 44 39 30 29 30 33 29 31 33 32 35 33 33 32 30 29 34 31 31 29 37 35 33 30 29 27 25 22 19 16 18 17 20 23 22 23 21 22 22 22
43 42 41 45 45 43 38 30 33 32 34 34 28 34 31 33 33 34 32 35 33 35 35 35 30 35 35 34 33 31 28 22 26 18 10 14 13 10 17 19 21 23 25 27 29
42 38 44 45 45 40 33 33 33 34 34 29 32 33 33 33 33 31 33 36 36 35 34 32 32 33 33 32 30 29 28 27 25 23 18 9 9 18 18 21 22 24 28 29 31
41 34 44 45 38 37 34 34 36 32 33 31 34 33 32 32 30 30 33 36 37 35 31 31 33 30 33 35 36 30 26 25 21 23 21 21 17 20 21 22 23 26 28 29 30
37 35 44 44 32 32 34 34 34 32 30 29 31 31 28 30 30 31 33 36 38 34 33 31 32 27 29 30 33 32 30 29 26 29 26 20 16 22 23 22 24 27 28 29 29
37 32 37 40 37 33 31 31 31 35 31 30 29 29 28 28 30 30 33 37 37 35 34 32 29 28 23 25 27 28 28 29 28 27 23 22 20 22 22 23 24 26 30 30 30
34 30 34 31 31 30 34 31 30 30 32 31 28 29 27 26 28 30 33 34 36 36 35 33 30 28 26 29 31 30 27 27 28 29 26 23 22 24 25 27 28 29 28 29 30
26 28 32 31 31 31 32 31 31 32 33 30 29 30 28 28 30 28 32 32 31 34 34 32 29 29 26 26 27 27 27 28 27 28 28 27 26 27 28 28 27 28 29 30 30
31 31 28 27 28 28 27 31 33 34 35 35 34 31 32 33 33 33 32 30 32 33 32 32 29 28 26 24 23 20 22 24 26 27 27 25 25 26 28 30 33 34 33 32 32

GFSSW_sfc_30mbdewp_066.txt.gz
Dewpoint
49 49 47 46 50 47 45 46 46 46 46 46 46 46 47 47 46 43 41 40 42 49 49 48 48 46 49 48 51 49 41 36 37 35 32 39 40 43 43 45 46 46 49 60 64
48 48 48 48 46 49 47 46 47 46 46 45 45 45 47 47 42 36 37 40 46 47 46 46 45 44 47 45 48 46 41 39 39 37 35 39 39 42 42 44 43 50 59 62 64
49 49 50 47 47 46 49 46 45 48 46 46 45 45 45 46 38 37 46 46 46 49 46 48 47 44 44 44 46 45 40 42 41 42 39 38 38 41 42 41 43 43 53 61 62
49 49 50 48 47 46 46 49 44 46 47 46 45 46 45 43 29 41 45 44 45 48 48 47 43 44 41 41 44 43 43 41 42 44 41 39 40 39 42 42 42 43 45 58 61
49 48 49 48 48 47 45 45 48 47 46 45 45 45 41 35 31 40 39 37 39 46 46 44 41 43 40 40 40 43 42 42 42 46 42 41 40 40 42 43 44 43 43 46 57
50 48 49 49 47 47 46 44 45 49 46 46 45 45 40 29 32 33 36 36 36 44 45 44 41 43 39 39 38 43 43 41 45 46 47 39 39 39 39 40 41 42 42 43 45
49 48 49 49 47 46 47 43 44 47 47 47 45 42 37 32 31 32 34 36 37 37 42 44 42 42 44 36 36 41 41 43 44 46 42 40 37 38 39 39 39 41 41 42 43
49 48 48 48 47 47 47 42 44 46 49 47 46 41 34 33 36 34 34 35 38 41 42 47 45 45 44 40 32 37 40 38 39 45 46 40 37 39 38 38 40 40 40 40 42
49 48 47 47 47 47 46 42 44 47 47 46 44 40 30 38 34 32 35 34 35 42 45 45 46 41 41 39 29 34 35 36 35 40 45 42 37 38 39 42 40 39 38 39 39
48 47 46 46 46 46 45 43 45 45 45 41 37 33 34 29 34 37 38 38 37 41 41 40 39 36 36 36 27 29 33 37 34 38 42 40 36 39 41 42 41 39 38 38 38
47 47 46 46 46 45 44 44 41 38 39 34 31 30 28 32 37 38 37 38 39 38 34 37 33 31 34 36 29 30 31 36 37 41 40 40 37 34 39 41 41 39 38 38 39
47 47 46 45 43 46 43 41 35 38 33 35 32 33 33 40 36 35 40 36 37 33 37 33 30 35 38 36 28 26 26 28 36 39 38 35 36 37 37 38 37 38 37 35 36
46 46 44 44 46 43 40 41 39 39 34 34 36 36 35 39 37 37 39 38 36 33 33 33 34 38 39 33 26 22 21 27 35 38 41 35 34 34 36 37 36 37 38 37 37
46 44 44 46 44 41 38 39 41 40 31 33 36 37 37 39 37 42 42 40 36 32 36 35 37 38 36 34 26 22 25 30 32 32 29 33 23 30 32 33 36 37 37 38 38
44 43 44 46 42 39 40 41 42 40 22 33 37 40 39 35 37 39 41 41 35 36 35 34 35 35 33 25 23 23 24 27 30 29 25 29 26 21 27 28 33 36 37 37 37
45 45 46 42 41 43 42 42 41 30 20 31 35 33 32 34 36 38 40 44 37 35 37 37 39 38 39 32 30 29 29 30 30 29 23 24 25 18 22 25 26 35 37 36 36
46 44 44 42 42 43 42 41 30 25 30 30 33 34 33 35 34 32 32 34 31 28 30 35 35 38 40 32 32 31 27 23 21 21 20 22 21 19 22 22 23 24 27 29 33
45 45 43 43 44 43 42 36 25 25 29 32 34 35 32 34 29 29 29 30 32 34 31 29 26 36 37 30 29 30 24 21 14 18 20 22 18 19 23 24 25 24 24 26 26
45 45 43 44 44 44 40 29 29 30 31 29 36 31 31 33 31 32 31 30 29 34 31 30 30 39 36 33 32 26 25 25 24 18 20 21 19 22 24 23 23 22 25 27 27
44 43 41 45 45 44 37 30 31 33 34 33 29 33 31 30 31 32 31 33 31 33 35 34 28 35 34 35 33 33 29 22 24 14 12 16 15 16 21 20 23 26 28 30 31
44 39 44 45 45 41 33 32 33 34 33 31 31 31 33 32 33 30 31 35 34 33 34 35 31 32 34 32 29 30 32 28 26 24 21 15 14 18 20 22 24 27 29 29 31
41 35 44 45 37 36 33 32 35 32 33 32 33 32 33 34 30 32 32 35 37 34 31 32 34 30 32 35 35 34 27 27 24 23 22 21 19 20 23 23 23 27 28 30 31
38 38 43 43 32 32 33 34 34 31 30 29 31 30 30 31 29 33 34 37 35 34 32 32 32 27 29 31 32 33 31 29 27 29 27 21 18 23 24 23 23 26 28 30 30
37 32 38 40 37 34 30 30 31 34 31 30 29 29 28 28 30 31 33 36 37 35 35 33 32 30 26 27 30 29 30 29 29 27 25 24 22 22 23 24 26 29 29 28 29
37 33 34 31 32 33 33 30 28 30 32 30 28 29 27 27 29 31 33 36 37 36 35 34 29 26 26 29 31 30 28 28 28 29 26 26 25 24 26 27 28 28 29 31 32
31 31 34 31 30 31 32 31 28 32 34 29 29 29 28 29 30 29 31 32 32 34 34 32 29 28 26 26 27 27 27 28 27 29 28 28 27 28 29 30 31 33 34 34 33
32 32 31 31 30 29 29 31 32 34 35 35 33 32 32 33 33 32 32 30 33 33 33 32 29 27 25 24 22 20 23 26 27 28 27 26 27 28 31 33 34 35 34 32 32

GFSSW_sfc_30mbdewp_069.txt.gz
Dewpoint
50 49 49 48 48 47 48 48 46 47 47 46 46 45 46 47 47 43 42 43 43 46 47 48 47 48 46 48 50 50 40 37 37 38 37 39 36 42 43 46 50 52 55 60 63
49 50 50 50 48 47 46 48 47 45 48 47 46 46 45 45 44 42 40 41 45 47 45 45 43 47 44 46 48 47 40 38 38 40 40 40 37 40 44 44 54 59 62 64 65
50 49 49 51 49 47 46 46 49 45 46 47 46 46 46 45 42 38 46 45 46 50 46 45 45 45 43 45 45 45 40 42 41 43 43 41 38 42 43 42 45 56 60 63 63
51 50 49 50 50 48 48 46 45 48 47 46 46 46 45 43 27 42 46 43 44 47 45 44 45 42 40 41 44 43 43 41 43 43 45 40 40 40 44 42 45 57 61 62 62
51 51 49 50 50 48 48 47 44 46 49 47 46 45 43 38 37 44 41 37 38 45 42 43 42 41 37 40 41 42 43 43 42 45 46 46 39 41 42 42 42 45 60 60 61
50 50 49 49 49 48 46 47 44 44 47 48 47 45 42 34 35 38 36 36 36 41 44 46 40 43 41 41 40 41 42 43 45 45 48 46 41 42 43 43 42 42 50 58 59
49 50 49 48 48 48 47 47 44 43 46 49 46 44 39 38 35 33 34 34 38 38 41 44 42 41 41 38 40 40 40 43 45 45 44 47 41 39 42 42 42 41 42 45 51
49 50 49 47 47 47 47 46 44 42 45 48 46 43 36 37 36 34 34 35 37 39 42 45 46 43 41 41 38 36 38 38 43 47 46 43 37 41 42 39 40 41 41 42 43
49 49 48 46 46 47 47 46 43 44 47 47 45 42 34 38 35 35 35 34 35 41 45 44 44 42 43 37 35 35 33 35 39 45 44 45 38 40 41 39 38 40 40 40 41
49 48 48 47 47 46 45 43 45 46 45 43 43 38 34 30 36 37 38 38 37 40 41 40 38 36 36 36 29 31 33 34 36 39 42 40 39 41 40 40 38 38 39 38 38
48 48 47 47 46 42 44 42 41 39 41 35 35 33 32 38 38 37 38 38 39 38 33 36 32 30 33 35 36 31 32 35 35 38 37 39 39 38 40 40 39 39 38 38 38
47 47 46 45 44 46 43 40 37 38 32 37 35 34 34 41 36 36 40 36 36 32 36 33 29 34 36 36 35 32 35 35 38 40 36 37 37 40 40 40 41 41 40 39 38
46 46 45 44 46 45 40 41 41 40 35 34 35 37 37 40 37 37 40 37 35 33 34 31 33 37 36 36 36 32 32 34 34 38 39 38 36 38 39 37 38 39 39 38 37
46 45 43 44 44 42 40 41 41 41 29 32 36 38 38 40 36 40 41 39 36 32 32 34 38 37 35 35 34 27 28 33 35 36 31 38 28 35 35 35 36 36 37 38 38
45 44 43 45 42 40 41 42 42 40 19 33 36 40 39 36 36 38 44 39 33 35 37 33 35 37 35 34 34 28 31 35 37 34 30 32 27 23 34 33 34 34 36 38 38
45 45 46 43 42 43 42 41 41 28 18 32 35 34 34 36 37 38 41 42 40 36 36 35 40 39 37 37 30 34 32 32 32 30 24 29 26 20 28 31 32 35 37 37 37
46 45 45 42 42 43 42 41 30 22 29 31 31 34 35 35 35 36 35 34 31 27 30 34 36 37 40 32 32 32 28 26 23 21 19 22 23 23 22 25 27 34 33 35 36
46 45 44 44 44 43 42 36 21 23 30 35 34 34 31 33 30 30 30 29 33 33 31 27 26 36 37 32 29 27 23 19 14 19 20 22 18 18 23 25 23 24 25 25 24
46 44 44 44 44 44 39 28 25 30 32 34 35 31 29 32 32 32 31 29 31 34 31 30 30 37 37 35 32 28 25 25 21 20 19 20 20 22 24 23 25 27 28 29 30
44 43 43 45 45 43 36 30 31 33 34 34 31 34 29 27 30 32 32 34 32 35 38 33 29 36 34 34 32 30 28 21 23 13 14 19 16 16 21 24 27 28 29 30 32
44 40 44 45 45 40 30 29 32 34 33 32 31 32 30 30 32 31 31 34 34 32 34 34 30 31 33 33 31 30 28 28 26 25 20 13 14 18 21 26 27 28 29 30 31
42 35 44 45 36 36 34 30 34 32 33 32 34 33 34 33 30 32 31 35 36 34 31 33 33 28 31 35 34 34 31 29 22 21 23 21 16 23 24 27 27 28 29 31 31
38 39 44 44 30 32 34 33 35 32 31 30 32 30 34 31 29 33 33 37 36 35 32 33 29 26 26 28 31 32 32 30 29 28 25 15 17 24 23 22 24 27 29 29 30
35 33 39 41 37 34 32 33 33 34 31 30 30 30 28 29 32 32 31 36 37 36 34 33 32 26 22 24 29 30 31 31 28 25 25 25 20 22 24 25 27 28 30 31 32
37 32 34 32 33 34 33 32 31 30 33 31 29 29 28 29 30 32 32 36 36 36 34 34 28 26 28 29 30 29 29 30 29 28 25 24 25 27 28 28 30 33 35 34 32
35 33 34 32 32 33 32 31 30 33 33 29 29 31 31 31 31 29 32 33 33 34 34 32 28 27 25 26 26 27 28 28 29 29 29 28 27 28 31 34 34 35 33 32 33
33 32 31 32 31 31 31 30 33 34 35 34 34 32 32 32 32 32 31 32 33 33 33 31 28 26 24 23 22 20 23 26 28 28 29 27 28 32 33 33 34 35 36 36 35

GFSSW_sfc_30mbdewp_072.txt.gz
Dewpoint
50 50 51 51 50 48 46 47 49 47 47 48 47 46 46 46 46 45 40 42 45 47 47 47 45 46 48 47 49 50 42 36 37 34 33 36 38 42 45 47 56 58 58 58 59
50 50 49 50 51 50 47 45 46 49 46 48 47 46 46 46 44 42 43 43 44 47 45 43 42 43 44 45 45 46 41 39 38 40 37 41 40 41 45 50 56 59 62 60 61
50 51 51 50 51 51 49 47 45 46 49 47 47 46 46 45 41 39 46 45 45 47 45 44 43 42 41 43 44 43 40 41 39 41 43 43 41 42 44 45 53 55 59 61 62
50 50 52 50 50 50 49 48 47 45 46 49 48 46 45 43 14 41 46 43 42 48 45 42 42 40 37 39 42 40 42 42 43 43 43 43 44 43 44 43 49 58 61 61 61
51 50 51 50 50 49 48 47 47 45 45 48 49 46 44 38 36 44 42 38 37 44 41 40 39 38 37 39 40 40 42 43 43 45 47 47 44 44 42 46 56 60 61 60 61
51 50 51 51 49 49 48 47 46 45 44 47 49 46 42 31 36 42 38 36 36 42 42 42 40 39 39 40 39 41 41 42 44 43 46 45 45 44 42 43 53 58 59 60 61
51 50 50 50 48 47 48 47 47 44 43 46 49 46 40 34 37 37 36 34 37 38 41 42 42 42 41 38 41 40 38 41 43 44 44 47 43 41 43 43 42 50 55 58 59
52 50 50 49 47 46 47 47 47 44 43 45 48 44 35 38 39 37 34 33 37 39 40 43 44 42 39 40 39 37 38 35 40 43 45 45 39 42 44 42 41 43 46 51 56
52 51 49 48 47 46 47 46 44 44 45 47 45 42 35 38 37 35 35 34 34 39 42 44 43 40 40 37 34 36 31 34 39 44 46 41 40 42 44 41 40 41 41 42 46
52 51 49 48 47 47 44 44 45 46 45 44 43 39 37 31 36 37 38 38 37 39 39 39 37 35 35 34 28 29 32 33 36 42 41 41 40 43 43 42 40 39 40 40 40
52 50 48 47 47 43 45 40 41 39 40 35 35 34 33 37 39 37 38 38 40 37 32 36 31 29 33 35 35 34 33 33 37 42 39 40 38 40 42 41 40 39 38 38 39
51 49 48 46 44 45 44 38 37 37 30 36 38 36 36 40 36 37 40 35 35 31 35 32 29 31 37 36 36 35 32 33 36 40 39 39 38 41 43 42 40 40 39 38 38
51 47 47 44 45 45 40 40 42 40 33 35 37 36 37 39 38 37 39 37 34 31 32 30 32 34 35 34 35 36 32 34 35 38 39 37 35 37 40 40 40 40 41 41 40
50 47 46 44 42 42 40 41 42 40 27 33 36 37 39 40 36 40 42 38 37 32 33 32 38 35 35 33 35 33 36 34 36 36 31 36 28 34 36 37 38 38 38 39 39
49 46 44 44 42 40 41 42 42 38 16 33 35 40 40 37 37 38 44 40 34 33 33 32 36 35 34 35 37 28 35 34 35 33 33 33 29 25 34 34 35 36 36 37 39
47 46 45 45 43 43 42 42 40 25 17 31 35 33 34 36 37 39 39 42 39 35 36 35 39 38 37 37 36 34 35 35 33 33 27 29 30 21 26 32 33 35 35 36 38
46 46 45 41 39 43 42 40 26 18 26 31 31 33 34 33 35 36 36 35 33 29 29 33 36 40 41 35 35 33 31 27 26 25 22 28 28 22 23 24 32 33 34 36 37
46 46 45 43 44 43 42 34 19 22 30 34 33 34 31 33 31 32 30 28 34 33 31 29 28 35 38 33 34 30 24 20 19 20 20 22 23 19 23 24 27 29 27 26 26
47 44 43 44 44 44 37 26 21 26 32 34 34 29 28 30 32 31 31 31 33 35 29 28 30 37 36 34 31 29 26 25 20 21 18 20 20 23 23 25 27 28 29 30 31
44 43 42 45 45 43 33 29 30 33 35 37 31 34 26 27 29 30 32 34 32 35 36 32 28 35 35 32 32 28 28 21 21 15 14 19 17 19 22 26 28 28 29 30 31
43 39 44 45 45 40 29 29 31 34 33 33 32 30 30 28 31 31 31 33 34 32 35 32 29 30 32 33 32 28 26 27 25 23 15 15 14 19 23 26 26 28 30 30 31
42 35 45 45 36 36 32 31 33 33 33 33 34 33 29 31 32 31 32 35 37 34 32 35 30 28 31 34 35 34 30 27 18 19 23 19 16 23 24 27 28 29 30 31 32
39 39 45 43 30 30 33 31 35 32 31 31 33 32 35 32 30 32 33 37 36 34 32 32 28 24 24 26 31 31 31 30 29 27 22 14 18 23 25 25 28 28 29 30 31
37 33 40 41 37 33 33 32 33 34 31 30 30 29 30 30 33 31 31 35 37 35 34 34 30 23 20 23 28 29 30 31 27 23 24 24 20 23 26 26 28 32 33 33 32
36 32 35 30 33 34 33 33 32 30 33 31 29 29 29 30 30 31 33 35 36 36 34 33 28 27 28 28 30 29 29 30 28 27 22 23 21 27 27 29 33 35 33 32 33
36 32 34 32 32 33 33 32 30 33 31 29 29 31 31 29 30 29 32 33 33 34 34 32 28 26 25 26 25 26 28 29 31 29 29 28 27 29 32 35 34 34 36 36 36
36 34 32 32 32 32 31 31 32 34 34 34 33 32 31 31 32 32 33 33 33 33 33 31 28 25 23 23 21 20 22 26 28 29 29 28 29 33 33 34 34 31 30 30 31

GFSSW_sfc_30mbdewp_075.txt.gz
Dewpoint
51 51 51 50 50 52 49 47 46 47 48 47 49 48 46 46 46 44 39 37 45 48 47 46 45 44 45 47 47 48 41 36 38 37 36 35 33 41 46 49 55 55 57 57 59
52 52 52 51 51 52 51 50 46 45 47 48 47 48 46 46 44 40 43 43 45 45 46 43 42 42 41 43 43 42 37 35 40 41 35 38 39 40 46 52 55 57 60 60 61
53 52 51 52 52 50 50 50 50 45 46 47 49 48 47 46 38 36 47 46 45 47 44 44 43 41 39 40 41 40 37 37 39 41 43 43 42 42 44 47 52 53 57 61 61
54 53 51 53 50 50 49 49 48 47 46 46 49 48 47 43 9 39 46 43 42 47 44 41 41 37 37 35 38 38 39 41 40 41 43 42 45 42 44 44 51 57 57 58 60
56 54 52 52 51 50 49 49 47 46 47 45 48 49 42 37 34 39 45 41 40 45 41 39 39 37 33 37 38 37 39 40 43 42 45 47 45 45 44 48 57 60 58 57 60
57 55 53 51 51 49 48 48 47 46 45 44 48 47 40 32 33 37 42 36 36 42 41 41 40 40 36 33 37 38 38 40 42 43 44 42 46 45 44 45 56 59 58 59 59
58 55 53 52 51 49 47 47 46 46 44 43 46 46 40 36 37 38 37 35 36 38 41 41 42 39 38 34 35 38 38 37 40 44 43 45 42 42 45 46 53 55 57 58 60
59 56 53 52 50 47 46 46 47 46 44 43 47 44 33 38 40 38 37 36 36 38 40 42 42 39 39 39 38 37 38 31 36 42 43 42 36 44 46 45 45 52 54 57 58
57 55 54 51 48 47 47 46 45 44 44 45 45 41 33 40 38 37 35 34 35 39 40 42 41 39 38 32 34 34 31 31 35 42 43 43 38 46 47 44 43 44 44 47 53
56 55 52 50 48 47 45 45 45 45 45 45 44 39 38 31 36 36 37 38 37 37 38 39 37 32 34 31 26 27 30 31 33 40 40 42 38 44 47 43 41 41 42 41 42
57 53 52 50 47 46 45 40 41 39 40 36 35 35 33 36 39 37 39 39 38 37 31 35 31 28 32 34 35 31 32 31 37 41 40 41 37 40 44 45 42 41 40 39 40
56 52 51 49 46 45 43 37 37 37 32 37 39 38 37 39 36 37 40 34 36 30 33 31 28 31 35 36 36 32 33 33 36 40 40 38 39 42 43 44 42 41 41 39 38
55 52 51 47 44 45 41 38 42 40 32 33 37 36 37 38 37 37 39 37 33 29 29 29 30 32 35 35 34 34 31 34 34 36 37 37 35 38 42 44 42 41 41 41 40
54 51 49 46 41 42 39 40 42 39 25 31 36 37 39 40 36 40 41 37 36 31 31 31 34 32 33 33 33 30 35 35 36 34 30 36 28 36 37 39 39 39 40 39 41
53 50 48 45 41 40 40 42 42 35 15 31 35 40 40 37 36 38 44 39 32 33 33 31 34 34 30 31 34 31 36 36 35 33 33 34 29 27 35 35 37 39 38 38 38
52 50 47 45 44 43 42 42 39 24 15 31 34 33 35 36 37 40 39 41 38 33 33 34 39 35 33 36 37 37 36 35 35 32 27 31 29 21 30 32 34 36 36 36 37
51 49 47 45 39 42 43 39 26 20 25 31 30 33 33 33 34 35 36 35 33 29 30 35 36 39 38 36 38 36 33 27 25 24 24 29 30 26 23 27 30 32 33 35 36
50 49 47 41 44 43 41 32 20 20 28 34 32 33 31 32 31 33 30 32 35 34 31 28 27 36 38 34 33 31 26 26 20 21 21 25 25 20 24 26 30 33 32 30 31
49 47 44 45 43 43 35 25 20 23 33 32 32 27 26 30 32 31 32 32 34 36 30 30 30 37 37 35 32 29 24 25 21 21 23 22 20 23 25 27 28 28 29 29 30
45 43 43 45 44 41 32 27 30 32 37 35 28 29 24 27 28 30 30 33 33 34 35 31 29 33 34 33 31 29 27 21 22 18 14 19 18 19 22 26 28 29 30 31 32
43 39 44 45 44 39 29 28 30 34 35 35 32 32 30 27 30 30 30 31 35 33 35 31 29 30 31 32 31 27 25 26 25 22 16 15 15 19 23 27 27 29 30 31 32
42 34 44 45 36 34 29 32 33 33 33 33 34 30 28 31 29 31 31 34 36 35 32 34 29 27 30 34 35 34 30 25 17 19 21 17 16 24 24 28 29 30 30 30 31
39 38 45 43 29 31 33 30 34 32 31 32 33 33 33 31 29 31 32 37 36 34 32 31 27 23 24 25 30 31 31 29 27 25 21 14 18 25 27 29 29 28 30 33 33
38 32 39 41 37 30 31 30 32 34 31 30 30 29 33 31 33 31 31 35 37 35 35 33 29 22 19 22 28 28 30 30 26 21 23 21 21 26 24 27 30 33 33 32 32
39 33 35 31 33 34 33 30 31 30 32 30 29 29 29 30 31 30 33 35 35 35 33 31 27 27 27 28 30 29 29 30 27 25 21 24 21 27 27 30 34 34 34 35 35
36 33 33 31 32 33 34 32 29 32 31 29 29 31 30 29 29 28 31 32 32 34 32 31 27 25 24 24 24 27 28 30 30 28 27 26 26 29 33 34 34 35 34 30 30
40 37 33 32 32 32 32 32 31 33 33 33 32 31 30 31 32 33 33 34 33 33 32 29 26 24 23 22 21 20 22 27 29 30 29 28 29 33 33 34 31 27 26 26 28

GFSSW_sfc_30mbdewp_078.txt.gz
Dewpoint
55 55 53 52 52 51 52 52 50 47 46 50 47 49 48 47 47 43 34 34 45 47 48 46 45 44 43 45 46 47 38 33 34 37 37 37 35 36 45 44 51 54 53 55 57
56 56 54 53 52 53 52 50 51 49 46 46 48 48 48 47 45 39 39 42 42 46 43 43 42 42 40 42 42 41 36 33 34 36 37 38 38 36 40 48 51 55 59 55 59
58 56 55 54 52 54 51 50 49 50 47 46 46 50 49 46 34 25 46 45 45 47 43 43 43 41 38 40 41 39 35 35 35 38 41 41 42 43 41 42 51 49 57 55 57
60 58 57 55 53 53 51 50 49 49 47 47 46 49 48 42 23 37 46 45 43 45 43 41 42 38 36 35 38 36 37 38 38 39 40 40 44 44 46 44 46 54 57 56 57
59 60 58 55 54 53 52 49 49 48 47 46 45 50 41 37 33 35 45 43 43 45 40 38 38 37 34 35 36 35 36 39 39 38 42 39 40 44 44 46 51 56 58 54 57
57 58 58 56 54 54 50 48 47 48 47 45 45 49 40 34 34 36 37 39 37 42 40 41 38 40 37 35 33 36 36 36 38 40 40 41 40 46 43 48 50 57 58 56 59
55 57 59 56 54 53 50 47 46 47 46 43 44 47 41 37 37 36 38 36 36 40 39 41 41 38 38 34 34 33 33 37 36 36 41 41 40 43 47 47 47 56 56 58 59
53 56 57 55 53 52 48 46 47 46 46 44 44 44 37 38 40 38 37 36 36 37 40 42 42 38 37 37 35 33 31 29 35 36 42 42 33 41 47 45 46 47 53 55 59
49 54 56 55 53 51 48 47 46 45 45 44 45 40 30 40 40 39 37 34 34 37 39 42 40 37 37 32 30 30 26 28 31 36 39 40 38 45 46 44 43 45 46 47 54
50 53 57 54 52 50 48 44 46 45 46 45 43 38 38 32 35 36 37 38 37 36 36 38 38 32 32 30 22 23 28 32 30 36 38 40 39 46 46 44 44 43 43 44 45
49 52 56 53 51 49 45 42 40 38 40 32 33 35 34 36 38 37 40 39 37 36 31 35 31 27 29 32 32 31 28 30 33 37 38 38 38 41 46 45 44 44 43 42 42
48 51 54 51 50 47 43 37 39 36 33 38 38 38 38 38 35 37 40 35 36 30 32 31 27 30 32 34 33 32 29 32 36 36 37 36 37 41 43 43 45 45 43 42 42
47 50 53 51 49 47 42 38 42 40 29 32 37 36 36 38 36 36 38 36 33 31 29 27 27 32 32 32 31 33 29 33 33 36 37 34 31 36 41 43 44 46 43 42 42
47 47 52 49 44 43 41 42 42 37 24 30 35 36 38 39 36 40 41 37 34 30 30 30 31 33 33 32 34 29 36 35 35 32 29 35 27 35 38 40 41 42 43 41 41
45 45 51 46 42 40 42 42 41 34 12 29 35 40 40 38 37 39 43 38 31 33 33 30 31 32 31 32 34 34 37 35 34 32 32 32 30 30 36 35 39 41 42 40 40
45 47 50 46 45 44 43 42 37 22 13 31 35 35 36 37 37 39 39 41 38 33 32 32 38 35 30 35 38 38 35 35 34 32 25 30 30 24 34 34 37 40 42 40 41
44 47 48 46 41 45 43 38 26 19 23 30 30 32 33 33 34 36 36 33 31 28 29 34 35 37 37 33 38 36 30 25 23 23 24 32 30 27 24 25 32 36 38 38 37
44 47 48 46 45 44 40 31 20 19 27 34 31 33 31 31 31 33 33 32 35 34 31 28 25 35 37 36 34 33 32 26 20 20 24 28 23 22 25 28 29 29 35 35 35
48 48 46 45 45 43 36 25 17 23 32 31 31 26 25 29 31 30 32 33 35 36 29 29 30 38 38 36 33 29 28 27 23 22 24 23 21 23 27 29 29 29 30 30 31
45 43 42 47 44 40 33 26 27 31 35 32 25 27 23 26 28 29 29 33 33 36 37 32 29 32 33 33 31 26 27 20 24 19 18 21 18 19 24 27 29 30 31 32 33
42 37 44 47 44 38 29 27 31 34 36 33 30 29 28 27 30 30 30 31 36 34 34 30 29 30 31 32 31 27 25 25 24 22 16 18 16 21 23 28 29 30 31 32 33
40 32 45 46 35 35 30 30 32 34 34 34 32 30 28 30 28 30 30 34 36 35 31 32 29 28 30 33 34 34 29 23 17 19 19 16 16 26 25 29 30 30 31 32 32
36 38 45 43 30 31 32 31 34 31 32 33 33 31 31 31 29 31 32 36 36 34 32 31 26 23 22 25 30 30 30 28 25 23 19 14 18 26 29 29 28 31 32 32 34
37 31 38 40 36 31 30 29 33 33 31 31 30 33 32 31 32 31 31 35 36 35 36 32 26 21 18 21 28 28 30 28 24 18 22 19 22 25 27 28 32 32 32 34 34
38 33 36 31 33 33 33 31 31 30 31 30 29 30 30 30 30 30 32 33 35 35 33 29 26 26 26 28 29 29 29 29 26 24 20 23 23 25 26 30 33 33 35 32 30
35 34 35 31 32 31 33 30 31 32 30 29 29 30 30 28 27 28 31 32 32 33 31 30 26 25 24 24 24 27 28 30 29 27 26 24 23 28 30 34 34 34 30 29 27
40 38 32 31 31 31 31 32 30 32 33 33 31 30 29 31 32 33 33 34 34 33 31 28 25 24 23 22 21 19 22 27 29 30 29 26 27 32 33 34 32 27 25 26 27

GFSSW_sfc_30mbdewp_081.txt.gz
Dewpoint
60 58 57 56 54 53 53 52 51 51 49 47 47 49 48 48 48 44 36 30 45 45 48 46 45 43 43 44 46 46 37 31 33 35 34 38 38 40 41 38 47 50 46 54 60
59 59 58 57 55 55 54 52 50 50 51 49 47 47 51 48 45 39 40 39 42 43 41 42 41 42 39 41 41 40 35 32 33 35 35 38 38 38 39 39 41 51 55 57 62
57 59 59 58 56 56 55 52 50 49 49 48 47 47 50 46 31 21 45 46 44 45 43 43 43 41 38 39 40 38 34 34 34 36 39 40 42 41 40 37 37 43 54 58 60
55 56 58 59 57 56 56 53 50 49 49 48 48 47 48 39 27 33 46 46 47 45 42 41 41 37 36 34 38 34 36 37 37 37 39 39 41 41 45 40 38 42 54 57 57
54 55 56 56 58 55 55 53 50 48 48 48 46 47 42 36 34 33 44 43 45 43 37 37 37 37 34 35 36 35 34 35 37 39 38 38 38 40 41 47 47 46 55 56 54
51 51 53 54 58 55 54 52 49 47 48 47 44 48 40 35 37 35 36 39 39 40 40 40 37 39 37 36 34 34 34 33 34 34 37 38 37 42 41 48 48 48 50 55 53
47 47 51 54 57 55 53 50 47 48 47 46 43 47 41 37 36 38 38 38 37 40 38 41 40 37 37 31 36 34 31 31 32 37 32 39 37 38 42 46 47 48 50 53 55
45 47 50 54 56 54 52 49 48 47 46 46 44 45 38 40 40 38 37 37 37 37 39 41 42 38 36 35 32 30 31 26 25 32 33 37 30 35 46 45 45 47 48 51 56
47 46 49 52 56 53 50 49 48 46 45 44 45 41 34 39 40 39 37 36 35 36 39 40 40 36 36 31 27 28 23 25 24 33 32 35 33 37 47 45 44 45 47 49 54
45 45 49 50 54 51 49 46 47 46 46 45 43 37 34 32 35 36 38 36 35 36 36 36 36 33 32 29 20 21 25 26 24 29 34 33 36 45 46 44 44 45 45 45 48
44 46 48 53 52 50 47 46 40 38 42 35 35 33 33 36 38 37 40 38 37 36 29 34 30 26 29 30 30 31 29 25 28 30 33 33 37 39 42 46 45 46 45 44 44
43 45 46 54 51 49 43 40 40 38 34 39 38 37 38 38 34 37 39 35 35 30 33 31 26 28 30 32 31 30 28 28 33 29 33 34 35 39 42 43 46 46 45 45 43
43 44 45 48 50 47 43 40 44 40 30 33 37 37 36 37 35 36 38 36 33 31 30 27 24 31 31 32 30 31 28 28 32 35 36 35 33 35 37 38 44 46 47 45 43
43 44 44 48 45 45 42 43 42 36 25 29 35 36 38 38 36 40 39 36 34 30 30 29 31 31 30 31 31 29 32 31 32 31 29 35 26 34 36 35 41 42 43 44 45
41 43 44 46 43 41 42 44 43 35 17 30 36 39 39 37 37 38 42 38 31 32 33 27 33 31 31 32 36 33 35 34 34 31 31 31 26 31 36 36 39 40 42 43 43
42 42 46 46 44 45 45 43 35 24 18 31 36 35 36 37 37 40 40 41 39 33 32 31 36 35 33 35 38 37 33 34 33 31 24 30 27 26 32 35 36 40 41 43 44
42 43 44 46 42 46 45 37 26 21 24 30 30 33 33 33 34 37 36 33 30 27 27 32 33 37 37 34 37 36 28 24 23 23 23 32 30 28 25 24 28 38 40 42 43
44 43 44 43 47 46 42 32 22 21 26 33 31 33 30 31 31 33 33 32 34 33 30 27 23 34 36 36 33 33 33 23 19 20 25 30 27 24 27 30 30 29 37 40 39
45 46 44 46 47 45 36 26 22 23 31 31 29 25 25 29 31 30 32 33 35 36 30 29 28 36 36 38 37 32 28 27 24 24 23 23 23 25 28 30 31 31 32 32 32
44 42 42 47 47 42 33 27 26 28 33 30 24 26 22 26 27 29 29 34 33 37 37 33 29 34 34 36 35 31 30 22 26 18 21 22 18 21 26 28 30 31 32 34 35
42 36 44 47 45 37 29 28 29 33 35 30 30 28 26 26 29 29 30 33 36 34 35 30 29 32 31 32 30 27 25 24 23 22 20 18 16 24 25 29 30 31 32 33 33
39 32 45 46 33 33 30 29 31 34 35 33 31 30 27 29 29 30 31 34 36 35 30 31 30 29 29 32 33 34 28 22 16 18 18 17 16 26 26 30 30 31 32 33 34
35 37 45 44 30 31 31 32 33 32 32 33 32 30 31 31 28 31 33 36 36 34 32 30 26 24 23 25 29 30 29 26 23 22 17 13 19 28 29 29 31 31 33 34 34
37 31 37 39 36 31 29 30 32 33 31 31 33 33 31 31 31 30 31 35 36 36 36 31 26 21 17 21 28 27 29 27 22 17 20 19 23 27 28 30 32 32 34 32 30
38 34 36 30 32 32 33 31 30 30 30 30 29 31 30 29 30 29 32 31 33 34 32 29 25 25 24 26 29 29 29 29 25 23 19 21 23 26 28 31 32 34 33 29 27
36 35 35 33 32 32 32 30 31 31 30 29 29 30 29 28 27 27 30 31 32 32 31 29 26 24 23 23 23 27 28 29 29 26 26 23 23 28 30 34 34 31 28 26 27
40 36 33 31 31 29 30 32 32 31 33 33 31 30 30 31 32 33 33 34 33 32 30 27 25 23 22 22 21 19 21 26 29 30 28 24 27 31 32 34 30 25 26 27 29

GFSSW_sfc_30mbdewp_084.txt.gz
Dewpoint
56 58 59 59 58 57 56 55 53 51 51 50 48 47 48 50 49 45 38 29 38 44 48 45 42 41 40 41 42 41 34 26 24 23 23 25 26 34 37 37 36 36 38 39 54
56 56 57 58 59 58 56 55 54 51 50 52 49 47 48 50 46 40 38 40 42 43 42 35 31 38 32 36 38 37 31 26 25 25 25 29 28 31 34 36 36 37 42 52 61
54 55 56 56 57 59 57 55 54 50 49 50 48 48 49 47 38 26 45 47 42 44 39 37 36 34 30 33 33 32 31 29 29 32 33 34 34 34 35 35 35 36 38 48 56
50 51 52 54 55 56 57 56 53 50 49 48 48 47 48 41 28 33 46 47 48 42 38 37 35 31 30 28 28 28 27 27 29 33 35 34 37 38 36 34 36 46 40 48 53
45 47 48 49 53 54 57 56 53 49 48 49 46 47 43 38 37 34 41 45 44 38 34 32 28 28 24 28 31 28 24 23 25 31 33 33 34 35 37 38 42 45 46 44 47
47 48 47 50 52 56 57 55 51 48 48 48 45 48 40 34 38 34 35 40 40 35 36 34 29 33 29 29 28 25 29 30 30 28 29 30 31 32 34 37 40 45 47 42 42
45 47 47 48 51 57 56 53 50 48 48 47 46 44 40 35 36 38 39 38 39 35 33 37 35 33 30 26 27 30 27 25 26 28 29 27 26 30 32 37 42 43 45 45 40
46 44 45 46 49 53 54 51 48 48 47 46 44 42 36 41 39 38 35 38 38 38 36 37 38 34 33 29 27 24 22 24 18 21 28 29 16 19 27 33 38 41 44 45 46
44 43 45 48 49 54 52 49 48 47 46 45 43 39 34 39 38 36 36 34 37 36 38 38 37 33 33 30 25 24 16 17 20 23 24 28 19 20 29 32 38 41 44 46 49
41 43 45 46 50 53 49 48 47 48 45 43 43 37 38 32 36 36 39 36 34 36 36 35 34 31 30 28 19 20 23 21 19 20 25 24 21 22 36 39 40 42 44 46 48
41 43 42 46 54 50 48 47 40 39 42 36 36 32 33 35 37 36 37 37 37 35 29 31 29 26 28 28 28 27 27 26 27 23 23 24 23 25 41 42 42 43 46 45 47
39 42 43 45 49 48 46 41 39 39 33 39 36 37 37 38 34 36 39 33 31 28 29 31 26 26 27 27 29 30 27 24 26 27 26 23 23 27 38 40 40 43 45 45 43
39 42 43 44 50 46 41 41 46 41 32 34 38 35 35 37 33 35 37 35 30 30 28 26 23 27 27 27 29 30 27 26 27 28 29 26 25 33 37 38 40 42 45 47 45
41 43 43 45 47 45 41 43 44 40 29 30 34 36 38 37 34 38 38 34 33 28 29 29 30 30 30 30 32 27 33 32 31 30 24 29 22 30 32 35 37 38 43 44 48
42 43 43 45 44 43 42 44 43 38 22 32 35 40 38 36 37 38 40 38 31 31 33 27 31 33 31 32 34 31 32 33 30 32 29 28 25 29 35 34 36 37 43 47 49
42 43 44 43 44 44 45 44 40 28 19 32 36 35 36 36 36 40 39 40 38 33 32 31 32 33 35 33 36 35 33 36 33 29 26 30 30 26 30 32 32 38 42 44 45
43 44 43 46 40 46 45 40 28 24 28 31 31 34 32 33 34 37 36 33 30 27 26 30 33 36 37 35 37 36 32 26 24 22 23 32 28 28 26 28 28 27 38 42 47
45 45 42 42 46 47 42 34 24 26 26 32 31 32 29 32 32 34 34 32 34 33 30 28 25 33 36 34 34 33 32 26 18 22 25 30 26 26 29 30 30 29 41 43 45
45 43 42 44 47 46 37 27 26 27 31 30 31 29 28 30 31 31 33 33 35 36 30 29 27 33 36 37 37 32 29 26 25 25 22 25 27 26 30 31 32 37 37 38 40
44 41 41 45 47 41 33 29 29 30 33 29 23 25 23 26 28 29 32 34 33 37 36 34 28 34 37 38 37 35 30 26 28 21 21 19 21 24 28 30 33 33 35 36 37
41 37 44 47 43 37 30 30 30 33 34 29 28 25 24 27 28 28 32 35 35 35 35 31 30 32 33 32 31 29 26 25 24 22 17 14 19 24 28 30 32 33 34 33 34
40 31 45 44 33 34 32 31 33 35 37 33 31 29 26 29 29 30 31 34 36 35 30 31 31 29 29 30 31 33 29 24 20 18 19 17 18 26 29 30 31 31 33 34 35
36 34 43 44 29 31 32 32 36 35 33 33 30 29 31 31 28 31 33 35 36 35 32 30 27 26 26 27 30 29 28 26 24 23 20 16 19 28 30 31 31 32 33 32 30
38 31 35 38 38 31 31 33 34 34 31 33 32 33 31 30 31 30 30 34 35 35 34 30 27 24 20 25 29 28 29 28 24 23 18 20 23 27 29 31 31 33 31 28 28
39 34 36 31 33 31 33 35 31 30 31 30 31 31 30 27 28 28 31 30 33 33 31 29 27 26 25 26 29 29 29 28 25 23 21 22 23 27 29 31 32 33 30 28 27
36 35 37 33 33 30 31 34 31 31 31 29 30 30 29 27 27 27 29 30 31 32 31 29 27 26 24 23 26 26 28 29 28 26 24 23 25 28 29 33 33 31 28 27 28
41 38 31 32 31 28 31 33 32 32 33 32 31 30 30 31 33 34 34 33 33 32 29 28 28 27 24 22 22 20 22 26 29 30 27 23 27 30 31 33 32 28 27 28 29

GFSSW_sfc_30mbdewp_087.txt.gz
Dewpoint
53 55 56 57 58 59 59 57 56 54 52 51 50 48 48 49 51 47 40 37 34 43 48 39 37 35 34 36 38 38 32 25 23 22 20 21 19 24 28 30 31 31 33 34 56
52 54 54 54 56 57 57 59 56 54 50 50 51 48 48 50 45 40 42 44 39 44 38 34 29 33 28 29 33 34 29 24 23 21 19 20 22 22 22 26 29 33 35 37 55
47 47 49 49 51 53 56 59 57 54 50 50 49 48 49 48 39 28 47 48 41 44 40 34 30 28 25 27 29 29 28 26 25 24 28 29 30 31 26 27 27 29 31 36 47
48 48 48 48 48 50 53 55 57 53 50 50 49 47 49 42 28 37 48 46 47 41 36 33 31 28 25 22 26 24 24 25 25 26 27 31 31 31 31 31 30 37 43 43 40
46 46 48 48 47 50 52 54 57 53 50 49 48 48 44 37 34 38 43 47 41 35 31 28 24 23 22 20 23 23 24 22 20 20 23 27 28 30 30 33 34 34 41 43 42
43 46 45 47 46 49 52 56 55 51 49 50 47 47 40 32 37 34 32 43 39 35 31 30 25 26 26 22 22 21 21 23 26 25 23 23 24 25 27 30 32 35 37 41 42
42 43 45 45 46 49 50 56 54 50 49 48 47 44 38 33 36 35 34 33 38 34 30 33 32 30 25 23 23 22 22 23 20 20 23 26 24 23 22 25 29 31 35 42 44
42 41 44 44 45 48 48 56 51 49 49 48 47 41 34 39 39 38 35 34 37 35 34 34 35 33 31 29 27 23 21 17 16 14 17 22 20 20 19 17 24 30 34 39 43
38 39 42 43 44 47 53 51 49 49 47 46 43 39 31 41 37 35 33 33 35 35 35 35 35 31 30 28 26 24 21 16 14 16 16 19 19 19 18 16 18 26 30 36 42
39 38 41 43 48 51 50 49 49 47 46 44 41 36 35 31 34 35 35 34 34 33 34 35 33 29 29 28 18 16 20 20 18 18 17 19 19 20 18 15 23 24 29 36 42
41 39 40 42 45 51 48 45 40 40 41 36 35 32 33 34 35 35 36 34 34 33 28 29 30 26 26 25 24 24 22 19 20 21 26 22 17 17 17 34 29 30 34 38 42
42 41 41 43 45 49 46 41 39 41 37 38 36 35 34 35 34 36 37 34 32 28 27 29 26 26 25 24 24 25 25 24 25 24 23 28 17 19 18 33 38 37 41 43 43
42 41 43 44 48 49 44 42 46 43 34 35 36 34 34 35 32 35 36 33 30 27 27 27 25 27 26 25 25 27 28 26 27 26 28 23 18 18 19 33 39 39 42 45 45
43 42 43 44 45 45 42 43 46 43 32 31 34 35 36 36 33 36 37 34 30 28 27 27 29 29 29 30 32 27 29 32 31 28 21 23 13 15 24 32 36 37 38 44 46
43 43 42 44 41 42 44 43 44 40 22 31 33 37 37 34 36 37 38 36 32 34 33 27 28 29 30 32 35 30 36 33 30 27 29 22 21 18 26 29 32 34 38 42 45
44 44 43 41 41 42 45 43 40 28 23 32 35 35 34 34 35 39 39 40 38 34 35 32 33 31 31 34 37 38 33 33 31 29 25 29 29 26 28 31 32 37 37 44 49
45 42 42 43 38 45 44 40 28 24 30 30 30 33 30 31 33 36 35 33 30 27 28 30 31 33 35 35 36 37 34 26 24 26 21 29 31 27 28 29 29 29 39 47 48
45 45 43 41 44 46 41 33 24 27 31 30 30 30 27 30 32 36 35 31 35 34 30 27 26 31 33 33 34 33 33 28 20 21 24 32 29 31 31 29 30 33 46 47 44
45 42 41 42 45 46 37 27 27 30 29 27 28 27 28 29 33 32 32 33 35 33 30 30 28 33 36 37 37 32 32 33 30 28 27 30 31 31 37 34 39 42 43 42 43
43 40 40 42 47 42 33 29 30 32 30 26 21 22 23 26 30 30 31 35 34 37 36 34 29 35 35 37 36 35 33 26 27 24 20 21 23 26 34 35 37 37 37 38 40
40 37 43 47 43 37 30 31 35 34 30 27 24 22 23 26 28 28 31 35 37 36 36 33 31 33 36 34 31 31 26 25 24 21 22 14 22 27 31 37 34 34 35 37 38
38 32 43 44 33 35 32 34 36 36 35 31 28 25 25 28 28 28 29 32 35 34 30 30 30 28 28 30 31 32 26 23 20 17 19 17 22 29 31 34 33 33 35 35 35
36 36 43 44 29 32 32 36 37 36 33 31 27 28 30 29 27 30 31 34 34 34 32 30 27 27 26 28 30 28 26 24 22 25 17 19 22 29 30 31 32 31 30 30 30
37 31 37 39 37 31 31 34 36 35 31 31 31 31 29 27 29 29 29 33 34 33 33 32 27 26 22 27 29 27 26 23 24 22 18 20 25 28 29 31 32 30 29 29 29
38 34 36 32 31 29 34 36 29 30 31 30 29 29 27 24 26 26 28 28 30 33 31 30 29 27 25 26 29 28 27 25 25 21 19 21 23 27 29 30 32 30 29 28 29
34 34 35 32 31 29 34 29 28 31 31 28 28 28 26 26 25 24 26 27 27 30 30 29 28 27 25 24 26 24 25 26 27 26 22 23 25 28 29 31 32 30 29 29 29
40 38 29 30 28 27 31 32 31 32 32 32 30 29 30 32 33 33 33 32 31 30 28 28 29 29 25 23 22 21 21 25 28 29 28 22 27 28 30 32 32 30 29 29 30

GFSSW_sfc_30mbdewp_090.txt.gz
Dewpoint
49 51 53 53 54 55 56 58 59 55 54 52 52 50 49 49 49 49 46 38 38 42 45 37 37 34 33 32 37 37 33 30 28 26 25 25 21 21 21 24 28 28 30 32 59
48 49 50 50 51 51 52 56 57 58 55 51 52 51 49 49 46 42 44 43 41 45 40 34 29 32 31 29 31 35 32 31 28 25 23 22 22 26 27 22 24 28 31 33 59
43 47 48 49 48 49 50 52 55 58 54 51 51 49 48 48 43 37 47 47 39 42 40 34 30 27 26 26 28 29 31 32 28 27 27 27 28 30 30 30 31 26 29 31 35
46 44 46 46 48 47 47 52 53 56 54 51 49 49 48 45 32 44 48 45 46 42 36 32 30 29 26 23 24 24 26 26 26 26 25 25 28 31 29 30 32 32 37 42 42
44 45 46 47 45 46 47 50 52 54 53 51 49 48 45 38 36 47 49 49 42 36 31 28 25 23 22 22 22 21 23 23 24 24 21 20 22 26 28 30 30 31 34 37 40
40 44 43 43 46 45 46 50 51 56 53 51 49 48 43 32 37 39 40 46 38 33 31 29 26 27 26 24 21 21 22 22 23 24 26 24 22 22 24 28 28 29 31 34 38
40 39 39 41 44 44 45 48 50 55 51 50 48 44 40 34 35 33 31 38 38 33 30 32 32 30 29 26 25 23 22 23 23 23 23 23 23 24 24 25 24 24 29 31 34
43 40 40 40 43 45 48 48 55 51 51 49 48 42 36 39 37 36 33 32 37 34 33 35 35 33 31 30 28 25 25 22 22 20 20 20 17 21 24 24 23 22 23 29 36
43 42 42 41 43 49 51 53 51 51 51 49 44 41 33 41 37 35 33 32 34 34 35 34 35 31 31 28 27 25 22 20 19 19 17 17 17 18 21 20 20 21 19 26 33
43 43 42 41 43 48 52 51 51 49 46 44 41 37 35 32 35 34 33 34 35 34 34 34 33 31 29 29 19 19 21 22 20 20 21 21 17 18 20 19 19 18 17 23 30
43 42 42 42 43 45 49 46 41 40 43 37 36 32 32 33 34 34 34 34 33 31 27 30 29 26 26 27 28 27 26 22 23 22 20 23 23 25 24 20 21 25 20 24 29
42 43 42 43 44 48 49 43 41 41 37 38 36 33 33 34 32 35 36 33 32 29 28 28 26 27 26 26 26 25 25 25 25 25 25 25 26 26 25 20 22 34 32 41 43
44 43 43 43 44 48 44 44 48 44 36 37 37 35 34 36 31 34 36 33 31 26 25 25 25 27 27 27 28 28 27 27 27 29 29 28 28 27 26 20 33 39 40 42 43
44 43 43 42 43 45 42 47 46 43 32 32 35 34 35 35 32 37 37 34 31 28 26 27 29 27 27 30 32 27 31 32 30 29 22 25 19 21 19 18 30 36 40 43 46
44 43 43 42 40 41 43 47 46 42 21 31 32 36 35 34 36 36 37 36 30 30 33 27 28 30 30 30 33 31 35 35 32 30 28 26 23 15 20 25 29 35 39 44 48
43 44 41 41 41 43 48 45 43 29 21 32 34 34 32 35 35 37 38 39 38 35 34 32 34 33 31 31 34 39 34 30 29 30 23 26 24 15 18 23 30 34 37 45 49
45 45 41 42 40 45 44 41 28 23 31 29 30 31 30 30 33 34 34 33 31 28 29 31 31 32 33 33 35 36 31 25 21 20 24 31 26 31 31 30 33 35 43 47 47
45 44 43 42 44 45 41 34 24 31 30 31 30 31 32 29 32 35 33 32 34 33 30 27 27 31 32 34 33 34 33 27 19 23 25 30 27 30 38 31 31 43 45 43 43
44 43 42 42 45 45 37 27 27 31 30 28 29 28 27 29 30 33 33 31 33 33 30 29 29 33 36 37 36 32 31 34 29 30 28 29 31 36 39 39 43 42 43 42 41
40 40 40 45 45 40 33 29 32 35 28 27 22 23 24 26 29 32 32 35 32 36 36 32 29 35 36 37 37 35 35 26 29 23 22 27 27 29 34 35 36 37 39 40 41
39 36 44 45 43 37 29 31 35 34 32 29 21 22 25 26 30 31 32 36 36 36 36 35 33 33 36 33 31 32 27 28 25 23 24 19 25 37 35 35 35 37 38 39 39
39 32 43 45 34 35 32 34 37 36 33 29 27 25 25 28 28 29 29 32 34 34 32 33 30 29 28 31 32 31 27 23 20 21 21 23 27 36 35 36 37 37 37 39 39
37 37 42 43 31 33 36 36 37 32 31 28 27 28 30 27 27 29 30 34 34 34 32 33 28 26 26 28 30 28 26 25 24 26 21 21 25 32 36 32 34 35 35 36 37
38 31 37 39 37 33 35 35 33 33 29 30 30 30 27 27 28 30 29 32 33 33 34 33 27 27 23 26 29 27 27 25 25 21 24 25 27 29 31 31 30 30 30 29 29
36 34 35 32 31 32 34 34 29 29 30 29 29 28 27 26 26 26 27 27 31 32 32 31 27 26 25 25 28 27 26 26 25 22 22 26 26 29 31 31 30 29 29 29 29
36 34 36 30 29 31 32 28 29 31 32 28 27 28 28 29 30 26 28 29 28 30 29 30 28 28 26 23 25 23 24 27 28 27 23 25 26 29 31 32 30 29 29 29 30
39 37 34 29 28 29 31 31 31 32 32 32 32 30 31 33 34 33 32 31 30 29 28 28 30 28 27 25 22 22 21 24 27 29 29 27 28 29 31 32 31 29 30 30 30

GFSSW_sfc_30mbdewp_093.txt.gz
Dewpoint
47 46 50 51 51 51 52 53 55 58 56 55 54 52 50 49 49 49 46 44 40 41 41 40 37 36 34 31 34 37 34 32 32 30 29 28 25 25 29 28 28 28 29 50 59
47 46 46 48 49 50 49 50 53 56 58 55 52 52 50 49 47 44 46 42 43 43 43 39 32 33 31 30 31 34 33 33 33 31 28 27 28 29 29 30 31 32 33 44 60
44 46 46 48 47 47 49 48 51 54 57 55 52 52 49 49 44 43 46 45 42 41 41 35 30 28 26 27 28 29 31 33 33 32 31 27 25 26 29 30 30 30 31 31 42
43 43 46 46 47 47 46 47 49 51 54 54 52 50 49 47 33 46 49 41 42 44 38 33 30 29 26 24 25 24 25 25 26 26 25 24 22 21 25 28 30 30 30 31 34
43 42 43 44 43 45 45 45 48 51 54 55 51 49 46 40 39 49 48 48 44 38 33 28 25 25 23 25 24 21 23 25 25 25 24 25 25 23 23 24 26 28 29 29 31
44 42 41 41 40 42 44 44 47 51 55 53 50 49 43 34 45 48 49 47 36 33 31 30 30 28 25 24 23 22 23 22 24 24 24 23 24 26 25 25 24 25 26 26 28
45 44 43 42 41 42 45 48 47 50 53 53 51 45 41 35 36 37 42 45 39 34 31 34 34 31 31 28 29 27 25 26 25 24 24 24 22 22 24 26 25 24 24 25 26
45 44 43 42 42 44 47 50 49 49 55 53 49 44 37 40 34 33 32 33 37 34 35 35 35 33 31 31 29 27 26 22 23 24 24 25 19 20 21 22 24 25 25 25 25
44 44 43 43 43 44 51 53 53 54 51 50 47 44 36 40 36 37 33 35 35 35 35 34 35 32 31 28 25 26 18 21 22 24 24 22 19 20 21 21 22 24 25 25 24
44 44 43 43 43 45 51 53 54 51 49 46 41 38 37 35 36 33 33 35 35 35 34 33 33 30 29 27 11 18 20 22 22 23 23 23 22 23 23 20 20 20 20 21 23
44 43 44 42 43 46 49 45 40 37 44 38 37 34 34 35 35 33 34 35 33 31 27 31 28 24 24 27 27 26 26 26 26 28 25 23 23 25 27 27 27 21 20 22 19
43 44 43 43 43 49 46 42 43 43 36 41 36 33 34 34 34 35 35 33 30 28 30 28 25 26 28 27 27 27 26 25 27 27 28 29 28 29 30 28 28 24 21 30 24
45 44 43 43 44 46 43 43 47 45 35 38 37 34 34 36 32 35 36 33 30 28 26 24 25 26 27 27 27 27 27 27 27 30 32 31 27 27 28 30 30 28 32 41 44
44 44 43 42 41 45 42 47 47 45 31 32 36 36 35 35 32 38 37 34 31 28 27 26 28 28 28 28 31 27 30 30 32 30 22 28 19 21 25 27 26 26 37 40 44
44 43 41 43 41 40 41 47 47 44 19 33 34 36 35 35 36 37 40 36 31 32 31 26 31 30 30 30 31 30 35 34 33 29 27 24 24 21 21 20 19 27 37 39 45
44 44 41 42 42 43 47 47 43 28 20 31 34 33 33 35 37 37 38 38 38 33 32 32 34 33 31 30 30 33 33 32 32 29 22 23 22 20 21 25 25 32 38 46 46
43 44 40 42 38 45 46 41 27 21 34 28 32 33 31 33 35 34 34 33 30 26 26 30 32 33 33 31 34 34 33 23 20 20 18 30 23 25 35 38 35 33 43 45 44
45 43 44 44 45 45 42 34 22 30 30 31 31 30 32 31 34 35 34 29 33 30 28 28 22 31 34 33 32 33 32 27 19 22 24 29 26 30 38 43 44 44 44 43 43
44 42 41 44 45 43 36 26 27 31 31 29 31 31 30 31 32 32 31 29 34 33 29 29 25 33 36 36 36 32 31 34 28 30 25 28 31 35 36 36 41 41 41 41 41
39 40 42 46 45 40 33 30 33 36 33 30 25 27 26 28 28 32 31 34 32 35 36 33 28 33 35 37 36 35 36 27 28 22 22 26 27 28 31 32 36 37 38 40 41
40 37 42 46 43 37 30 32 35 36 33 32 23 25 26 28 31 33 31 35 35 36 36 34 33 30 36 32 29 31 30 30 27 25 22 20 25 34 32 33 35 37 38 38 39
39 33 41 45 32 36 32 34 37 35 35 29 28 28 27 29 28 29 29 33 36 34 34 35 32 29 29 31 32 31 29 25 21 22 22 23 26 37 37 37 37 37 39 39 39
36 37 41 42 31 33 35 34 37 34 31 28 28 30 30 28 27 29 31 34 34 34 33 32 28 24 22 23 28 29 28 26 26 25 24 21 26 37 36 36 37 37 38 39 38
36 27 33 37 37 34 33 33 33 33 30 31 30 30 29 27 29 29 30 33 33 33 35 32 28 25 23 25 28 27 27 28 24 22 25 25 28 31 32 31 34 34 34 31 30
36 32 33 28 31 33 34 32 30 30 32 30 28 29 28 27 26 26 27 28 31 33 32 32 25 26 26 25 27 25 25 27 26 25 23 27 28 30 31 30 29 29 29 29 30
35 32 35 33 30 32 31 31 31 31 31 30 31 32 32 32 31 30 30 30 29 31 29 30 27 28 27 24 24 22 23 27 28 28 27 27 28 31 32 30 28 29 29 30 30
40 38 33 28 29 29 31 31 32 32 32 33 32 31 30 32 33 32 32 31 30 28 28 28 29 26 22 27 24 22 21 24 28 29 29 26 29 32 31 31 29 29 30 30 30

GFSSW_sfc_30mbdewp_096.txt.gz
Dewpoint
44 47 47 47 49 51 50 51 52 56 59 57 55 53 50 50 50 48 45 46 43 40 38 41 37 36 33 31 33 37 34 32 32 31 31 30 28 28 30 30 31 32 32 32 44
44 45 47 48 49 48 49 49 50 53 55 58 56 54 51 49 47 44 47 44 44 42 41 35 29 31 31 30 31 34 33 32 34 33 31 32 29 25 25 26 30 31 31 31 34
46 44 45 47 48 47 48 47 48 50 53 57 55 53 51 49 44 42 47 46 43 41 41 35 30 28 28 27 28 29 31 34 33 32 32 27 25 24 22 24 27 29 29 30 32
45 44 43 44 44 45 46 46 46 49 51 57 55 52 49 47 31 45 48 43 42 43 37 32 30 27 25 23 25 24 27 25 26 26 26 24 25 24 23 22 27 27 28 30 29
46 46 45 41 41 41 42 44 45 47 51 56 55 50 46 41 40 48 45 47 42 37 31 27 26 25 25 25 24 22 22 23 23 23 23 23 23 24 25 27 25 26 26 26 27
45 45 45 45 43 42 42 43 45 46 50 55 53 50 44 33 47 49 47 42 36 33 31 32 31 28 25 24 23 25 27 26 27 26 25 23 22 24 24 26 26 26 26 26 26
45 44 45 44 43 43 45 46 47 47 49 56 51 44 40 36 46 49 47 42 37 33 34 35 34 30 31 27 30 29 25 26 24 25 24 24 21 20 21 23 22 23 23 25 26
45 45 44 44 44 44 44 45 51 48 49 54 50 45 37 38 36 32 36 37 36 37 35 35 35 33 31 31 29 26 26 20 21 24 24 25 18 20 21 22 21 21 21 21 26
43 46 45 44 43 44 51 52 52 49 53 51 47 42 35 40 33 33 34 36 35 35 35 35 35 32 31 27 22 24 15 20 22 25 25 25 23 23 24 23 22 21 21 22 25
44 44 45 44 43 47 45 53 51 53 49 47 44 39 38 35 37 37 34 36 35 35 34 34 33 29 28 24 9 16 20 22 22 23 25 26 26 26 25 26 23 21 20 20 21
42 45 44 43 43 48 45 47 41 40 44 40 38 36 38 37 35 33 36 36 35 32 28 32 27 23 23 27 25 25 25 24 25 27 27 27 27 27 27 27 27 27 26 24 22
44 44 43 43 46 46 47 40 42 40 37 40 37 34 34 35 33 34 36 32 31 28 29 27 24 25 27 28 27 27 26 25 27 27 29 30 29 30 31 30 29 28 29 27 25
44 44 43 42 46 45 44 43 48 46 36 38 36 32 34 35 34 34 34 34 29 27 27 25 24 27 26 26 26 26 26 26 26 28 31 31 26 27 27 30 31 30 31 29 29
44 43 41 44 41 45 42 47 48 46 31 32 35 35 35 35 35 37 37 35 31 27 29 27 29 27 28 28 28 26 29 29 29 30 24 28 19 21 23 27 29 30 30 29 41
44 42 43 44 40 39 42 47 48 43 18 34 36 37 35 36 36 37 40 36 31 31 32 26 29 30 29 28 31 27 32 32 34 29 28 25 23 20 21 21 30 23 26 41 45
42 44 42 41 43 45 47 47 43 23 19 31 34 34 34 36 37 38 38 38 38 31 31 30 34 33 31 30 31 30 30 33 32 30 21 23 22 19 30 34 36 32 39 45 45
44 43 42 44 39 45 45 39 23 21 34 29 32 33 33 33 34 35 33 32 28 24 24 28 31 33 33 31 34 32 31 24 19 20 18 30 22 21 35 39 40 38 42 43 43
44 44 44 45 46 45 40 29 22 29 30 32 30 30 30 33 33 34 33 30 34 30 27 25 20 31 34 32 32 33 32 26 19 21 24 30 24 30 37 39 41 43 42 42 43
43 41 42 45 45 42 33 26 27 29 29 29 32 30 31 32 33 32 31 29 32 32 27 28 25 31 34 35 35 33 31 35 28 30 24 27 31 34 35 35 39 40 40 40 41
39 40 40 44 45 38 32 30 33 35 32 32 26 28 27 30 30 32 31 33 31 34 35 32 28 31 35 37 36 35 36 28 28 21 21 26 27 27 30 31 37 37 38 40 41
40 34 38 44 41 35 30 32 34 36 32 31 25 26 27 28 30 31 30 34 34 35 36 34 32 29 35 32 29 31 30 31 30 26 23 21 25 32 31 32 34 37 38 39 40
37 30 37 43 33 34 32 34 37 35 36 31 29 27 27 28 31 30 29 32 36 36 34 35 33 28 28 30 33 31 29 27 22 21 23 23 27 36 35 36 37 38 38 39 39
34 35 39 41 29 31 34 33 36 32 31 29 29 30 30 28 26 29 31 34 36 34 33 33 28 24 16 21 27 29 28 28 26 25 24 22 27 35 36 37 38 37 37 38 38
33 25 31 36 36 34 32 33 31 33 30 31 30 30 29 28 29 29 30 33 34 34 35 32 29 25 20 23 27 27 25 28 24 23 25 26 27 31 31 34 33 34 35 32 30
34 31 34 29 30 33 34 32 30 30 31 32 30 32 28 27 27 28 29 29 31 33 33 31 27 26 25 26 25 26 23 26 26 26 23 27 27 30 31 30 30 30 29 29 30
33 31 35 32 30 30 31 31 31 31 31 30 31 31 32 29 30 28 30 29 29 29 29 30 27 28 27 25 24 24 22 25 28 28 27 28 28 31 32 30 28 29 29 30 30
40 38 33 28 29 29 31 32 32 32 32 33 32 31 29 32 33 33 32 32 31 29 28 28 28 25 17 25 24 22 21 24 27 29 29 25 29 32 30 28 28 29 30 30 30

GFSSW_sfc_30mbdewp_099.txt.gz
Dewpoint
47 45 46 47 49 50 49 51 51 53 56 58 56 54 51 50 49 47 43 44 46 40 40 41 34 34 32 31 34 38 34 30 31 31 31 31 31 29 28 29 26 31 31 31 31
47 47 45 47 50 49 48 49 49 50 53 55 58 55 51 50 46 43 47 45 43 43 38 32 29 32 30 29 32 35 33 30 34 33 32 32 29 26 25 24 25 31 29 29 30
48 47 46 44 47 49 48 48 47 48 51 53 58 56 52 48 43 42 48 45 44 42 40 33 30 28 27 27 28 32 32 33 33 32 30 27 25 25 24 23 26 24 26 26 28
47 47 46 45 42 43 45 46 47 46 48 52 57 55 50 46 31 44 48 44 42 42 35 32 29 26 23 23 26 24 26 27 26 26 24 23 25 23 24 24 25 26 26 27 27
46 47 47 46 44 43 42 44 44 46 47 53 57 52 46 40 40 48 45 45 39 33 30 27 27 26 25 25 24 22 23 26 26 26 25 24 23 24 24 25 26 27 27 27 27
45 46 46 46 45 44 43 43 46 45 47 52 54 50 44 32 45 48 43 38 34 32 33 32 30 27 27 25 23 27 28 27 27 26 27 24 22 23 23 24 24 24 24 26 26
44 45 45 45 45 44 44 45 47 49 49 51 53 48 39 41 48 47 43 39 36 34 34 35 33 29 30 25 30 29 24 25 22 24 23 25 20 20 20 21 21 21 22 22 25
43 44 45 45 45 44 44 47 49 47 49 51 51 47 38 40 43 45 40 36 37 37 35 36 34 32 29 31 28 25 25 17 18 24 24 23 16 20 23 23 22 23 23 23 22
44 44 45 45 43 44 47 50 52 49 49 53 49 44 34 39 32 33 38 35 35 35 36 36 35 32 30 24 16 22 13 18 21 25 25 24 20 25 25 25 24 24 23 23 23
42 44 45 44 44 48 48 51 50 50 50 49 45 38 37 34 36 35 38 36 34 35 34 33 32 28 28 22 5 14 19 21 22 23 25 24 24 25 27 28 26 25 24 23 22
45 45 43 46 46 48 47 46 43 42 44 41 39 37 37 37 35 34 37 36 34 31 29 30 26 20 22 25 22 22 24 24 25 26 26 26 26 27 29 30 29 27 27 26 26
44 44 43 46 46 46 45 41 42 43 36 40 39 40 36 35 32 34 36 32 30 27 29 26 23 25 27 27 26 26 25 25 26 27 28 28 29 31 31 30 31 30 28 28 28
44 42 43 45 45 45 43 43 48 46 35 38 38 36 35 34 33 33 34 33 29 27 27 25 24 27 27 26 26 26 25 24 25 28 30 29 27 23 23 26 30 32 31 31 30
43 42 44 46 41 44 41 47 48 46 30 31 35 33 35 36 34 37 36 35 31 27 31 27 28 27 26 27 28 25 27 27 27 30 26 29 21 22 23 26 33 32 31 31 32
43 43 45 42 41 41 44 48 48 42 16 34 35 37 36 35 36 36 40 36 30 30 29 25 28 29 29 29 29 26 31 31 31 31 29 26 23 20 30 32 34 35 26 35 44
45 44 43 42 44 46 47 47 44 20 17 31 34 32 33 36 36 38 37 38 37 30 30 29 33 32 31 31 31 30 30 32 31 29 20 25 22 20 30 34 37 36 41 43 43
45 45 44 44 41 46 46 40 23 22 32 29 30 32 33 31 33 35 32 31 27 23 24 26 30 33 33 30 33 32 31 23 19 19 17 29 24 22 34 37 40 40 41 42 44
44 43 44 45 45 44 39 28 20 28 30 31 30 32 30 33 32 33 32 30 33 29 27 24 19 30 33 32 31 32 32 26 19 20 23 29 22 28 35 37 40 41 42 42 42
42 41 41 42 45 41 32 25 26 27 30 28 31 28 30 32 33 33 32 29 32 31 27 26 25 29 33 34 35 32 30 35 29 28 25 26 31 36 34 34 38 39 40 40 41
39 39 37 43 44 37 31 30 31 34 31 32 25 29 24 30 30 32 31 32 30 33 33 32 27 31 33 36 35 34 36 28 28 21 20 26 27 27 30 31 36 37 38 39 40
38 32 35 43 40 34 29 31 34 36 32 30 27 27 27 29 29 31 30 32 34 35 34 34 31 27 31 31 29 30 29 31 30 27 23 21 26 33 31 32 33 36 38 38 39
35 30 37 42 32 32 32 35 37 34 36 33 30 27 27 28 30 31 30 32 35 36 32 35 32 27 25 31 30 31 29 28 23 21 24 23 27 37 36 36 35 35 36 39 39
32 32 37 38 29 30 33 33 36 32 31 30 29 30 30 28 27 29 31 34 36 35 33 34 28 21 13 19 25 27 29 27 28 24 24 22 25 34 37 37 37 35 38 38 39
31 27 32 35 35 33 32 31 30 33 30 31 31 30 28 28 30 29 29 33 36 35 35 32 29 24 17 19 26 25 26 24 25 22 24 25 26 30 32 34 35 37 37 36 34
32 32 34 28 29 30 33 31 30 30 32 32 30 32 30 27 26 27 30 29 32 33 34 31 28 26 26 26 26 25 26 22 26 26 23 25 27 28 30 31 31 31 30 29 30
32 31 34 29 30 30 31 31 31 31 31 30 30 31 32 28 29 27 30 29 28 29 30 31 27 28 25 27 26 24 24 23 27 28 27 28 27 30 32 30 29 29 29 29 30
39 37 31 28 30 30 31 32 31 33 32 33 32 31 28 31 33 33 33 32 31 30 28 28 27 25 17 23 24 21 23 23 27 29 28 26 27 31 31 29 28 29 29 30 30

GFSSW_sfc_30mbdewp_102.txt.gz
Dewpoint
49 47 46 46 49 50 50 49 49 51 53 56 58 54 51 50 49 46 42 43 45 40 42 37 33 33 32 32 37 38 29 24 28 31 29 32 31 31 27 28 25 28 31 31 29
48 49 47 46 48 48 49 49 48 48 50 54 57 55 51 50 44 41 47 45 44 44 34 31 31 30 29 30 33 35 27 26 33 33 32 32 29 27 26 25 24 26 30 28 27
46 48 48 46 47 48 47 46 48 48 48 50 54 56 52 48 41 41 49 45 44 43 37 31 30 29 26 27 28 34 28 33 33 33 28 26 25 26 24 23 24 25 26 26 27
45 47 47 48 44 43 43 45 46 46 46 50 56 55 51 45 32 44 48 44 43 39 34 30 29 25 24 23 25 21 27 28 25 26 25 23 24 23 24 23 25 25 26 27 26
45 46 46 47 45 43 44 42 44 45 45 47 56 51 47 39 41 47 46 42 35 32 30 28 26 26 23 24 23 23 25 27 27 27 26 25 24 23 23 24 25 25 26 27 26
44 45 46 46 45 45 44 44 44 45 43 49 55 50 44 38 46 44 38 35 34 34 34 31 27 27 26 26 23 28 28 27 26 25 26 23 22 23 21 24 24 23 23 24 25
43 44 46 47 45 45 45 44 46 47 48 50 52 50 43 44 48 44 40 37 35 35 33 34 32 28 29 25 30 29 19 21 20 24 21 24 18 19 21 22 20 21 22 22 23
44 44 45 46 45 44 44 45 46 48 48 50 52 49 42 48 45 37 37 36 36 36 35 35 34 32 29 30 24 23 22 10 14 23 24 21 12 18 20 20 21 23 23 23 25
43 45 45 44 44 47 47 49 48 49 48 52 48 44 41 42 38 35 37 34 35 37 36 36 34 31 28 19 11 18 8 16 19 25 25 23 17 23 26 25 25 25 25 26 26
45 45 44 46 47 46 49 52 51 50 51 49 45 38 37 35 34 35 37 37 35 34 34 32 30 26 26 16 -5 11 16 21 21 23 25 24 24 25 27 27 27 28 29 29 26
44 44 45 46 47 47 45 46 42 42 43 40 41 38 35 36 35 36 37 35 33 30 28 29 22 14 20 24 19 21 23 23 24 26 26 26 26 27 29 30 31 32 31 30 27
43 43 46 45 46 46 45 42 42 42 36 41 38 37 35 35 32 34 36 31 30 27 28 25 21 24 26 26 25 25 24 23 25 26 27 28 29 30 31 30 29 31 31 32 29
43 45 45 45 45 44 44 44 48 46 35 38 39 37 36 34 33 33 34 33 29 27 27 24 24 27 26 26 25 25 24 24 24 26 29 30 29 26 24 26 31 35 33 33 31
44 46 46 46 42 44 42 47 48 47 29 31 36 35 35 36 34 37 37 35 30 27 31 28 28 27 27 26 27 24 27 26 26 28 24 32 21 23 27 33 36 36 35 32 34
45 44 46 43 43 41 45 47 48 43 16 34 34 37 38 35 34 34 40 36 29 30 27 24 28 29 28 27 28 26 29 29 30 29 28 26 23 22 29 31 35 37 40 41 44
46 45 43 43 44 46 47 47 43 20 18 30 34 33 33 36 36 37 36 37 36 29 29 28 32 31 30 31 30 29 30 31 32 27 20 22 24 21 30 33 35 39 40 41 44
45 46 44 44 41 45 45 37 21 20 32 29 30 33 31 31 32 34 32 29 26 22 23 25 28 32 32 30 32 32 31 22 17 18 17 28 24 23 33 34 38 39 40 42 43
44 43 44 43 44 43 38 26 20 27 28 32 31 31 27 33 31 33 32 29 31 29 26 24 18 28 33 31 31 32 32 26 18 18 21 29 23 28 34 35 39 40 41 41 41
42 40 40 40 44 40 31 24 25 27 29 28 30 27 29 31 32 31 31 29 31 30 26 25 24 29 32 33 34 32 30 34 28 26 24 25 31 36 35 34 37 38 39 39 39
39 37 36 41 43 36 30 28 30 33 30 31 25 28 24 30 29 29 30 31 30 32 33 31 27 29 32 36 35 34 35 26 26 20 17 22 27 27 31 31 34 35 36 37 39
36 32 36 41 40 34 29 31 33 36 32 30 27 27 26 28 28 30 30 31 33 33 33 34 31 26 30 32 29 30 28 29 29 28 22 21 25 35 33 33 32 35 36 35 38
33 30 36 39 31 32 32 35 36 33 35 33 30 27 28 28 29 30 30 30 34 36 33 34 31 27 24 30 30 31 29 27 24 21 23 24 24 35 37 37 35 34 36 36 38
30 31 36 37 29 30 32 33 35 32 30 30 29 30 29 28 27 31 30 33 35 35 33 34 29 22 10 17 25 26 29 27 27 25 23 23 22 33 37 37 37 36 38 38 39
31 25 31 33 34 32 31 30 29 32 31 31 31 30 28 28 30 28 29 32 36 35 36 34 29 26 16 17 24 24 25 25 26 22 23 24 25 29 33 34 36 37 37 38 37
32 31 33 28 29 30 32 31 29 29 32 32 29 31 30 27 27 26 29 29 33 34 35 31 28 27 27 26 26 25 25 25 24 25 23 22 26 27 30 33 34 35 32 30 30
31 31 33 29 30 30 31 31 31 31 31 29 30 31 31 29 29 28 30 29 28 29 31 31 27 27 25 26 27 25 25 25 23 27 26 27 27 30 31 31 31 30 29 29 29
38 36 30 29 30 29 30 31 30 33 31 33 31 31 28 30 33 33 33 32 31 30 28 28 27 25 20 22 22 17 21 24 24 28 27 25 26 31 31 30 29 29 29 29 30

GFSSW_sfc_30mbdewp_105.txt.gz
Dewpoint
50 49 48 48 48 50 50 50 49 50 53 55 58 55 52 51 49 46 41 44 43 41 43 34 33 33 34 34 38 38 17 17 25 30 27 33 31 31 28 27 27 27 31 31 29
48 49 49 49 48 48 48 49 49 49 51 53 56 55 52 49 43 42 48 46 45 44 33 31 31 30 30 32 35 31 17 19 32 33 32 33 30 27 25 25 24 25 27 29 28
46 47 48 49 49 48 47 45 46 48 48 53 55 55 52 47 40 42 50 46 44 41 34 31 30 27 26 27 29 34 21 32 33 33 26 25 25 26 24 21 22 21 25 26 27
45 46 47 47 49 46 43 43 46 46 46 50 56 55 50 45 34 44 48 44 43 36 32 30 28 24 24 23 25 20 28 28 26 25 26 24 24 22 24 21 23 25 26 27 27
44 46 46 47 47 49 44 44 43 45 45 49 55 51 49 42 43 48 43 38 34 33 30 27 25 25 22 24 23 22 25 27 27 28 27 26 24 24 21 23 25 25 26 26 27
44 45 45 46 47 48 45 45 45 46 44 53 53 52 45 39 48 40 36 35 35 33 33 29 26 27 25 26 22 28 27 26 26 24 25 23 23 23 17 22 23 24 24 24 24
44 44 45 45 47 47 45 45 45 48 47 53 52 50 44 43 46 38 37 37 36 34 32 34 31 26 26 25 30 28 14 18 19 24 22 25 20 20 21 23 21 21 21 22 24
44 45 45 45 46 44 45 44 45 48 48 53 52 47 43 49 47 36 36 36 37 37 36 35 34 32 29 29 21 20 18 4 16 23 24 21 16 17 22 24 25 25 26 26 26
45 45 45 45 46 46 47 48 47 49 50 52 46 44 41 46 35 36 36 35 36 37 36 34 33 30 25 14 7 16 3 14 17 24 25 23 22 22 25 27 28 28 28 28 29
44 45 46 46 47 48 50 50 49 50 50 46 44 38 42 38 34 36 38 37 34 33 32 30 28 23 23 13 -11 5 14 19 19 22 25 25 25 27 28 29 30 30 30 30 31
43 45 46 46 47 48 46 46 40 39 44 41 39 38 39 36 37 36 37 33 32 31 26 29 16 13 21 21 17 21 22 22 23 25 26 26 26 28 30 32 31 29 30 32 33
45 45 45 44 47 47 45 42 41 42 36 41 37 34 35 35 33 34 35 30 29 27 27 23 20 24 26 26 25 25 24 22 24 26 27 28 28 30 31 30 30 31 33 36 33
45 46 45 44 45 46 44 44 48 46 35 38 38 36 36 35 33 33 35 32 28 27 27 22 24 26 26 26 25 25 24 23 24 26 29 30 28 25 24 29 34 38 39 40 39
46 46 46 46 42 44 42 47 48 47 29 32 35 34 36 35 33 38 38 35 29 28 30 28 28 26 26 26 26 23 26 26 26 28 25 30 21 24 24 29 34 37 39 40 42
46 45 46 45 42 42 45 47 47 43 15 34 35 36 38 33 33 32 40 36 29 29 26 23 27 28 28 27 27 25 29 28 29 30 29 27 25 23 28 30 33 36 39 41 43
46 45 44 43 44 45 47 45 40 18 18 30 34 33 33 35 35 36 35 36 36 28 28 27 32 31 29 31 30 30 31 32 31 28 20 21 25 23 29 32 34 38 40 41 43
46 46 43 44 38 44 43 32 20 20 31 28 30 31 29 31 31 33 31 28 26 21 22 25 27 31 32 30 32 32 31 22 17 17 17 27 25 24 33 35 35 39 40 40 41
45 42 43 42 43 42 34 24 19 28 28 32 30 29 28 32 31 33 31 28 30 28 25 22 20 28 33 31 30 31 31 25 19 19 21 28 23 26 36 37 38 39 38 39 39
43 39 38 39 43 39 29 24 24 27 29 29 31 27 29 30 30 31 31 28 29 29 25 25 23 28 32 33 33 32 28 34 28 26 23 22 27 35 36 34 36 36 36 36 39
38 36 35 41 42 35 29 28 30 32 30 31 25 27 25 30 29 30 30 30 30 31 32 32 25 29 32 35 34 34 35 25 27 19 18 20 25 27 33 33 34 34 33 35 38
35 32 37 42 39 34 27 30 31 35 32 29 27 26 26 27 28 29 30 30 32 33 32 33 30 25 29 31 29 32 29 30 28 27 21 20 21 34 35 35 34 34 34 35 38
33 29 38 40 31 31 32 34 36 31 35 33 30 27 27 28 29 29 30 30 34 35 30 34 32 26 25 29 30 31 29 26 23 21 23 23 22 35 37 37 36 35 36 37 39
30 31 36 37 27 29 31 32 33 31 31 30 29 30 29 28 26 30 30 33 35 34 32 34 29 24 9 18 26 27 29 27 27 25 24 22 21 34 37 37 37 36 37 38 38
31 22 31 32 32 30 29 29 29 32 31 32 31 30 28 28 30 28 30 32 35 35 37 35 29 26 18 15 21 23 25 26 26 22 22 24 24 28 34 34 35 36 37 37 38
32 31 32 27 30 31 31 31 29 28 31 32 29 30 30 26 27 26 29 29 34 35 36 32 28 27 28 28 27 26 26 25 25 24 23 22 25 26 29 33 35 36 36 32 30
31 31 30 29 30 30 30 30 29 31 30 29 28 30 30 28 28 27 29 29 26 29 32 32 28 27 25 25 26 25 26 26 26 25 25 26 26 29 30 32 33 34 32 29 29
37 35 29 29 29 28 28 30 29 32 31 32 30 29 28 27 32 32 32 31 30 30 28 28 28 25 20 22 22 14 18 23 25 25 25 23 26 30 31 30 31 31 30 29 30

GFSSW_sfc_30mbdewp_108.txt.gz
Dewpoint
49 49 50 50 49 50 50 50 50 51 53 55 58 56 52 51 49 45 37 43 40 42 41 34 37 37 38 38 40 38 14 16 22 23 24 32 29 31 29 26 25 26 28 29 28
47 48 48 49 50 48 48 48 48 49 52 55 58 55 52 48 41 41 49 47 45 43 33 31 36 35 32 35 36 27 15 16 26 29 28 31 29 26 22 19 18 18 20 22 26
46 47 47 48 49 49 47 46 46 47 48 54 58 56 52 46 38 43 50 46 44 38 33 32 31 28 29 31 32 32 20 28 32 33 30 26 21 24 20 13 13 12 12 17 21
45 46 47 48 49 49 45 43 46 46 47 53 56 53 50 46 35 45 48 45 43 36 33 30 26 22 26 23 26 22 29 29 28 27 26 23 23 19 19 14 15 16 19 21 22
45 45 46 47 47 47 48 44 43 45 45 53 54 51 47 42 43 45 42 38 35 34 31 29 23 23 20 23 24 20 23 25 25 26 25 23 22 20 16 17 17 18 21 22 22
45 45 45 46 47 48 49 45 46 45 44 54 53 53 46 39 47 38 35 34 34 33 31 29 25 26 24 24 21 25 25 23 24 22 23 22 20 22 16 20 21 21 23 24 25
44 45 45 46 46 48 46 45 46 47 51 54 53 52 43 43 44 37 36 36 36 32 31 32 29 25 24 23 28 25 16 18 20 22 22 24 20 22 20 22 24 27 29 29 29
45 45 45 45 46 47 45 44 45 48 50 53 53 50 40 48 44 35 36 36 36 36 34 34 31 30 27 25 19 16 15 4 16 24 25 24 14 19 20 24 27 29 28 27 28
45 44 45 46 46 46 46 47 47 49 52 52 48 44 38 45 35 36 35 34 35 35 34 33 32 28 24 16 12 13 1 8 14 25 25 25 21 24 26 27 29 28 27 28 28
45 46 46 47 48 49 47 48 49 50 50 48 47 40 42 37 36 37 37 36 32 33 31 30 27 23 22 21 12 5 9 15 16 21 25 25 25 27 29 29 30 28 29 29 32
45 46 45 47 48 48 48 47 40 40 42 40 40 39 39 38 37 35 37 33 32 30 25 28 26 21 23 19 20 21 21 21 20 24 27 27 28 28 30 30 28 31 32 34 36
46 45 45 47 47 47 46 40 42 42 36 38 38 37 35 35 32 34 35 29 29 26 28 26 23 25 26 26 26 25 24 22 25 26 28 28 28 29 30 31 33 34 36 38 39
46 45 45 46 46 45 44 44 48 46 36 38 36 35 35 34 33 33 35 32 28 28 26 22 25 27 26 27 26 26 26 25 27 29 29 29 27 26 25 28 33 33 37 39 39
47 46 46 45 41 43 43 47 47 47 32 32 34 33 35 35 31 37 38 35 29 29 29 27 28 26 26 26 27 26 27 27 28 29 26 28 23 23 24 26 31 34 37 39 39
46 47 46 44 42 42 44 47 46 44 19 34 34 37 37 32 31 31 39 34 28 28 28 26 27 28 28 29 28 28 29 29 30 30 28 27 26 24 25 28 33 34 37 40 41
46 46 44 44 44 44 46 45 42 26 19 30 34 32 31 33 34 34 34 35 35 29 29 28 32 30 29 31 29 30 32 33 31 28 23 25 26 23 27 32 35 35 38 39 40
45 45 43 44 39 45 43 35 26 22 31 28 28 31 30 30 31 32 31 30 28 24 26 27 27 31 32 31 33 32 31 25 24 24 22 26 26 27 29 36 36 38 37 38 39
45 42 43 41 43 44 37 30 22 27 27 31 29 30 29 31 30 32 30 28 30 28 27 26 22 29 33 32 30 30 29 24 21 21 22 27 25 28 35 35 36 38 38 38 39
43 41 40 40 44 41 33 27 26 27 29 29 30 27 29 30 29 29 29 28 29 29 28 28 27 29 32 32 33 31 29 33 28 28 23 25 30 30 35 35 35 35 37 36 38
41 38 38 41 43 40 32 29 30 31 30 31 25 26 25 28 28 28 30 30 30 31 32 31 27 29 32 34 34 33 35 27 29 21 18 21 23 27 32 35 36 36 35 35 38
37 37 39 43 42 36 29 30 30 33 33 29 27 26 26 27 28 29 29 31 32 32 32 32 28 26 29 30 30 33 31 31 27 25 21 17 20 34 33 35 35 35 36 36 38
37 32 40 42 35 36 33 32 34 30 35 33 29 28 28 29 29 29 29 31 33 33 30 33 30 26 26 30 30 30 27 26 20 21 24 23 21 34 35 35 35 37 37 38 39
34 35 40 41 30 33 33 33 34 32 31 31 30 30 29 29 26 30 30 33 35 33 31 34 28 24 15 23 27 27 28 28 26 26 23 20 17 34 36 35 36 37 38 38 38
33 26 35 37 34 31 30 30 30 33 32 32 31 30 29 29 30 28 30 33 35 35 36 35 29 25 14 13 20 22 23 28 26 23 18 21 18 25 33 34 35 36 35 35 36
34 32 33 30 31 32 32 31 29 29 32 32 30 30 29 26 27 27 28 30 34 36 36 34 30 29 28 27 27 27 26 25 25 25 20 17 21 21 26 32 33 34 35 36 35
33 32 31 30 30 30 30 30 29 30 30 28 29 30 30 27 26 24 28 28 25 33 34 33 29 28 26 24 25 25 25 25 25 25 24 23 22 24 26 29 33 34 35 35 31
38 35 31 30 30 27 28 30 30 32 31 33 31 29 28 29 31 32 32 32 30 29 29 29 30 27 22 23 23 17 18 21 24 25 25 22 22 23 30 31 32 33 34 33 30

GFSSW_sfc_30mbdewp_111.txt.gz
Dewpoint
49 49 48 49 50 49 50 51 51 53 54 56 59 55 53 51 49 44 35 42 41 43 42 38 36 37 39 40 38 33 18 15 18 17 24 28 26 28 28 24 20 22 24 24 24
49 49 48 49 50 47 48 47 47 49 52 56 58 55 53 50 38 42 50 46 44 42 31 33 32 33 31 35 34 24 17 16 23 26 25 27 25 23 19 15 15 14 14 16 18
46 47 47 49 50 48 47 46 46 47 48 55 58 56 52 48 39 42 48 45 43 37 31 32 33 28 27 28 29 25 20 24 27 30 28 24 19 21 16 11 9 9 12 15 18
46 46 47 49 49 48 48 44 46 47 47 53 55 51 50 47 34 45 49 46 41 34 29 29 28 22 24 22 26 23 27 24 27 27 23 20 20 17 15 14 13 15 16 18 20
46 45 46 47 48 47 46 44 43 44 46 55 52 50 48 43 42 42 39 37 35 33 28 23 19 20 20 21 20 17 20 21 23 24 21 18 17 17 16 15 17 19 21 23 24
45 45 46 46 47 47 47 45 46 44 46 54 52 52 47 39 44 36 34 33 33 31 30 25 21 22 20 20 20 21 22 19 21 19 20 20 18 21 15 19 21 24 26 28 29
45 45 46 45 47 48 47 45 47 46 49 53 52 47 43 42 41 34 34 34 34 30 29 28 25 23 21 20 23 20 16 17 19 20 21 24 22 21 20 20 23 24 28 29 28
45 45 45 45 44 47 45 44 46 50 54 52 48 43 38 44 45 33 33 32 33 34 33 31 28 27 23 20 17 16 13 9 17 22 24 25 11 19 19 21 24 27 29 27 27
45 46 46 47 46 46 45 45 47 51 54 51 45 41 36 44 35 34 33 31 31 31 30 30 29 23 23 16 12 10 7 6 18 23 24 25 18 20 24 26 27 28 28 26 27
46 46 47 47 48 48 47 48 50 51 50 47 47 37 41 37 36 35 34 33 30 30 28 27 25 21 18 23 24 10 5 10 10 21 24 24 23 24 27 28 29 28 27 28 32
46 46 47 49 51 49 48 45 39 39 44 41 41 39 40 39 36 33 35 31 30 28 22 25 30 27 21 18 19 18 16 16 15 24 27 25 25 26 28 30 27 29 30 32 37
45 46 47 48 48 48 46 41 42 41 36 41 41 40 38 35 30 33 33 28 28 24 25 26 26 24 25 26 25 23 21 20 24 27 29 28 28 28 29 28 29 31 33 36 38
45 46 46 47 47 46 43 43 47 46 37 38 38 35 34 33 33 33 34 30 27 26 23 24 24 27 25 26 26 25 26 25 28 30 29 28 26 27 26 26 29 31 34 38 40
47 46 45 44 44 46 42 46 47 46 33 32 33 33 34 34 30 35 37 34 29 27 28 26 26 25 25 25 27 28 27 28 30 29 27 28 22 23 24 25 27 33 34 39 40
47 48 46 45 42 43 43 46 45 44 22 32 32 37 34 31 31 30 36 31 27 27 29 27 27 27 28 31 28 29 30 30 30 29 28 27 27 22 25 25 28 34 36 38 39
46 46 45 43 43 44 45 44 42 33 21 29 32 30 29 30 31 32 31 33 32 28 29 27 31 30 29 30 29 31 33 32 30 28 26 28 25 21 25 29 33 35 37 38 39
46 45 43 43 40 45 43 38 33 24 29 27 27 28 27 28 29 30 29 29 28 29 28 27 28 31 31 32 33 33 31 27 25 26 24 26 26 27 27 34 34 35 37 37 38
45 43 42 41 43 45 40 31 23 27 26 29 28 28 27 29 29 30 28 28 29 27 28 29 26 29 32 32 31 29 28 25 20 22 23 28 24 28 33 34 36 36 36 38 38
42 41 41 42 45 43 34 29 27 26 28 27 28 25 28 28 28 29 28 27 29 29 29 30 30 29 31 31 33 30 27 31 28 25 23 24 30 31 32 32 34 35 37 37 37
40 39 39 43 44 42 33 29 29 29 30 29 21 24 23 26 27 27 28 30 29 30 31 30 29 28 32 34 34 33 33 26 29 20 18 19 22 25 30 34 34 34 35 37 38
39 35 41 43 44 35 32 28 29 31 31 28 25 24 25 26 27 27 27 29 30 30 31 29 28 28 28 30 29 32 29 29 25 22 19 12 17 35 33 35 34 34 36 38 38
40 36 42 43 38 35 33 30 31 31 33 31 29 28 27 28 27 26 26 28 31 31 29 31 28 25 24 28 31 30 27 25 20 16 21 19 17 33 34 35 35 35 36 38 39
33 35 43 42 34 32 33 32 33 31 31 31 29 30 29 27 25 27 28 31 33 32 30 31 28 23 21 22 26 26 26 26 25 23 19 13 13 33 34 34 35 35 37 38 39
33 33 33 34 35 29 29 30 30 33 31 32 30 30 29 27 29 27 27 32 33 34 35 34 28 25 17 15 21 20 22 25 25 22 19 17 16 20 27 32 33 35 36 36 36
35 33 35 32 30 30 31 29 28 29 32 32 29 29 28 24 25 24 26 27 33 36 35 34 28 27 27 26 25 24 23 23 22 24 22 20 15 15 17 22 28 33 34 34 34
33 32 32 30 31 30 29 28 27 29 30 28 29 29 28 26 26 25 26 26 23 32 33 33 28 27 27 24 21 21 22 22 22 23 22 22 22 22 22 22 24 27 32 33 33
38 35 32 30 28 26 25 28 28 31 31 31 30 28 26 26 29 29 29 29 28 26 29 29 29 28 22 21 22 18 18 19 20 21 21 20 20 20 22 26 29 29 32 32 33

GFSSW_sfc_30mbdewp_114.txt.gz
Dewpoint
50 50 51 51 49 50 51 50 50 51 54 56 57 55 54 52 50 45 43 45 43 44 44 37 36 40 41 41 38 32 25 18 19 18 27 28 26 28 27 24 21 19 20 20 18
49 49 49 50 48 48 48 47 47 48 50 55 57 57 53 52 42 45 48 47 46 44 37 35 33 36 34 35 33 28 22 24 26 28 26 27 23 21 19 16 15 17 17 17 18
46 46 47 50 49 47 46 46 47 47 49 55 57 57 52 50 42 45 49 46 42 40 33 33 31 29 29 30 29 25 25 24 28 30 26 23 19 20 18 14 11 12 14 16 19
46 47 48 49 49 47 45 44 45 47 48 55 55 52 51 47 38 45 47 46 42 39 30 33 28 25 26 24 26 23 26 24 27 26 23 20 19 17 17 16 15 15 18 19 21
45 47 48 49 48 46 46 44 44 44 49 55 53 52 51 42 40 37 39 37 35 33 27 26 23 22 22 22 19 18 20 20 23 23 20 18 16 18 17 18 17 19 23 25 27
45 46 46 47 47 47 47 46 47 45 54 54 52 53 46 37 44 34 33 33 32 31 29 25 20 22 20 19 20 21 20 19 20 18 18 21 20 20 17 18 20 23 26 28 30
45 46 44 47 48 48 45 45 48 45 53 53 52 47 41 39 44 38 34 33 33 30 28 30 28 24 22 21 22 19 17 18 19 20 21 25 21 20 21 20 21 23 25 29 29
45 45 45 45 46 46 45 47 50 53 53 52 48 42 38 43 44 39 32 32 33 34 33 33 29 27 23 20 16 16 12 14 19 21 25 25 9 22 20 19 23 26 28 29 28
46 46 46 47 46 45 46 49 51 53 51 47 43 40 36 43 34 33 32 30 31 30 28 29 28 23 21 18 14 11 10 9 20 23 24 24 20 22 24 24 26 28 29 27 30
47 48 48 47 48 47 49 50 50 50 47 46 44 36 40 36 36 33 33 32 30 29 28 26 26 22 20 28 23 16 7 9 10 24 24 24 24 25 26 26 29 30 29 31 37
48 49 50 49 49 49 49 44 39 40 44 41 38 37 39 40 37 33 34 30 29 29 22 25 33 28 20 21 21 19 16 16 17 26 26 25 26 28 28 30 29 29 31 36 38
48 47 48 49 49 48 46 40 41 41 36 41 41 40 42 39 31 34 35 29 29 24 23 28 24 24 25 26 25 24 22 24 26 27 29 28 29 30 30 29 29 30 36 38 40
47 47 47 47 47 47 44 45 48 46 36 39 40 38 37 34 33 33 36 30 28 24 25 27 25 26 25 25 26 25 26 27 27 30 31 29 28 28 28 27 28 31 38 39 39
47 46 45 46 43 47 43 47 48 46 32 34 36 34 33 34 30 34 37 34 29 27 28 26 25 25 24 27 27 28 28 29 30 29 26 29 18 25 26 26 27 34 36 38 39
47 47 47 43 43 43 44 47 45 45 19 32 32 36 33 32 30 32 34 31 28 26 29 27 27 27 28 29 28 30 31 31 31 28 28 27 26 26 24 24 32 34 36 38 38
47 46 45 44 44 45 45 44 43 33 20 29 30 29 29 30 31 31 31 32 32 28 28 28 31 30 30 30 30 30 32 33 30 28 25 28 26 22 26 29 33 35 36 38 38
44 43 42 43 43 45 44 40 30 23 28 27 27 27 27 27 28 30 29 29 29 26 27 28 28 31 31 32 33 33 33 28 26 26 26 27 26 24 28 34 34 35 36 37 38
44 43 42 41 44 45 43 36 23 27 27 28 28 28 27 28 29 29 29 29 28 27 30 29 21 30 33 32 31 29 28 24 13 22 23 28 23 26 33 34 36 36 36 37 37
44 43 42 43 45 44 39 28 26 26 26 27 28 26 27 27 28 28 28 28 29 29 28 29 28 29 32 31 33 30 27 30 26 25 22 24 29 31 32 32 34 34 35 35 37
43 41 40 43 44 43 36 29 29 28 27 28 21 24 23 26 27 28 28 30 29 30 31 29 29 29 32 34 33 33 32 27 28 20 17 18 25 25 31 31 35 33 34 36 37
43 38 42 44 45 39 31 28 29 30 31 29 24 23 26 26 26 26 27 29 30 29 30 29 28 29 29 30 32 32 31 30 26 22 20 16 16 36 32 33 34 34 35 36 38
43 37 44 44 39 35 33 30 31 31 33 31 30 28 26 27 26 25 25 28 30 31 29 32 28 25 26 29 31 30 30 28 23 18 21 20 20 31 33 35 35 35 36 37 37
35 35 46 43 34 32 32 33 32 32 31 31 29 30 29 27 25 26 27 31 32 32 32 31 28 22 23 24 27 26 27 29 26 25 22 18 13 34 34 35 35 35 37 37 38
37 32 37 36 34 30 29 29 30 33 31 31 30 30 28 27 28 27 27 33 32 33 35 34 29 25 14 18 25 23 24 24 25 24 23 20 19 20 26 33 34 35 36 37 38
36 33 35 34 30 30 30 29 29 29 32 31 30 29 28 25 24 25 26 29 33 36 34 33 29 28 28 27 27 26 25 24 22 24 23 21 21 22 23 23 24 32 35 36 36
36 34 33 30 31 30 29 29 28 29 29 28 29 28 28 27 25 25 25 25 24 34 33 34 29 28 26 26 25 24 24 24 24 23 23 23 22 24 24 24 25 27 29 35 35
38 36 33 30 28 26 27 28 28 30 30 31 30 28 27 28 30 29 29 28 28 27 32 30 30 27 23 25 25 20 20 22 22 22 22 22 23 23 22 24 26 30 30 32 33

GFSSW_sfc_30mbdewp_117.txt.gz
Dewpoint
50 52 52 53 51 51 51 50 50 52 55 57 58 55 54 52 50 46 46 46 45 45 45 41 37 40 41 40 37 32 22 20 24 25 27 27 27 27 25 23 22 19 18 20 21
49 49 51 51 51 50 48 48 48 49 53 57 58 56 54 53 47 47 49 47 44 43 40 36 35 39 35 35 32 29 25 25 29 27 26 25 22 20 18 17 16 17 15 17 19
47 46 49 50 50 47 46 47 48 49 55 55 58 56 53 50 45 45 50 48 44 42 38 33 34 31 30 30 30 25 23 27 30 27 25 22 19 20 18 12 15 14 15 18 19
47 48 49 50 48 46 45 44 46 48 55 56 55 52 53 47 37 41 41 41 41 38 33 32 27 26 27 25 25 23 24 26 27 24 22 20 19 16 18 15 18 18 20 20 23
47 48 49 48 47 47 46 47 46 50 55 54 52 54 51 38 37 44 37 35 35 34 30 27 25 24 23 22 18 21 21 21 24 23 20 19 15 16 17 18 19 19 21 25 26
46 46 46 47 47 47 46 48 47 54 53 53 53 50 43 33 40 44 39 34 33 32 30 29 23 22 20 19 21 22 20 21 20 19 18 20 19 22 18 19 19 21 24 27 30
45 45 47 48 47 46 47 50 47 54 53 53 48 43 39 37 44 43 40 34 35 33 29 32 29 24 22 21 21 19 16 18 19 19 21 25 18 19 19 20 20 22 23 27 30
46 46 45 46 46 46 49 51 52 53 53 53 47 42 37 42 44 41 33 32 32 32 32 29 31 25 21 22 16 16 13 11 19 20 24 20 -4 20 23 21 19 22 26 29 37
46 44 46 46 46 47 51 53 53 53 51 48 43 41 36 43 37 34 33 30 31 28 27 29 26 21 21 17 14 12 9 12 18 22 23 21 10 22 25 24 24 28 29 34 39
50 47 48 46 48 49 50 50 50 50 48 44 41 37 39 34 40 35 35 32 30 30 27 25 28 22 22 28 9 15 10 12 14 22 24 23 22 24 26 27 28 30 33 37 39
51 49 49 48 49 48 46 44 40 40 41 38 37 36 38 40 40 35 34 33 29 29 17 28 23 19 23 24 22 21 18 16 23 25 28 25 26 27 30 30 29 30 36 38 39
49 50 49 49 48 47 45 40 41 41 36 41 39 40 40 40 33 35 38 30 28 20 26 25 22 25 26 26 24 23 21 25 26 29 30 28 28 30 31 31 29 34 38 38 39
47 49 49 48 47 45 45 45 48 46 37 38 42 39 36 35 34 34 37 32 27 27 27 24 25 26 25 25 27 26 24 26 26 31 31 29 27 29 29 29 31 38 39 39 39
48 47 47 46 43 47 43 47 49 48 30 33 34 33 36 35 30 35 35 34 29 28 27 25 25 25 25 24 29 25 29 30 31 29 18 29 13 27 27 26 28 35 37 38 38
47 48 47 43 44 43 43 47 47 44 21 33 34 36 36 32 29 30 34 31 27 27 28 25 26 27 28 26 28 30 31 31 31 29 27 26 25 24 26 25 31 35 36 38 38
46 45 46 44 45 45 44 44 43 25 21 29 32 30 31 31 31 32 32 32 32 30 29 28 31 30 30 30 29 31 33 33 30 28 23 25 26 21 24 25 33 35 36 37 38
42 42 42 43 43 45 45 41 23 22 28 27 27 28 28 28 29 31 30 30 27 16 22 29 28 31 31 31 33 32 32 23 22 24 21 27 25 24 29 33 33 34 35 36 37
44 42 44 41 44 45 42 28 20 26 28 28 28 28 28 29 29 29 30 28 28 29 28 22 7 29 32 33 31 32 28 20 1 18 22 27 21 19 31 35 36 35 36 36 36
45 42 42 44 45 44 35 26 23 26 27 28 28 27 27 27 28 29 28 28 28 29 26 24 25 30 32 32 33 31 28 30 25 23 22 20 25 30 33 34 34 34 35 35 36
43 42 41 44 44 42 30 28 28 28 28 28 23 24 24 27 27 28 28 29 29 30 31 30 27 30 31 33 33 33 34 25 26 13 11 16 20 20 31 31 34 33 34 35 36
41 38 42 45 44 34 27 28 29 30 33 30 26 24 27 27 27 26 28 29 30 30 30 29 28 28 31 31 30 31 31 31 27 24 17 15 10 29 31 32 30 33 34 35 36
42 27 43 45 33 35 30 30 31 31 32 33 31 28 27 27 26 26 26 29 31 30 30 31 29 26 26 28 32 32 29 28 21 17 21 20 19 29 34 32 34 34 35 36 37
34 35 45 43 26 30 32 32 32 31 32 31 29 30 29 27 25 26 28 32 32 32 31 31 27 18 22 24 27 26 27 29 28 26 23 19 12 33 34 34 36 34 35 36 37
36 25 36 34 34 30 30 30 30 33 32 31 30 30 28 27 28 27 27 32 32 33 34 33 29 22 2 13 25 24 25 26 27 22 20 21 18 20 27 29 31 35 36 36 37
36 29 34 30 29 29 30 29 29 30 32 32 30 29 29 26 25 26 26 31 33 35 34 33 28 28 28 28 28 27 27 26 25 24 23 18 20 21 23 23 24 28 33 36 37
33 33 33 30 30 29 29 29 28 29 30 29 29 29 28 27 27 26 26 26 25 35 33 35 26 30 26 26 26 25 25 26 26 25 24 23 23 24 25 24 23 25 28 34 36
37 36 33 30 29 26 27 28 28 29 30 31 30 29 27 28 31 30 30 28 29 30 32 31 30 26 22 24 24 17 19 20 22 24 24 23 23 23 24 23 23 25 28 30 34